[[{"header":{"parameterUnit":"m.s-1","parameterCategory":1,"la1":30.6,"la2":28.766,"lo1":-90.7593,"lo2":-88.6598,"dy":0.0162,"dx":0.0183,"nx":116,"ny":114,"refTime":"2024-03-24T06:00:00:Z","depth":0,"parameterNumber":2,"parameterNumberName":"U-component_of_WINDS"},"data":[0.0,0.0,0.0,0.0,0.0,0.0,0.0,0.0,0.0,0.0,0.0,0.0,0.0,0.0,0.0,0.0,0.0,0.0,0.0,0.0,0.0,0.0,0.0,0.0,0.0,0.0,0.0,0.0,0.0,0.0,0.0,0.0,0.0,0.0,0.0,0.0,0.0,0.0,0.0,0.0,0.0,0.0,0.0,0.0,0.0,0.0,0.0,0.0,0.0,0.0,0.0,0.0,0.0,0.0,0.0,0.0,0.0,0.0,0.0,0.0,0.0,0.0,0.0,0.0,0.0,0.0,0.0,0.0,0.0,0.0,0.0,0.0,0.0,0.0,0.0,0.0,0.0,0.0,0.0,0.0,0.0,0.0,0.0,0.0,0.0,0.0,0.0,0.0,0.0,0.0,0.0,0.0,0.0,0.0,0.0,0.0,0.0,0.0,0.0,0.0,0.0,0.0,0.0,0.0,0.0,0.0,0.0,0.0,0.0,0.0,0.0,0.0,0.0,0.0,0.0,0.0,0.0,0.0,0.0,0.0,0.0,0.0,0.0,0.0,0.0,0.0,0.0,0.0,0.0,0.0,0.0,0.0,0.0,0.0,0.0,0.0,0.0,0.0,0.0,0.0,0.0,0.0,0.0,0.0,0.0,0.0,0.0,0.0,0.0,0.0,0.0,0.0,0.0,0.0,0.0,0.0,0.0,0.0,0.0,0.0,0.0,0.0,0.0,0.0,0.0,0.0,0.0,0.0,0.0,0.0,0.0,0.0,0.0,0.0,0.0,0.0,0.0,0.0,0.0,0.0,0.0,0.0,0.0,0.0,0.0,0.0,0.0,0.0,0.0,0.0,0.0,0.0,0.0,0.0,0.0,0.0,0.0,0.0,0.0,0.0,0.0,0.0,0.0,0.0,0.0,0.0,0.0,0.0,0.0,0.0,0.0,0.0,0.0,0.0,0.0,0.0,0.0,0.0,0.0,0.0,0.0,0.0,0.0,0.0,0.0,0.0,0.0,0.0,0.0,0.0,0.0,0.0,0.0,0.0,0.0,0.0,0.0,0.0,0.0,0.0,0.0,0.0,0.0,0.0,0.0,0.0,0.0,0.0,0.0,0.0,0.0,0.0,0.0,0.0,0.0,0.0,0.0,0.0,0.0,0.0,0.0,0.0,0.0,0.0,0.0,0.0,0.0,0.0,0.0,0.0,0.0,0.0,0.0,0.0,0.0,0.0,0.0,0.0,0.0,0.0,0.0,0.0,0.0,0.0,0.0,0.0,0.0,0.0,0.0,0.0,0.0,0.0,0.0,0.0,0.0,0.0,0.0,0.0,0.0,0.0,0.0,0.0,0.0,0.0,0.0,0.0,0.0,0.0,0.0,0.0,0.0,0.0,0.0,0.0,0.0,0.0,0.0,0.0,0.0,0.0,0.0,0.0,0.0,0.0,0.0,0.0,0.0,0.0,0.0,0.0,0.0,0.0,0.0,0.0,0.0,0.0,0.0,0.0,0.0,0.0,0.0,0.0,0.0,0.0,0.0,0.0,0.0,0.0,0.0,0.0,0.0,0.0,0.0,0.0,0.0,0.0,0.0,0.0,0.0,0.0,0.0,0.0,0.0,0.0,0.0,0.0,0.0,0.0,0.0,0.0,0.0,0.0,0.0,0.0,0.0,0.0,0.0,0.0,0.0,0.0,0.0,0.0,0.0,0.0,0.0,0.0,0.0,0.0,0.0,0.0,0.0,0.0,0.0,0.0,0.0,0.0,0.0,0.0,0.0,0.0,0.0,0.0,0.0,0.0,0.0,0.0,0.0,0.0,0.0,0.0,0.0,0.0,0.0,0.0,0.0,0.0,0.0,0.0,0.0,0.0,0.0,0.0,0.0,0.0,0.0,0.0,0.0,0.0,0.0,0.0,0.0,0.0,0.0,0.0,0.0,0.0,0.0,0.0,0.0,0.0,0.0,0.0,0.0,0.0,0.0,0.0,0.0,0.0,0.0,0.0,0.0,0.0,0.0,0.0,0.0,0.0,0.0,0.0,0.0,0.0,0.0,0.0,0.0,0.0,0.0,0.0,0.0,0.0,0.0,0.0,0.0,0.0,0.0,0.0,0.0,0.0,0.0,0.0,0.0,0.0,0.0,0.0,0.0,0.0,0.0,0.0,0.0,0.0,0.0,0.0,0.0,0.0,0.0,0.0,0.0,0.0,0.0,0.0,0.0,0.0,0.0,0.0,0.0,0.0,0.0,0.0,0.0,0.0,0.0,0.0,0.0,0.0,0.0,0.0,0.0,0.0,0.0,0.0,0.0,0.0,0.0,0.0,0.0,0.0,0.0,0.0,0.0,0.0,0.0,0.0,0.0,0.0,0.0,0.0,0.0,0.0,0.0,0.0,0.0,0.0,0.0,0.0,0.0,0.0,0.0,0.0,0.0,0.0,0.0,0.0,0.0,0.0,0.0,0.0,0.0,0.0,0.0,0.0,0.0,0.0,0.0,0.0,0.0,0.0,0.0,0.0,0.0,0.0,0.0,0.0,0.0,0.0,0.0,0.0,0.0,0.0,0.0,0.0,0.0,0.0,0.0,0.0,0.0,0.0,0.0,0.0,0.0,0.0,0.0,0.0,0.0,0.0,0.0,0.0,0.0,0.0,0.0,0.0,0.0,0.0,0.0,0.0,0.0,0.0,0.0,0.0,0.0,0.0,0.0,0.0,0.0,0.0,0.0,0.0,0.0,0.0,0.0,0.0,0.0,0.0,0.0,0.0,0.0,0.0,0.0,0.0,0.0,0.0,0.0,0.0,0.0,0.0,0.0,0.0,0.0,0.0,0.0,0.0,0.0,0.0,0.0,0.0,0.0,0.0,0.0,0.0,0.0,0.0,0.0,0.0,0.0,0.0,0.0,0.0,0.0,0.0,0.0,0.0,0.0,0.0,0.0,0.0,0.0,0.0,0.0,0.0,0.0,0.0,0.0,0.0,0.0,0.0,0.0,0.0,0.0,0.0,0.0,0.0,0.0,0.0,0.0,0.0,0.0,0.0,0.0,0.0,0.0,0.0,0.0,0.0,0.0,0.0,0.0,0.0,0.0,0.0,0.0,0.0,0.0,0.0,0.0,0.0,0.0,0.0,0.0,0.0,0.0,0.0,0.0,0.0,0.0,0.0,0.0,0.0,0.0,0.0,0.0,0.0,0.0,0.0,0.0,0.0,0.0,0.0,0.0,0.0,0.0,0.0,0.0,0.0,0.0,0.0,0.0,0.0,0.0,0.0,0.0,0.0,0.0,0.0,0.0,0.0,0.0,0.0,0.0,0.0,0.0,0.0,0.0,0.0,0.0,0.0,0.0,0.0,0.0,0.0,0.0,0.0,0.0,0.0,0.0,0.0,0.0,0.0,0.0,0.0,0.0,0.0,0.0,0.0,0.0,0.0,0.0,0.0,0.0,0.0,0.0,0.0,0.0,0.0,0.0,0.0,0.0,0.0,0.0,0.0,0.0,0.0,0.0,0.0,0.0,0.0,0.0,0.0,0.0,0.0,0.0,0.0,0.0,0.0,0.0,0.0,0.0,0.0,0.0,0.0,0.0,0.0,0.0,0.0,0.0,0.0,0.0,0.0,0.0,0.0,0.0,0.0,0.0,0.0,0.0,0.0,0.0,0.0,0.0,0.0,0.0,0.0,0.0,0.0,0.0,0.0,0.0,0.0,0.0,0.0,0.0,0.0,0.0,0.0,0.0,0.0,0.0,0.0,0.0,0.0,0.0,0.0,0.0,0.0,0.0,0.0,0.0,0.0,0.0,0.0,0.0,0.0,0.0,0.0,0.0,0.0,0.0,0.0,0.0,0.0,0.0,0.0,0.0,0.0,0.0,0.0,0.0,0.0,0.0,0.0,0.0,0.0,0.0,0.0,0.0,0.0,0.0,0.0,0.0,0.0,0.0,0.0,0.0,0.0,0.0,0.0,0.0,0.0,0.0,0.0,0.0,0.0,0.0,0.0,0.0,0.0,0.0,0.0,0.0,0.0,0.0,0.0,0.0,0.0,0.0,0.0,0.0,0.0,0.0,0.0,0.0,0.0,0.0,0.0,0.0,0.0,0.0,0.0,0.0,0.0,0.0,0.0,0.0,0.0,0.0,0.0,0.0,0.0,0.0,0.0,0.0,0.0,0.0,0.0,0.0,0.0,0.0,0.0,0.0,0.0,0.0,0.0,0.0,0.0,0.0,0.0,0.0,0.0,0.0,0.0,0.0,0.0,0.0,0.0,0.0,0.0,0.0,0.0,0.0,0.0,0.0,0.0,0.0,0.0,0.0,0.0,0.0,0.0,0.0,0.0,0.0,0.0,0.0,0.0,0.0,0.0,0.0,0.0,0.0,0.0,0.0,0.0,0.0,0.0,0.0,0.0,0.0,0.0,0.0,0.0,0.0,0.0,0.0,0.0,0.0,0.0,0.0,0.0,0.0,0.0,0.0,0.0,0.0,0.0,0.0,0.0,0.0,0.0,0.0,0.0,0.0,0.0,0.0,0.0,0.0,0.0,0.0,0.0,0.0,0.0,0.0,0.0,0.0,0.0,0.0,0.0,0.0,0.0,0.0,0.0,0.0,0.0,0.0,0.0,0.0,0.0,0.0,0.0,0.0,0.0,0.0,0.0,0.0,0.0,0.0,0.0,0.0,0.0,0.0,0.0,0.0,0.0,0.0,0.0,0.0,0.0,0.0,0.0,0.0,0.0,0.0,0.0,0.0,0.0,0.0,0.0,0.0,0.0,0.0,0.0,0.0,0.0,0.0,0.0,0.0,0.0,0.0,0.0,0.0,0.0,0.0,0.0,0.0,0.0,0.0,0.0,0.0,0.0,0.0,0.0,0.0,0.0,0.0,0.0,0.0,0.0,0.0,0.0,0.0,0.0,0.0,0.0,0.0,0.0,0.0,0.0,0.0,0.0,0.0,0.0,0.0,0.0,0.0,0.0,0.0,0.0,0.0,0.0,0.0,0.0,0.0,0.0,0.0,0.0,0.0,0.0,0.0,0.0,0.0,0.0,0.0,0.0,0.0,0.0,0.0,0.0,0.0,0.0,0.0,0.0,0.0,0.0,0.0,0.0,0.0,0.0,0.0,0.0,0.0,0.0,0.0,0.0,0.0,0.0,0.0,0.0,0.0,0.0,0.0,0.0,0.0,0.0,0.0,0.0,0.0,0.0,0.0,0.0,0.0,0.0,0.0,0.0,0.0,0.0,0.0,0.0,0.0,0.0,0.0,0.0,0.0,0.0,0.0,0.0,0.0,0.0,0.0,0.0,0.0,0.0,0.0,0.0,0.0,0.0,0.0,0.0,0.0,0.0,0.0,0.0,0.0,0.0,0.0,0.0,0.0,0.0,0.0,0.0,0.0,0.0,0.0,0.0,0.0,0.0,0.0,0.0,0.0,0.0,0.0,0.0,0.0,0.0,0.0,0.0,0.0,0.0,0.0,0.0,0.0,0.0,0.0,0.0,0.0,0.0,0.0,0.0,0.0,0.0,0.0,0.0,0.0,0.0,0.0,0.0,0.0,0.0,0.0,0.0,0.0,0.0,0.0,0.0,0.0,0.0,0.0,0.0,0.0,0.0,0.0,0.0,0.0,0.0,0.0,0.0,0.0,0.0,0.0,0.0,0.0,0.0,0.0,0.0,0.0,0.0,0.0,0.0,0.0,0.0,0.0,0.0,0.0,0.0,0.0,0.0,0.0,0.0,0.0,0.0,0.0,0.0,0.0,0.0,0.0,0.0,0.0,0.0,0.0,0.0,0.0,0.0,0.0,0.0,0.0,0.0,0.0,0.0,0.0,0.0,0.0,0.0,0.0,0.0,0.0,0.0,0.0,0.0,0.0,0.0,0.0,0.0,0.0,0.0,0.0,0.0,0.0,0.0,0.0,0.0,0.0,0.0,0.0,0.0,0.0,0.0,0.0,0.0,0.0,0.0,0.0,0.0,0.0,0.0,0.0,0.0,0.0,0.0,0.0,0.0,0.0,0.0,0.0,0.0,0.0,0.0,0.0,0.0,0.0,0.0,0.0,0.0,0.0,0.0,0.0,0.0,0.0,0.0,0.0,0.0,0.0,0.0,0.0,0.0,0.0,0.0,2.7855,0.0,0.0,0.0,0.0,0.0,0.0,0.0,0.0,0.0,0.0,0.0,0.0,0.0,0.0,0.0,0.0,0.0,0.0,0.0,0.0,0.0,0.0,0.0,0.0,1.4547,1.4581,1.5062,1.5165,0.0,0.0,0.0,0.0,0.0,0.0,0.0,1.8169,1.8455,1.8855,1.9409,1.9939,1.987,1.9258,1.9572,2.0038,2.0635,0.0,0.0,0.0,0.0,0.0,0.0,0.0,0.0,0.0,0.0,0.0,0.0,0.0,0.0,0.0,0.0,0.0,0.0,0.0,0.0,0.0,0.0,0.0,0.0,0.0,0.0,0.0,0.0,0.0,0.0,0.0,0.0,0.0,0.0,0.0,0.0,0.0,0.0,0.0,0.0,0.0,0.0,0.0,0.0,0.0,0.0,0.0,0.0,0.0,0.0,0.0,0.0,0.0,0.0,0.0,0.0,0.0,0.0,0.0,0.0,0.0,0.0,0.0,0.0,0.0,0.0,0.0,0.0,0.0,0.0,0.0,2.8351,0.0,0.0,0.0,0.0,0.0,0.0,0.0,0.0,0.0,0.0,0.0,0.0,0.0,0.0,0.0,0.0,0.0,0.0,0.0,0.0,0.0,1.4431,1.4512,1.4454,1.4581,1.5062,1.5119,1.5096,1.4994,1.5404,0.0,0.0,0.0,1.6765,1.7654,1.8462,1.8995,1.9293,1.9661,1.9541,1.9015,1.8895,1.9188,1.9863,2.0535,0.0,0.0,0.0,0.0,0.0,0.0,0.0,0.0,0.0,0.0,0.0,0.0,0.0,0.0,0.0,0.0,0.0,0.0,0.0,0.0,0.0,0.0,0.0,0.0,0.0,0.0,0.0,0.0,0.0,0.0,0.0,0.0,0.0,0.0,0.0,0.0,0.0,0.0,0.0,0.0,0.0,0.0,0.0,0.0,0.0,0.0,0.0,0.0,0.0,0.0,0.0,0.0,0.0,0.0,0.0,0.0,0.0,0.0,0.0,0.0,0.0,0.0,0.0,2.9789,3.0139,3.0528,3.1234,3.1495,3.1378,3.0635,3.0144,2.9894,2.9894,0.0,0.0,0.0,0.0,0.0,0.0,0.0,0.0,0.0,0.0,0.0,0.0,0.0,0.0,0.0,0.0,0.0,0.0,0.0,1.4558,1.496,1.4639,1.4581,1.5062,1.4743,1.4512,1.4489,1.5416,1.5927,1.5878,1.6595,1.7409,1.8362,1.8119,1.8396,1.9208,1.8638,1.8336,1.8242,1.8228,1.8282,1.8431,1.9618,2.0144,2.0194,0.0,0.0,0.0,0.0,0.0,0.0,0.0,0.0,0.0,0.0,0.0,0.0,0.0,0.0,0.0,0.0,0.0,0.0,0.0,0.0,0.0,0.0,0.0,0.0,0.0,0.0,0.0,0.0,0.0,0.0,0.0,0.0,0.0,0.0,0.0,0.0,0.0,0.0,0.0,0.0,0.0,2.5575,2.5915,0.0,0.0,0.0,0.0,0.0,0.0,0.0,0.0,0.0,0.0,0.0,0.0,0.0,2.9766,3.0956,3.0989,3.1329,3.2034,3.251,3.2778,3.2851,3.3439,3.3433,3.3007,3.3338,0.0,3.1489,3.1489,0.0,0.0,0.0,0.0,0.0,0.0,0.0,0.0,0.0,0.0,0.0,0.0,0.0,0.0,0.0,0.0,0.0,0.0,0.0,0.0,0.0,1.4524,1.4477,1.4685,1.4512,1.4516,1.4778,1.536,1.59,1.6266,1.6731,1.7383,1.8251,1.8077,1.818,1.8578,1.7952,1.7659,1.7659,1.7659,1.7659,1.7678,1.8551,1.9162,1.9579,2.0245,0.0,0.0,0.0,0.0,0.0,0.0,0.0,0.0,0.0,0.0,0.0,0.0,0.0,0.0,0.0,0.0,0.0,0.0,0.0,0.0,0.0,0.0,0.0,0.0,0.0,0.0,0.0,0.0,0.0,0.0,0.0,0.0,0.0,0.0,0.0,0.0,0.0,0.0,0.0,2.512,2.5285,2.5476,2.5799,2.6201,0.0,0.0,0.0,0.0,0.0,0.0,0.0,0.0,0.0,3.0044,3.0489,3.0909,3.127,3.1701,3.2187,3.2718,3.3486,3.3998,3.4272,3.4918,3.5105,3.4913,3.5424,3.5295,3.4577,3.3538,3.3086,3.3086,0.0,0.0,0.0,0.0,3.319,3.319,0.0,0.0,0.0,0.0,0.0,0.0,0.0,0.0,0.0,0.0,0.0,0.0,1.4396,1.4396,1.4396,1.4396,1.4506,1.4734,1.5072,1.552,1.5974,1.6478,1.6828,1.7279,1.7875,1.7911,1.7911,1.7911,1.7626,1.7467,1.7489,1.7598,1.7664,1.767,1.8087,1.8592,1.9186,1.976,2.0194,2.0574,0.0,0.0,0.0,0.0,0.0,0.0,0.0,0.0,0.0,0.0,0.0,0.0,0.0,0.0,0.0,0.0,0.0,0.0,0.0,0.0,0.0,0.0,0.0,0.0,0.0,0.0,0.0,0.0,0.0,0.0,0.0,0.0,0.0,0.0,0.0,0.0,0.0,2.5154,2.527,2.527,2.5851,2.6427,0.0,0.0,0.0,0.0,0.0,0.0,2.9718,3.0924,3.1558,3.1378,3.212,3.2453,3.2297,3.2816,3.3251,3.3552,3.4388,3.4934,3.5311,3.5999,3.6226,3.6133,3.6671,3.6812,3.6596,3.5341,3.4829,3.484,3.4977,3.5029,3.505,3.5218,3.5259,3.5259,0.0,0.0,0.0,0.0,0.0,0.0,0.0,0.0,0.0,0.0,0.0,1.4396,1.4396,1.4396,1.4396,1.4396,1.4822,1.506,1.5103,1.5946,1.6457,1.65,1.6986,1.7312,1.7348,1.7348,1.7348,1.7348,1.7751,1.7955,1.7963,1.8414,1.8626,1.8626,1.8656,1.8796,1.9041,1.9708,2.0334,2.0862,2.096,0.0,0.0,0.0,0.0,0.0,0.0,0.0,0.0,0.0,0.0,0.0,0.0,0.0,0.0,0.0,0.0,0.0,0.0,0.0,0.0,0.0,0.0,0.0,0.0,0.0,0.0,0.0,0.0,0.0,0.0,0.0,0.0,0.0,0.0,0.0,0.0,0.0,0.0,2.5945,2.6609,0.0,0.0,0.0,0.0,2.9543,2.9934,3.0442,3.1082,3.1836,3.2532,3.3145,3.3823,3.4505,3.5187,3.5219,3.525,3.5278,3.5773,3.6015,3.6055,3.66,3.6581,3.6133,3.6671,3.6619,3.6186,3.6584,3.6766,3.6829,3.7381,3.7618,3.7689,3.8185,3.8364,3.8364,0.0,0.0,0.0,0.0,0.0,0.0,1.4396,1.4396,1.4396,1.4396,1.4396,1.4396,1.4396,1.4396,1.4516,1.481,1.5006,1.5356,1.5955,1.6326,1.6653,1.6994,1.7205,1.7306,1.7306,1.7598,1.7737,1.7737,1.8217,1.8436,1.8458,1.8611,1.8713,1.8713,1.8713,1.8925,1.9314,1.9242,1.9632,2.0262,2.0322,2.0648,0.0,0.0,0.0,0.0,0.0,0.0,0.0,0.0,0.0,0.0,0.0,0.0,0.0,0.0,0.0,0.0,0.0,0.0,0.0,0.0,0.0,0.0,0.0,0.0,0.0,0.0,0.0,0.0,0.0,0.0,0.0,0.0,0.0,0.0,0.0,0.0,0.0,2.7174,2.7901,0.0,2.9207,2.9674,3.0365,3.1317,3.1804,3.2397,3.3138,3.3891,3.4397,3.4636,3.4889,3.511,3.5408,3.5837,3.6044,3.6044,3.6702,3.6993,3.7007,3.7206,3.7178,3.7007,3.7206,3.7178,3.7007,3.7206,3.7124,3.6914,3.7128,3.7471,3.7809,3.7998,3.8288,3.8606,0.0,0.0,0.0,0.0,0.0,0.0,1.4396,1.4396,1.4396,1.4396,1.4396,1.4396,1.4396,1.4538,1.4744,1.506,1.54,1.5845,1.6457,1.6653,1.6929,1.727,1.7445,1.7533,1.7533,1.8014,1.8239,1.8239,1.8698,1.9026,1.9179,1.9369,1.9522,1.9675,1.9675,1.9881,2.0167,1.9508,1.957,2.0086,2.0369,2.0643,2.0923,0.0,0.0,0.0,0.0,0.0,0.0,0.0,0.0,0.0,0.0,0.0,0.0,0.0,0.0,0.0,0.0,0.0,0.0,0.0,0.0,0.0,0.0,0.0,0.0,0.0,0.0,0.0,0.0,0.0,0.0,0.0,0.0,0.0,0.0,0.0,2.7875,2.8532,2.9246,2.9973,3.0726,3.1294,3.1933,3.2741,3.3352,3.3962,3.4553,3.5261,3.5671,3.5671,3.5949,3.6075,3.6018,3.6503,3.677,3.677,3.7274,3.7621,3.7843,3.7843,3.7969,3.8159,3.8159,3.8159,3.8159,3.8159,3.8017,3.7758,3.7484,3.7615,3.7986,3.8196,3.8614,3.9065,0.0,0.0,0.0,0.0,0.0,1.4374,1.4396,1.4396,1.4374,1.4396,1.4396,1.4396,1.4385,1.481,1.5103,1.5125,1.5955,1.6487,1.6509,1.7016,1.7306,1.7328,1.7759,1.8006,1.8021,1.848,1.872,1.872,1.9207,1.9693,2.0156,2.0681,2.1162,2.1599,2.1599,2.1599,2.1555,2.0543,2.0261,2.049,2.1089,2.1075,2.076,0.0,0.0,0.0,0.0,0.0,0.0,0.0,0.0,0.0,0.0,0.0,0.0,0.0,0.0,0.0,0.0,0.0,0.0,0.0,0.0,0.0,0.0,0.0,0.0,0.0,0.0,0.0,0.0,0.0,0.0,0.0,0.0,0.0,2.7805,2.8323,2.9099,2.9983,3.056,3.1209,3.2014,3.2565,3.3139,3.381,3.4506,3.4998,3.514,3.5845,3.6222,3.6222,3.7059,3.7421,3.7241,3.7406,3.7527,3.7558,3.7558,3.7906,3.8539,3.8539,3.8902,3.9503,3.9503,3.9503,3.9503,3.9503,3.9503,3.9407,3.8634,3.8343,3.8427,3.9026,3.9586,4.0049,0.0,0.0,0.0,0.0,0.0,1.4013,1.4352,1.41,1.4013,1.4352,1.4396,1.4361,1.4268,1.4762,1.516,1.5296,1.6033,1.6559,1.672,1.7079,1.7445,1.7781,1.7701,1.7902,1.8501,1.8874,1.9208,1.9506,2.0162,2.0641,2.0965,2.1267,2.1489,2.1599,2.1599,2.1599,2.1577,2.1297,2.1222,2.1189,2.0356,2.0198,2.0576,0.0,0.0,0.0,0.0,0.0,0.0,0.0,0.0,0.0,0.0,0.0,0.0,0.0,0.0,0.0,0.0,0.0,0.0,0.0,0.0,0.0,0.0,0.0,0.0,0.0,0.0,0.0,0.0,0.0,0.0,0.0,2.9211,2.9652,2.8449,2.9402,3.0634,3.1751,3.2084,3.2743,3.3984,3.4138,3.45,3.5271,3.5416,3.5773,3.6451,3.6773,3.6867,3.6779,3.7101,3.7446,3.7763,3.7979,3.8323,3.8811,3.8904,3.9029,3.9218,3.9218,3.9345,3.9503,3.9503,3.9503,3.9503,3.9503,3.9503,3.9487,3.926,3.9435,3.9836,3.9996,4.0395,4.0865,0.0,0.0,0.0,0.0,0.0,1.386,1.4331,1.3991,1.386,1.4331,1.4396,1.4373,1.4292,1.49,1.5358,1.5472,1.6173,1.6675,1.6786,1.6976,1.7312,1.7773,1.779,1.8095,1.8782,1.9361,1.979,2.0014,2.0637,2.1111,2.1457,2.1582,2.1779,2.2045,2.2045,2.2099,2.2171,2.1974,2.1887,2.1795,2.0785,2.0486,2.0711,2.1253,2.1261,2.1036,2.1301,2.1456,2.1453,2.1212,0.0,0.0,0.0,0.0,0.0,0.0,0.0,0.0,0.0,0.0,0.0,0.0,0.0,0.0,0.0,0.0,0.0,0.0,0.0,0.0,0.0,0.0,0.0,0.0,3.0492,3.1072,3.0256,3.0907,3.1982,3.3332,3.3501,3.396,3.5119,3.5112,3.5346,3.6103,3.6089,3.629,3.6846,3.7218,3.7358,3.7313,3.7732,3.8091,3.8339,3.8497,3.8795,3.9171,3.9345,3.955,3.985,3.9913,4.0103,4.0388,4.0388,4.0546,4.083,4.083,4.102,0.0,0.0,0.0,0.0,0.0,4.0596,4.0856,0.0,0.0,0.0,1.3445,1.3521,1.3707,1.4243,1.3926,1.3805,1.4331,1.4385,1.4361,1.435,1.5098,1.5571,1.5532,1.6316,1.6793,1.6793,1.6765,1.6984,1.7544,1.7932,1.8414,1.8977,1.9816,2.0288,2.0351,2.0836,2.1321,2.1767,2.1764,2.2091,2.2665,2.2665,2.2777,2.2942,2.2509,2.2353,2.2328,2.1865,2.1402,2.101,2.1351,2.1443,2.1342,2.1086,2.1406,2.1912,2.1302,0.0,0.0,0.0,0.0,0.0,0.0,0.0,0.0,0.0,0.0,0.0,0.0,0.0,0.0,0.0,0.0,0.0,0.0,0.0,0.0,0.0,0.0,0.0,0.0,3.1709,3.2576,3.2721,3.2696,3.3154,3.4604,3.4671,3.4919,3.5718,3.5674,3.5876,3.6461,3.6569,3.6662,3.6801,0.0,0.0,0.0,0.0,3.8946,3.8875,3.9023,3.9182,3.9307,3.9515,3.9972,4.0616,4.0795,4.1223,4.1793,4.1793,4.2189,4.2789,4.2789,4.3169,4.3467,4.094,3.9945,3.9913,4.0457,4.0591,4.0526,0.0,0.0,0.0,1.2452,1.2484,1.28,1.3707,1.3401,1.3379,1.4287,1.4315,1.4198,1.4091,1.49,1.5351,1.5117,1.6152,1.6793,1.6793,1.6602,1.6944,1.802,1.7893,1.8317,1.9429,1.9834,2.0229,2.0604,2.1267,2.1715,2.2031,2.22,2.2336,2.2459,2.2459,2.2572,2.2759,2.2672,2.2722,2.2826,2.235,2.1651,2.1041,2.2113,2.2014,2.1438,2.2365,2.2665,2.2538,2.1939,2.1903,2.213,2.2105,0.0,0.0,0.0,0.0,0.0,0.0,0.0,0.0,0.0,0.0,0.0,0.0,0.0,0.0,0.0,0.0,0.0,0.0,0.0,0.0,3.1401,3.2374,3.3592,3.4755,3.4395,3.4349,3.5245,3.5306,3.5583,3.6276,3.6322,3.6369,3.6492,3.6999,3.7323,3.7355,3.8131,3.8502,3.8356,3.8658,3.8999,3.9372,3.9541,4.0183,4.1269,0.0,0.0,4.2573,4.2591,4.2775,4.3039,4.3039,4.322,4.3499,4.3499,4.3594,4.3657,4.312,4.2551,4.2096,4.2195,4.1864,4.1373,0.0,0.0,0.0,0.0,1.2201,1.2441,1.3183,1.3074,1.3172,1.3947,1.4207,1.4245,1.4105,1.4579,1.4822,1.4632,1.5524,1.6239,1.6587,1.6153,1.6517,1.7893,1.7502,1.7895,1.933,1.9903,2.0326,2.0556,2.1353,2.1814,2.1949,2.2044,2.2157,2.2252,2.2252,2.2421,2.2703,2.2703,2.2815,2.2979,2.2742,2.2237,2.1659,2.2131,2.2202,2.2123,2.2531,2.2874,2.3001,2.2353,2.2325,2.2547,2.2547,2.2599,2.2704,0.0,0.0,0.0,0.0,0.0,0.0,0.0,0.0,0.0,0.0,0.0,0.0,0.0,0.0,2.9684,2.9479,0.0,3.1975,3.1898,3.2736,3.3599,3.4319,3.4362,3.4747,3.5876,3.5999,3.6122,3.6461,3.6784,3.6999,3.6999,3.7615,3.8015,3.8015,3.8727,3.9098,3.8984,3.9793,4.0317,4.0553,4.0965,4.1542,4.2204,4.2368,4.2612,4.2954,4.3061,4.3149,4.3255,4.3255,4.3531,4.4085,4.4569,4.4762,4.4762,4.4762,4.4099,4.32,4.32,4.2979,4.2648,0.0,0.0,0.0,0.0,0.0,1.2213,1.2682,1.2835,1.3074,1.3597,1.4066,1.4303,1.4151,1.4307,1.438,1.4286,1.4975,1.557,1.5995,1.5633,1.5965,1.7259,1.7096,1.756,1.8861,1.9868,2.0413,2.0413,2.1344,2.1797,2.1797,2.1797,2.1892,2.2044,2.2044,2.2233,2.259,2.2628,2.2759,2.2945,2.2983,2.2764,2.24,2.2088,2.2311,2.2759,2.2486,2.2885,2.3472,2.281,2.2775,2.3004,2.3004,2.3111,2.3272,2.3487,2.3554,0.0,0.0,0.0,0.0,0.0,0.0,0.0,0.0,0.0,2.7875,2.8269,2.9146,2.9929,3.0174,3.1075,3.188,3.224,3.2844,3.3314,3.3463,3.3842,3.4639,3.6077,3.6267,3.6315,3.6457,3.7069,3.7516,3.7691,3.8323,3.8676,3.8676,3.9476,3.9907,3.9907,4.1124,4.1801,4.1801,4.2325,4.2663,4.2786,4.2901,4.3035,4.3159,4.3322,4.3412,4.3466,4.3483,4.3903,4.4611,4.5425,4.575,4.5769,4.5787,4.511,4.4099,4.3941,4.3801,4.3691,0.0,0.0,0.0,0.0,0.0,1.1733,1.2201,1.2617,1.3042,1.3465,1.3919,1.414,1.3869,1.4223,1.4517,1.4643,1.5122,1.5206,1.4736,1.5147,1.5561,1.5918,1.7002,1.7752,1.8118,1.9623,2.0413,2.0413,2.1344,2.1797,2.1797,2.1797,2.1797,2.1816,2.1816,2.1949,2.2176,2.2365,2.2553,2.274,2.2927,2.2979,2.29,2.2609,2.2638,2.2823,2.2943,2.3519,2.4121,2.3498,2.3508,2.3796,2.3796,2.3865,2.4082,2.4652,0.0,2.4815,2.4869,2.4896,0.0,2.5643,2.5895,2.6131,0.0,0.0,2.7659,2.7769,2.9148,3.0172,2.9694,3.15,3.2918,3.2376,3.2811,3.343,3.4095,3.3676,3.3829,3.517,3.5361,3.5616,3.6334,3.6967,3.761,3.8319,3.9014,3.9384,3.9384,4.0645,4.137,4.137,4.2109,4.2509,4.2509,4.2571,4.291,4.3501,4.3519,4.3827,4.4413,4.4432,4.4545,4.4713,4.4911,4.5017,4.5147,4.5413,4.5549,4.5536,4.575,4.571,4.5489,4.4826,4.4211,4.3691,0.0,0.0,0.0,0.0,0.0,1.1558,1.1755,1.2191,1.266,1.3086,1.3541,1.3816,1.3907,1.4088,1.4221,1.4227,1.4955,1.5294,1.5045,1.4927,1.5192,1.5906,1.5949,1.6667,1.8189,1.8992,1.9613,2.0055,2.0948,2.1385,2.1385,2.1673,2.1797,2.1797,2.1797,2.1968,2.2271,2.2365,2.2572,2.2889,2.2964,2.2848,2.2539,2.2156,2.2099,2.2309,2.2896,2.3325,0.0,0.0,2.3891,2.406,2.4246,2.4345,2.4469,2.4881,2.5018,0.0,2.5426,0.0,0.0,0.0,2.6415,2.6577,2.7174,2.7755,2.8275,2.8665,2.9623,3.0427,3.0538,3.1409,3.2163,0.0,3.2449,3.2721,3.3013,3.3115,3.3348,3.3906,3.4548,3.5472,3.6799,3.7091,3.7529,3.8322,3.8901,3.9445,3.9978,4.0885,4.162,4.2153,4.2817,4.3174,4.3174,4.3575,4.3913,4.419,4.419,4.4314,4.4622,4.4991,4.543,4.5897,4.6121,4.6198,4.6217,4.6541,4.6674,4.6693,4.6931,4.7024,4.6898,4.576,4.5159,4.4907,0.0,0.0,0.0,0.0,0.0,0.0,0.0,0.0,1.2322,1.2619,1.3173,1.3668,1.3978,1.394,1.3848,1.3686,1.4478,1.4882,1.4628,1.4543,1.4728,1.5256,1.5144,1.5847,1.7484,1.8166,1.8827,1.9489,2.0247,2.0726,2.0909,2.1404,2.1611,2.1613,2.1756,2.1949,2.2233,2.2197,2.2379,2.2635,2.2637,2.2411,2.2062,2.1599,2.1565,2.1881,2.2588,2.2925,2.322,0.0,2.4187,2.4274,2.4577,2.4692,2.479,2.5151,2.5371,2.5574,2.6022,0.0,0.0,2.6903,2.7065,2.7255,2.803,2.8519,2.9024,2.9621,3.0228,3.0771,3.1205,3.1422,3.1684,3.2119,3.22,3.2255,3.2418,3.2816,3.3224,3.3531,3.4279,3.5435,3.7049,3.7102,3.7469,3.8411,3.905,3.9761,4.0588,4.1186,4.1934,4.286,4.329,4.3627,4.3852,4.4344,4.4683,4.4868,4.4868,4.496,4.5176,4.5669,4.6142,4.6623,4.6731,4.6821,4.6829,4.7181,4.7317,4.7367,4.761,4.7706,4.758,4.6554,4.625,4.6392,0.0,0.0,0.0,0.0,0.0,0.0,0.0,0.0,0.0,1.2042,1.301,1.3769,1.3989,1.3838,1.3549,1.3173,1.3626,1.3581,1.2735,1.3812,1.4109,1.3236,1.5031,1.5823,1.5307,1.7077,1.8272,1.8719,1.9151,1.9731,2.0434,2.0909,2.1116,2.1137,2.1611,2.1818,2.1814,2.1747,2.174,2.1734,2.1659,2.1625,2.1577,2.1091,2.1291,2.1838,2.2059,2.2546,2.321,0.0,2.4421,2.462,2.4763,2.4891,0.0,2.5697,2.6294,2.6752,0.0,0.0,2.693,2.7526,2.7662,2.7976,2.9159,2.9458,2.9648,3.0256,3.0853,3.1287,3.1287,3.1793,3.2173,3.22,3.22,3.239,3.2979,3.3088,3.3504,3.4632,3.4775,3.5366,0.0,3.6914,3.7478,3.8871,3.9842,4.0588,4.1148,4.1874,4.2666,4.3525,4.3378,4.3721,4.456,4.4591,4.4929,4.5576,4.5576,4.5895,4.6542,4.6542,4.6573,4.6603,4.6623,4.6623,4.6623,4.6841,4.6939,4.6959,4.7123,4.7232,4.72,4.7169,4.7439,4.7846,0.0,0.0,0.0,0.0,0.0,0.0,0.0,0.0,0.0,0.0,0.0,0.0,0.0,0.0,0.0,0.0,1.3281,1.3772,1.3482,1.3702,1.4075,1.4611,1.4281,1.4843,1.6356,1.6217,1.6929,1.8507,1.8772,1.9271,2.0014,2.0452,2.064,2.064,2.0951,2.1141,2.1289,2.1389,2.1521,2.1623,2.1612,2.1402,2.1164,2.1403,2.1423,2.1465,0.0,2.291,0.0,0.0,0.0,0.0,2.4734,0.0,0.0,2.6276,2.6632,2.6903,2.7282,0.0,2.7635,2.8644,2.8888,2.9105,2.9903,3.0408,3.0761,3.0961,3.1494,3.1902,3.1902,3.2065,3.22,3.22,3.22,3.239,3.3033,3.3422,3.3973,3.4713,3.5147,0.0,0.0,0.0,0.0,3.8119,3.873,3.9396,4.0158,4.1401,4.2225,4.2525,4.3592,4.4237,4.4387,4.4967,4.5607,4.6265,4.6265,4.6603,4.725,4.725,4.7496,4.7927,4.7927,4.7927,4.7947,4.8182,4.8283,4.8303,4.8524,4.8653,4.8772,4.8772,4.8981,4.9071,0.0,0.0,0.0,0.0,0.0,0.0,0.0,0.0,0.0,0.0,0.0,0.0,0.0,0.0,0.0,0.0,0.0,1.3297,1.3228,1.3286,1.364,1.4362,1.3658,1.3986,1.5582,1.5056,1.5654,1.7448,1.7556,1.8195,1.9305,1.9744,2.0017,2.0182,2.0472,2.0662,2.0786,2.0902,2.1008,2.1129,2.1093,2.0882,2.0682,2.1313,2.1511,0.0,2.2698,2.325,0.0,0.0,0.0,0.0,0.0,0.0,2.6229,2.6926,2.7282,2.7526,2.7922,2.8166,2.8519,2.9295,2.9648,2.9984,3.0581,3.1015,3.1341,3.1576,3.1929,3.22,3.22,3.22,3.22,3.22,3.2363,3.2716,3.3295,3.3919,3.4496,3.5066,3.5635,3.6171,0.0,0.0,0.0,3.8,3.853,3.9203,3.9964,4.0977,4.1731,4.2254,4.3428,4.4218,4.4636,4.5512,4.6296,4.6973,4.7188,4.7558,4.7958,4.7958,4.8204,4.8583,4.8583,4.8583,4.8604,4.878,4.8841,4.8862,4.9006,4.9117,4.9239,4.9239,4.93,4.9316,0.0,0.0,0.0,0.0,0.0,0.0,0.0,0.0,0.0,0.0,0.0,0.0,0.0,0.0,0.0,0.0,0.0,0.0,1.2047,1.2636,1.2909,1.2719,1.3223,1.3391,1.3188,1.3713,1.4565,1.5725,1.5712,1.6626,1.8377,1.8812,1.9264,1.9737,2.0117,2.0286,2.0301,2.0248,2.0211,2.0202,2.0068,2.0042,2.0155,2.0862,2.1534,2.22,2.291,0.0,0.0,0.0,0.0,0.0,0.0,0.0,0.0,2.7554,2.8139,2.8616,2.8644,2.9051,2.9512,2.9583,3.0011,3.0608,3.1205,3.1341,3.1522,3.2092,3.22,3.22,0.0,0.0,3.22,3.22,3.2707,3.3286,3.3826,3.4423,3.5039,0.0,0.0,0.0,0.0,0.0,0.0,3.8429,0.0,3.9922,4.0511,4.061,4.1277,4.2643,4.2921,4.3726,4.5171,4.6204,4.7034,4.7681,4.8276,4.8583,4.8583,4.8583,4.8583,4.8583,4.8583,4.8583,4.8583,4.8583,4.8583,4.8583,4.8583,4.8604,4.8604,4.8604,4.8625,4.8749,0.0,0.0,0.0,0.0,0.0,0.0,0.0,0.0,0.0,0.0,0.0,0.0,0.0,0.0,0.0,0.0,0.0,0.0,1.2529,1.2817,1.3356,1.414,1.3744,1.3714,1.4119,1.4063,1.4662,1.6,1.5803,1.644,1.789,1.8014,1.8181,1.8411,1.8643,1.8834,1.8929,1.9053,1.9104,1.9098,1.9067,1.9293,1.9773,2.0899,2.1689,2.2317,2.3434,0.0,0.0,0.0,0.0,0.0,0.0,0.0,2.7011,0.0,0.0,2.8698,2.9159,2.9377,2.9702,3.0626,3.0979,3.1232,3.182,3.1983,3.201,3.2173,3.22,3.22,0.0,0.0,0.0,3.22,3.2707,0.0,3.3826,3.4423,0.0,3.5635,0.0,3.6795,3.7235,3.7968,0.0,0.0,3.9267,3.9481,3.9618,4.0668,4.1149,4.0874,4.2566,4.3986,4.4981,4.704,4.8173,4.8337,4.8522,4.8583,4.8583,4.8583,4.8583,4.8583,4.8583,4.8583,4.8583,4.8583,4.8583,4.8583,4.8583,4.8718,4.8914,4.8914,4.8985,4.9158,0.0,0.0,0.0,0.0,0.0,0.0,0.0,0.0,0.0,0.0,0.0,0.0,0.0,0.0,0.0,0.0,0.0,0.0,0.0,1.286,1.3202,1.3827,1.3718,1.377,1.4052,1.3869,1.4434,1.5796,1.5376,1.5923,1.7384,1.7384,1.7579,1.7899,1.8022,1.8144,1.8318,1.8501,1.8721,0.0,0.0,1.9395,2.0044,2.1277,2.1951,2.2376,0.0,0.0,0.0,0.0,0.0,2.5094,2.6295,2.6745,2.7038,2.8248,0.0,2.8725,2.9322,2.9702,3.0137,3.107,3.1522,3.1793,3.2119,3.22,3.22,3.22,3.22,0.0,0.0,0.0,0.0,0.0,0.0,0.0,3.3853,3.4639,3.5418,0.0,3.6632,0.0,3.7832,3.8429,3.8939,0.0,3.9292,3.9427,3.9671,4.0491,4.0948,4.0997,4.3085,4.4981,4.6522,4.789,4.8583,4.8583,4.8583,4.8583,4.8583,4.8583,4.8583,4.8583,0.0,4.8583,4.8583,4.8583,4.8583,4.8583,4.8583,4.8697,4.88,4.88,4.8903,4.8995,0.0,0.0,0.0,0.0,0.0,0.0,0.0,0.0,0.0,0.0,1.1842,0.0,0.0,0.0,0.0,0.0,0.0,0.0,0.0,0.0,1.2934,1.2928,1.3592,1.3856,1.3575,1.3732,1.4347,1.5439,1.4927,1.5473,1.6968,1.6968,1.7265,1.7771,1.7771,1.7883,1.8087,1.8201,1.8599,1.9153,1.9278,1.9706,2.0451,0.0,0.0,0.0,0.0,0.0,0.0,0.0,2.4791,2.5166,2.6385,2.6806,2.7038,2.8248,2.8616,2.8752,2.9431,2.9984,3.0554,3.1232,3.182,3.22,3.22,3.22,3.22,3.22,0.0,3.22,3.22,3.22,3.22,3.22,0.0,3.3908,3.3908,3.4957,3.5906,3.6524,3.7127,3.7751,3.8347,3.8966,3.9319,3.94,3.9427,3.9644,4.0183,4.0373,4.0947,4.2086,4.3868,4.5931,4.8198,4.8355,4.848,4.8583,4.8583,4.8583,4.8583,4.8583,4.8645,4.8737,4.8737,0.0,4.8881,4.8881,4.8881,4.8881,4.8881,4.8881,4.8881,4.8881,4.8881,4.8881,0.0,0.0,0.0,0.0,0.0,0.0,0.0,0.0,0.0,0.0,1.158,1.1726,0.0,0.0,0.0,0.0,0.0,0.0,0.0,0.0,0.0,1.3542,1.4396,1.4575,1.3927,1.4941,1.5507,1.5559,1.5623,1.6058,1.6835,1.6835,1.6963,1.7148,1.7148,1.727,1.7448,1.7476,1.7807,1.8327,1.8341,1.8959,1.9967,0.0,0.0,0.0,0.0,0.0,0.0,0.0,2.4806,2.5064,2.6235,2.6715,2.7038,2.8248,2.8616,2.8845,2.993,3.0337,3.0663,3.1766,3.2119,3.22,3.22,3.22,0.0,0.0,3.22,3.22,3.22,3.22,3.22,3.22,0.0,0.0,0.0,0.0,3.5906,0.0,0.0,0.0,0.0,0.0,0.0,0.0,0.0,4.0101,4.021,4.1137,4.2005,4.2711,4.3821,4.5029,4.627,4.706,4.784,4.8583,4.8583,4.8583,4.8583,4.8583,4.8943,4.9497,4.9497,0.0,5.0328,5.0328,5.0328,5.0328,5.0328,5.0328,5.0328,5.0328,5.0328,5.0349,0.0,0.0,0.0,0.0,0.0,0.0,0.0,1.1505,1.1505,1.1505,1.1505,1.158,1.1798,1.2117,1.2424,0.0,0.0,0.0,0.0,0.0,0.0,0.0,1.4465,1.478,1.4573,1.5167,0.0,0.0,0.0,1.6204,0.0,0.0,0.0,0.0,0.0,1.7117,1.732,1.7604,1.8048,1.8602,1.8871,1.9488,0.0,0.0,0.0,0.0,0.0,0.0,0.0,0.0,2.4905,2.5094,2.631,2.6761,2.7038,2.8248,2.8616,2.8845,3.0066,3.0401,3.069,3.1902,3.22,3.22,3.22,0.0,0.0,0.0,3.22,3.22,3.22,0.0,0.0,0.0,0.0,0.0,0.0,0.0,0.0,0.0,0.0,0.0,0.0,0.0,0.0,0.0,0.0,4.0811,4.111,4.1978,4.2815,4.3586,4.4083,4.503,4.6513,4.6973,4.767,4.8583,4.8583,4.8799,4.9158,4.9158,4.9558,5.0205,5.0205,0.0,5.0697,5.0697,5.0697,5.0697,5.0697,5.0697,5.0697,5.0697,5.0697,5.0719,0.0,0.0,0.0,0.0,0.0,0.0,1.1505,1.1505,1.1505,1.1505,1.1505,1.1505,1.1505,1.1917,1.2353,0.0,0.0,0.0,0.0,0.0,0.0,0.0,0.0,1.4864,1.505,0.0,0.0,0.0,0.0,0.0,0.0,0.0,0.0,0.0,0.0,0.0,0.0,1.8007,1.8575,0.0,0.0,0.0,0.0,0.0,0.0,0.0,0.0,0.0,0.0,0.0,2.5018,2.5194,2.6415,2.6806,2.7038,2.8248,2.8616,2.8845,3.0066,3.0401,3.069,3.1902,3.22,3.22,3.22,3.22,0.0,0.0,3.22,3.22,3.22,0.0,3.22,0.0,3.3167,0.0,0.0,0.0,0.0,0.0,0.0,0.0,0.0,0.0,0.0,0.0,0.0,0.0,4.2168,4.2629,4.3232,4.3989,4.3984,4.4817,4.655,4.6601,4.7168,4.8313,4.8466,4.8938,4.9703,4.9857,5.0288,5.0913,5.0913,0.0,0.0,5.1128,5.1128,5.1128,5.1128,5.1128,5.1128,5.1128,5.1128,5.1128,0.0,0.0,0.0,0.0,0.0,0.0,1.1505,1.1505,1.1505,1.1505,1.1505,1.1505,1.1505,1.1917,1.2222,0.0,0.0,0.0,0.0,0.0,0.0,0.0,0.0,0.0,0.0,0.0,0.0,0.0,0.0,0.0,0.0,0.0,0.0,0.0,0.0,0.0,0.0,0.0,0.0,0.0,0.0,0.0,0.0,0.0,0.0,0.0,0.0,0.0,0.0,0.0,0.0,2.5194,2.6415,2.6806,2.7038,2.8248,0.0,0.0,3.0066,3.0401,3.069,3.1902,3.22,3.22,3.22,0.0,0.0,3.22,3.22,3.22,3.22,3.22,0.0,0.0,0.0,3.3908,0.0,0.0,0.0,0.0,0.0,0.0,0.0,0.0,0.0,0.0,0.0,0.0,4.2792,4.2846,4.2922,4.3018,4.3018,4.3519,4.4568,4.4568,4.5502,4.7349,4.7949,4.8737,4.9733,5.0349,5.0974,5.1621,5.1621,0.0,0.0,5.2513,5.2513,5.2513,5.2513,5.2513,5.2513,5.2513,5.2513,5.2513,0.0,0.0,0.0,0.0,0.0,0.0,1.1505,1.1505,1.1505,1.1505,1.1505,1.1505,1.1505,1.1667,1.1885,1.2189,0.0,0.0,0.0,0.0,0.0,0.0,0.0,0.0,0.0,0.0,0.0,0.0,0.0,0.0,0.0,0.0,0.0,0.0,0.0,0.0,0.0,0.0,0.0,0.0,0.0,0.0,0.0,0.0,0.0,0.0,0.0,0.0,0.0,0.0,0.0,0.0,2.5995,2.6496,0.0,0.0,2.8616,2.8763,2.9648,3.012,3.0608,3.145,3.1929,3.22,3.22,0.0,3.22,3.22,3.22,3.22,3.22,3.22,3.22,3.22,3.3167,0.0,3.3908,0.0,0.0,0.0,0.0,0.0,0.0,0.0,0.0,0.0,0.0,0.0,4.2925,4.2925,4.2925,4.2925,4.2925,4.3352,4.4289,4.4915,4.6066,4.781,4.8676,4.9738,5.0913,5.119,5.1682,5.2298,5.2298,0.0,0.0,5.2676,5.2676,5.2676,5.2676,5.2676,5.2676,5.2676,5.2676,5.2676,0.0,0.0,0.0,0.0,0.0,1.1505,1.1505,1.1505,1.1505,1.1505,1.1505,1.1505,1.1505,1.1505,1.1624,1.1961,1.2431,0.0,0.0,0.0,0.0,0.0,0.0,0.0,0.0,0.0,1.5811,1.6291,1.6996,0.0,0.0,0.0,0.0,0.0,0.0,0.0,0.0,0.0,0.0,0.0,0.0,0.0,0.0,0.0,0.0,0.0,0.0,0.0,0.0,0.0,0.0,0.0,0.0,0.0,0.0,0.0,2.8465,2.8725,2.9322,2.993,3.0554,3.1151,3.1766,3.22,0.0,0.0,3.22,3.22,3.22,3.22,3.22,3.22,3.22,3.22,3.3167,3.3908,3.3935,0.0,0.0,0.0,0.0,0.0,0.0,0.0,0.0,0.0,0.0,0.0,4.2925,4.2925,4.2925,4.2925,4.2925,4.3235,4.3894,4.4766,4.5907,4.7322,4.8729,5.0051,5.1231,5.1765,5.2267,5.2676,5.2676,0.0,0.0,5.2676,5.2676,5.2676,5.2676,5.2676,5.2676,5.2676,5.2676,5.2676,0.0,0.0,0.0,0.0,0.0,0.0,1.1505,1.1505,1.1505,1.1505,1.1505,1.1505,1.1505,1.1505,1.1505,1.1515,1.1939,0.0,0.0,0.0,0.0,0.0,0.0,0.0,0.0,0.0,1.5344,1.5798,1.6893,1.7647,1.8093,1.8093,0.0,0.0,0.0,0.0,0.0,0.0,0.0,0.0,0.0,0.0,2.1385,0.0,0.0,0.0,0.0,0.0,0.0,0.0,0.0,0.0,0.0,2.6306,2.693,0.0,2.8139,2.8725,2.9322,2.993,3.0554,3.1151,3.1766,3.22,0.0,0.0,3.22,3.22,3.22,3.22,3.22,3.22,3.22,3.22,3.3167,3.3908,3.4,0.0,0.0,0.0,0.0,0.0,0.0,0.0,0.0,0.0,0.0,0.0,4.2925,4.2925,4.2925,4.2925,4.2925,4.2898,4.2898,4.3519,4.4279,4.5263,4.7582,4.9187,5.0175,5.191,5.2676,0.0,0.0,0.0,0.0,5.2676,5.2676,5.2676,5.2676,5.2676,5.2676,5.2676,5.2676,5.2676,0.0,0.0,0.0,0.0,0.0,0.0,1.1505,1.1505,1.1505,1.1505,1.1505,1.1505,1.1505,1.1505,1.1505,1.1505,1.1939,0.0,0.0,0.0,0.0,0.0,0.0,0.0,0.0,0.0,1.5532,1.6423,1.7077,1.7858,1.8722,1.8722,1.9015,1.9552,0.0,0.0,0.0,0.0,0.0,0.0,0.0,2.1254,2.1385,0.0,0.0,0.0,0.0,0.0,0.0,0.0,0.0,0.0,0.0,0.0,0.0,2.6903,2.7813,2.8644,2.8834,2.9322,2.9947,3.0527,3.1124,3.1684,3.2119,3.22,3.22,3.22,3.22,3.22,3.22,3.22,3.22,3.22,3.3167,3.3908,0.0,0.0,0.0,0.0,0.0,0.0,0.0,0.0,0.0,0.0,0.0,0.0,4.2925,4.2925,4.2925,4.2925,4.2925,4.3115,4.3522,4.4342,4.5347,4.6525,4.8657,5.006,5.0833,5.2124,5.2676,0.0,0.0,0.0,0.0,5.2676,5.2676,5.2676,5.2676,5.2676,5.2676,5.2676,5.2676,5.2676,0.0,0.0,0.0,0.0,0.0,0.0,1.1505,1.1505,1.1505,1.1505,1.1505,1.1521,1.1604,1.1688,1.1762,1.1835,1.2208,0.0,0.0,0.0,0.0,0.0,0.0,0.0,1.4662,1.5116,1.5784,1.663,1.7356,1.8132,1.896,1.9193,1.9591,2.0131,1.9901,0.0,0.0,0.0,0.0,0.0,2.1218,2.1264,2.1385,0.0,0.0,0.0,0.0,0.0,0.0,0.0,0.0,0.0,0.0,0.0,0.0,0.0,2.7499,2.8302,0.0,2.9051,2.9648,3.0256,3.0853,0.0,3.2065,3.22,3.22,3.22,3.22,3.22,3.22,3.22,3.22,3.22,3.3167,3.3908,0.0,0.0,0.0,0.0,0.0,0.0,0.0,0.0,0.0,4.2792,0.0,0.0,4.2925,4.2925,4.2925,4.2925,4.2925,4.3196,4.3794,4.46,4.5499,4.6545,4.8832,5.0106,5.0591,5.2056,5.2676,0.0,0.0,0.0,0.0,5.2676,5.2676,5.2676,5.2676,5.2676,5.2676,5.2676,5.2676,5.2676,0.0,0.0,0.0,0.0,0.0,0.0,0.0,1.1505,1.1505,1.1505,1.1505,1.1577,1.1804,1.1995,1.2186,1.2401,1.2668,0.0,0.0,0.0,0.0,0.0,0.0,0.0,1.5165,1.5579,1.6065,1.6642,1.7704,1.8503,1.9044,1.9623,2.0169,2.0686,2.0118,2.0195,0.0,0.0,0.0,0.0,2.1218,2.1276,0.0,0.0,0.0,0.0,0.0,0.0,0.0,0.0,0.0,0.0,0.0,0.0,0.0,0.0,0.0,0.0,0.0,2.8969,2.9594,3.0201,3.0798,3.1395,3.201,3.2173,0.0,3.22,3.22,3.22,3.22,3.22,3.22,3.22,3.3167,3.3908,0.0,0.0,0.0,0.0,0.0,0.0,0.0,4.1086,4.1598,4.2792,4.2925,0.0,4.2925,4.2925,4.2925,4.2925,4.2925,4.3223,4.3848,4.442,4.5068,4.5796,4.8361,4.9655,4.9747,5.1773,5.2676,0.0,0.0,0.0,0.0,5.2676,5.2676,5.2676,5.2676,5.2676,5.2676,5.2676,5.2676,5.2676,0.0,0.0,0.0,0.0,0.0,0.0,0.0,0.0,0.0,0.0,1.1505,1.1641,1.1995,1.2077,1.2267,0.0,0.0,0.0,0.0,0.0,0.0,0.0,0.0,0.0,1.5791,1.58,1.6517,1.7964,1.8219,1.9065,2.0429,2.0572,2.0713,2.0864,2.07,2.0799,0.0,0.0,0.0,0.0,2.1337,2.1361,0.0,0.0,0.0,0.0,2.2822,2.3297,0.0,0.0,0.0,0.0,0.0,0.0,0.0,0.0,2.6523,2.7147,2.7759,0.0,2.8969,2.9567,3.0174,3.0771,0.0,3.1875,3.22,3.22,0.0,3.22,3.22,3.22,3.22,3.22,3.3167,3.3908,3.3908,0.0,0.0,0.0,0.0,0.0,0.0,4.1086,4.1598,4.2792,4.2925,4.2925,4.2925,4.2925,4.2925,4.2925,4.2925,4.3416,4.4474,4.4637,4.5614,4.7445,4.8911,4.9988,5.0804,5.2101,5.2676,0.0,0.0,0.0,5.2676,5.2676,5.2676,5.2676,5.2676,5.2676,5.2676,5.2676,5.2676,5.2676,0.0,0.0,0.0,0.0,0.0,0.0,0.0,0.0,0.0,0.0,1.166,1.1877,1.2204,1.2475,1.2784,0.0,0.0,0.0,0.0,0.0,0.0,0.0,0.0,1.6183,1.6314,1.6454,1.7153,1.839,1.8676,1.9415,2.0576,2.0806,2.0901,2.0901,2.0837,2.0935,0.0,0.0,0.0,2.1385,2.1385,0.0,0.0,0.0,0.0,0.0,2.2768,2.3188,0.0,2.4598,2.5018,2.5018,0.0,0.0,0.0,0.0,2.6321,2.693,2.7526,2.8139,2.8752,2.935,2.993,3.0554,3.1151,0.0,0.0,0.0,0.0,3.22,3.22,3.22,3.2282,3.2572,3.333,0.0,0.0,0.0,0.0,0.0,0.0,0.0,0.0,0.0,4.1598,4.2792,4.2925,4.2925,4.2925,4.2925,4.2925,4.2925,4.2925,4.347,4.4691,4.4719,4.5594,4.731,4.8869,4.9897,5.0472,5.201,5.2676,0.0,0.0,0.0,5.2676,5.2676,5.2676,5.2676,5.2676,5.2676,5.2676,5.2676,5.2676,5.2676,0.0,0.0,0.0,0.0,0.0,0.0,0.0,0.0,0.0,0.0,0.0,0.0,0.0,0.0,0.0,0.0,0.0,0.0,0.0,0.0,0.0,0.0,1.6582,1.6735,1.6837,1.7235,1.7792,1.8558,1.9081,1.9657,2.0339,2.0723,2.0926,2.0901,2.0825,2.0935,0.0,0.0,0.0,2.1385,2.1385,0.0,0.0,0.0,0.0,0.0,0.0,0.0,0.0,2.4598,2.5018,2.5018,2.5018,0.0,0.0,0.0,0.0,0.0,2.7526,2.822,2.8861,2.9377,2.993,3.0554,3.1151,0.0,0.0,0.0,0.0,0.0,0.0,3.2282,0.0,0.0,0.0,0.0,0.0,0.0,0.0,0.0,0.0,0.0,4.0978,4.1168,4.1707,4.2819,4.2925,4.2925,4.2925,4.2925,4.2925,4.2925,4.2925,4.347,4.4691,4.4719,4.5365,4.6743,4.8496,4.9533,4.9897,5.1658,5.2541,5.2676,0.0,0.0,5.2676,5.2676,5.2676,5.2676,5.2676,5.2676,5.2676,5.2676,5.2676,5.2676,0.0,0.0,0.0,0.0,0.0,0.0,0.0,0.0,0.0,0.0,0.0,0.0,0.0,0.0,0.0,0.0,0.0,0.0,0.0,0.0,0.0,1.7291,1.7328,1.7416,1.7546,1.7499,1.8094,1.9333,1.9429,1.9951,2.0888,2.0944,2.0961,2.0913,2.1058,2.1157,2.1218,2.1288,0.0,2.1385,2.1385,0.0,0.0,0.0,0.0,0.0,0.0,0.0,0.0,2.4598,2.5018,2.5018,2.5018,0.0,0.0,0.0,0.0,0.0,2.7526,2.8492,2.9377,2.9485,2.993,3.0554,3.1151,0.0,0.0,0.0,0.0,0.0,0.0,0.0,0.0,0.0,0.0,3.5317,0.0,0.0,0.0,0.0,0.0,4.0323,4.1032,4.1571,4.2141,4.2846,4.2925,4.2925,4.2925,4.2925,4.2925,4.2925,4.2925,4.347,4.4691,4.4719,4.5719,4.7768,4.8097,4.919,5.0875,5.118,5.1842,5.2676,0.0,5.2676,5.2676,5.2676,5.2676,5.2676,5.2676,5.2676,5.2676,5.2676,5.2676,5.2676,0.0,0.0,0.0,0.0,0.0,0.0,0.0,0.0,0.0,0.0,0.0,0.0,0.0,0.0,0.0,0.0,0.0,0.0,0.0,0.0,1.7324,1.7601,1.7672,1.772,1.7699,1.7648,1.8253,1.9606,1.9606,2.0155,2.1218,2.1157,2.1095,2.1046,2.1083,2.1181,2.13,2.1288,2.1313,2.1385,0.0,0.0,0.0,0.0,0.0,0.0,0.0,0.0,0.0,0.0,2.5018,2.5018,2.5018,0.0,0.0,0.0,0.0,0.0,2.7526,2.8573,2.9567,2.9903,3.0446,3.0961,3.1232,0.0,0.0,0.0,0.0,0.0,0.0,0.0,3.3286,3.3919,0.0,3.6178,3.7344,3.7778,3.832,0.0,0.0,4.0431,4.1032,4.1652,4.2249,4.2846,4.2925,4.2925,4.2925,4.2925,4.2925,4.2925,4.2925,4.3308,4.4228,4.4529,4.5543,4.7208,4.7717,4.8795,5.0329,5.0851,5.1704,5.2676,0.0,5.2676,5.2676,5.2676,5.2676,5.2676,5.2676,5.2676,5.2676,5.2676,5.2676,5.2676,0.0,0.0,0.0,0.0,0.0,0.0,0.0,0.0,0.0,0.0,0.0,0.0,0.0,0.0,0.0,0.0,0.0,0.0,0.0,1.7069,1.7669,1.7699,1.7936,1.7957,1.775,1.7885,1.852,1.97,1.9836,2.0382,2.1337,2.124,2.1193,2.1157,2.112,2.1205,2.1337,2.1264,2.13,2.1385,0.0,0.0,0.0,0.0,0.0,0.0,0.0,0.0,0.0,0.0,0.0,0.0,0.0,0.0,0.0,2.5887,2.6442,2.6957,2.7705,2.879,2.9838,3.0283,0.0,3.1341,3.1494,0.0,0.0,0.0,0.0,0.0,0.0,3.3015,0.0,3.4849,3.5879,3.6822,3.7425,3.8022,3.8618,3.9237,3.9943,4.0594,4.1059,4.1788,4.2385,4.2846,4.2925,4.2925,4.2925,4.2925,4.2925,4.2925,4.2925,4.3196,4.3794,4.4393,4.5234,4.6291,4.7203,4.8349,4.963,5.0401,5.1466,5.2676,5.2676,5.2676,5.2676,5.2676,5.2676,5.2676,5.2676,5.2676,5.2676,5.2676,5.2676,5.2676,0.0,0.0,0.0,0.0,0.0,0.0,0.0,0.0,0.0,0.0,0.0,0.0,0.0,0.0,0.0,0.0,0.0,0.0,0.0,1.7173,1.756,1.7689,1.8257,1.8347,1.7909,1.8435,1.9032,1.97,2.0193,2.0718,2.1218,2.1218,2.1144,2.1021,2.1252,2.13,2.123,2.1325,2.1385,2.1385,2.1385,0.0,0.0,0.0,0.0,0.0,0.0,0.0,0.0,0.0,0.0,0.0,0.0,0.0,2.5236,2.6387,2.6767,2.7065,2.822,2.9414,3.0364,3.0374,3.0853,0.0,3.201,3.2173,0.0,0.0,0.0,0.0,0.0,3.3946,3.4903,3.5527,3.6198,3.6822,3.7425,0.0,3.8618,3.9237,4.035,4.1059,4.1086,4.2141,4.2846,4.2925,4.2925,4.2925,4.2925,4.2925,4.2925,4.2925,4.2925,4.3196,4.3794,4.4393,4.5017,4.5668,4.6315,4.7668,4.9606,4.9679,5.078,5.2676,5.2676,5.2676,5.2676,5.2676,5.2676,5.2676,5.2676,5.2676,5.2676,5.2676,5.2676,5.2676,0.0,0.0,0.0,0.0,0.0,0.0,0.0,0.0,0.0,0.0,0.0,1.2617,1.3573,0.0,0.0,0.0,0.0,0.0,0.0,1.724,1.7659,1.7699,1.8358,1.8648,1.8445,1.9043,1.9467,1.97,2.0599,2.1145,2.1313,2.1313,2.1288,2.124,2.1337,2.1361,2.1313,2.1373,2.1385,2.1385,2.1385,2.1385,0.0,0.0,0.0,0.0,0.0,0.0,0.0,0.0,2.5018,2.5018,2.5018,2.5263,2.5724,2.655,2.7065,2.7608,2.8834,2.9767,3.05,3.088,0.0,0.0,0.0,0.0,0.0,0.0,0.0,0.0,0.0,0.0,3.512,3.6117,3.6774,3.7371,3.7968,3.8564,3.9047,3.9264,4.0377,4.1086,4.1086,4.2195,4.2925,4.2925,4.2925,4.2925,4.2925,4.2925,4.2925,4.2925,4.2925,4.3033,4.3251,4.4203,4.5126,4.5993,4.6966,4.8198,4.963,5.0258,5.1326,5.2676,5.2676,5.2676,5.2676,5.2676,5.2676,5.2676,5.2676,5.2676,5.2676,5.2676,5.2676,5.2676,0.0,0.0,0.0,0.0,0.0,0.0,0.0,0.0,1.1945,0.0,0.0,0.0,0.0,1.4297,0.0,0.0,0.0,0.0,1.6927,1.7434,1.772,1.776,1.861,1.8989,1.8809,1.9738,2.0123,1.996,2.0925,2.1385,2.1385,2.1385,2.1385,2.1385,2.1385,2.1385,2.1385,2.1385,2.1385,2.1412,2.1614,2.1696,0.0,0.0,0.0,0.0,0.0,0.0,0.0,0.0,2.5018,2.5018,2.5018,2.5398,2.6022,2.6632,2.7228,2.7976,2.9159,2.993,3.0554,0.0,0.0,0.0,0.0,0.0,0.0,0.0,0.0,0.0,0.0,0.0,0.0,0.0,3.71,3.7724,3.832,3.8939,3.9292,3.9292,4.0377,4.1086,4.1086,4.2195,4.2925,4.2925,4.2925,4.2925,4.2925,4.2925,4.2925,4.2925,4.2925,4.2925,4.2925,4.4094,4.5041,4.573,4.7281,4.872,5.0114,5.078,5.1704,5.2676,5.2676,5.2676,5.2676,5.2676,5.2676,5.2676,5.2676,5.2676,5.2676,5.2676,5.2676,5.2676,0.0,0.0,0.0,0.0,0.0,0.0,0.0,0.0,1.2189,1.2207,1.2723,0.0,0.0,0.0,0.0,0.0,0.0,0.0,1.7662,1.7699,1.776,1.7892,1.9049,1.9413,1.8836,2.0514,2.1114,2.0506,2.1114,2.1385,2.1385,2.1385,2.1385,2.1385,2.1385,2.1385,2.1385,2.1385,2.1385,2.1467,2.2048,2.2305,2.2374,0.0,0.0,0.0,0.0,0.0,0.0,0.0,2.5018,2.5018,2.5018,2.5426,2.6037,2.6632,2.7228,2.7976,2.9187,2.993,3.0554,0.0,0.0,0.0,0.0,0.0,0.0,0.0,0.0,0.0,0.0,0.0,0.0,3.6524,3.71,3.7724,3.832,3.8939,3.9292,3.9292,4.0377,4.1086,4.1086,4.2195,4.2925,4.2925,4.2925,4.2925,4.2925,4.2925,4.2925,4.2925,4.2925,4.2925,4.2925,4.4094,4.4691,4.4744,4.6931,4.9092,5.1086,5.1109,5.1704,5.2676,5.2676,5.2676,5.2676,5.2676,5.2676,5.2676,5.2676,5.2676,5.2676,5.2676,5.2676,5.2676,0.0,0.0,0.0,0.0,0.0,0.0,0.0,0.0,1.2324,1.2906,1.3199,0.0,0.0,0.0,0.0,0.0,0.0,0.0,1.7699,1.7791,1.8052,1.85,1.888,1.9358,1.9987,2.0925,2.1304,2.1141,2.1304,2.1385,2.1385,2.1385,2.1385,2.1385,2.1385,2.1385,2.1385,2.1385,2.1642,2.2048,2.2224,2.2564,2.3012,0.0,0.0,0.0,0.0,0.0,0.0,0.0,0.0,0.0,2.5507,2.605,2.6659,2.7255,2.7868,2.86,2.9794,3.0256,0.0,3.1684,0.0,0.0,0.0,0.0,0.0,0.0,0.0,0.0,0.0,0.0,0.0,3.7127,3.7751,3.8347,3.8966,3.9183,3.9292,3.9292,4.0377,4.1086,4.1086,4.2195,4.2925,4.2925,4.2925,4.2925,4.2925,4.2925,4.2925,4.2925,4.2925,4.2925,4.2925,4.3685,4.4628,4.5779,4.6858,4.8289,5.009,5.078,5.1704,5.2676,5.2676,5.2676,5.2676,5.2676,5.2676,5.2676,5.2676,5.2676,5.2676,5.2676,5.2676,5.2676,0.0,0.0,0.0,0.0,0.0,0.0,1.1813,1.2339,1.2875,1.3368,1.3995,1.4717,0.0,0.0,0.0,1.6997,1.7434,0.0,1.7781,1.7862,1.8174,1.8755,1.9016,1.9673,2.0831,2.1196,2.1385,2.1385,2.1385,2.1385,2.1385,2.1385,2.1385,2.1385,2.1385,2.1533,2.175,2.175,2.2103,2.2672,2.2916,2.3228,2.3635,0.0,0.0,0.0,0.0,0.0,0.0,0.0,0.0,0.0,2.5697,2.6306,2.693,2.7526,2.8302,2.9187,3.0147,3.0581,0.0,3.1956,3.22,3.2309,3.2779,0.0,0.0,0.0,0.0,0.0,0.0,0.0,0.0,3.7398,3.8022,3.8591,3.921,3.9292,3.9292,3.9292,4.016,4.0838,4.1059,4.1978,4.2629,4.2873,4.2925,4.2925,4.2925,4.2925,4.2925,4.2925,4.2925,4.2925,4.2925,4.3495,4.4387,4.5607,4.6217,4.7353,4.9018,5.0449,5.1466,5.2101,5.2518,5.2676,5.2676,5.2676,5.2676,5.2676,5.2676,5.2676,5.2676,5.2676,5.2676,5.2676,0.0,0.0,1.1505,1.1505,0.0,0.0,1.1661,1.2803,1.3673,1.3748,1.4948,1.6008,0.0,0.0,0.0,1.7625,1.771,1.7771,1.7892,1.7957,1.8255,1.8864,1.9521,2.0313,2.1304,2.1358,2.1385,2.1385,2.1385,2.1385,2.1385,2.1385,2.1385,2.1385,2.1467,2.1777,2.2305,2.2347,2.2726,2.3324,2.3879,2.4123,2.4245,2.4787,0.0,0.0,0.0,0.0,0.0,0.0,0.0,0.0,2.5778,2.6402,2.7011,2.7581,2.8616,2.9621,3.0256,0.0,0.0,3.2037,3.22,0.0,3.3563,0.0,3.3341,0.0,0.0,3.5066,3.5608,3.6252,3.6877,3.7425,3.8049,3.8673,3.921,3.9292,3.9292,3.9292,3.9834,4.0431,4.1032,4.1652,4.2249,4.2846,4.2925,4.2925,4.2925,4.2925,4.2925,4.2925,4.2925,4.2925,4.2925,4.3441,4.4065,4.4719,4.5261,4.6395,4.8072,5.0066,5.1063,5.1303,5.2284,5.2676,5.2676,5.2676,5.2676,5.2676,5.2676,5.2676,5.2676,5.2676,5.2676,5.2676,0.0,0.0,1.1505,1.1505,0.0,0.0,1.2972,1.3651,1.4327,1.5001,1.5508,1.5972,1.6484,1.6769,0.0,1.7669,1.7801,1.7872,1.7902,1.8337,1.888,1.9494,2.0475,2.0925,2.0696,2.1169,2.1385,2.1385,2.1385,2.1385,2.1385,2.1385,2.1385,2.1412,2.1886,2.2196,2.2332,2.2795,2.3364,2.3906,2.4042,2.4381,2.4815,2.4964,2.5018,0.0,0.0,0.0,0.0,0.0,0.0,0.0,2.6415,2.7011,2.7608,2.822,2.8942,2.9621,3.0256,3.0853,0.0,0.0,3.22,3.2354,3.289,3.3398,3.4035,3.5093,3.5418,3.5554,3.5662,3.6584,3.7344,3.7458,3.8401,3.9156,3.9292,3.9292,3.9292,3.9292,3.9834,4.0431,4.1032,4.1652,4.2249,4.2846,4.2925,4.2925,4.2925,4.2925,4.2925,4.2925,4.2925,4.2925,4.2925,4.3033,4.3633,4.4719,4.4827,4.5958,4.8047,4.9337,5.0804,5.2352,5.2586,5.2676,5.2676,5.2676,5.2676,5.2676,5.2676,5.2676,5.2676,5.2676,5.2676,5.2676,0.0,0.0,0.0,0.0,0.0,0.0,0.0,0.0,1.4798,1.5598,1.6223,1.6718,1.7037,1.7292,0.0,0.0,1.7862,1.8011,1.831,1.8619,1.9168,2.0041,2.0925,2.125,2.0952,2.125,2.1385,2.1385,2.1385,2.1385,2.1385,2.1385,2.1385,2.1412,2.2021,2.2455,2.2768,2.3364,2.3987,2.4543,2.4543,2.4706,2.5018,2.5018,2.5018,2.5018,2.5018,0.0,0.0,0.0,0.0,0.0,0.0,0.0,2.7813,2.841,2.9241,2.9984,3.0293,0.0,0.0,3.2119,0.0,3.2381,3.3163,3.3633,3.4233,3.5445,3.569,3.5771,3.609,3.6883,3.7567,3.7886,3.87,3.9292,3.9292,3.9292,3.9292,3.9292,3.959,4.0133,4.1005,4.1385,4.1951,4.2819,4.2925,4.2925,4.2925,4.2925,4.2925,4.2925,4.2925,4.2925,4.2925,4.2925,4.3497,4.4719,4.4719,4.6123,4.8795,4.9819,5.1186,5.2676,5.2676,5.2676,5.2676,5.2676,5.2676,5.2676,5.2676,5.2676,5.2676,5.2676,5.2676,5.2676,0.0,0.0,0.0,0.0,0.0,0.0,0.0,0.0,0.0,1.6088,1.6967,1.757,1.7689,1.7821,1.7902,0.0,0.0,0.0,1.8755,1.8989,1.9575,2.0626,2.1141,2.1385,2.1385,2.1385,2.1385,2.1385,2.1385,2.1385,2.1385,2.1385,2.1467,2.1587,2.2184,2.2795,2.3378,2.3987,2.4543,2.5018,2.5018,2.5018,2.5018,2.5018,2.5018,2.5018,2.5127,2.5154,2.5263,2.586,0.0,0.0,0.0,0.0,2.7976,2.8573,2.9523,3.0401,3.0527,0.0,3.22,3.2164,3.2182,0.0,3.3598,3.3869,3.4233,3.5445,3.569,3.5852,3.6361,3.7018,3.7669,3.8157,3.8857,3.9292,3.9292,3.9292,3.9292,3.9292,3.9292,3.978,4.0978,4.1086,4.1598,4.2792,4.2925,4.2925,4.2925,4.2925,4.2925,4.2925,4.2925,4.2925,4.2925,4.2925,4.3443,4.4556,4.5096,4.6978,4.9897,5.0898,5.1865,5.2676,5.2676,5.2676,5.2676,5.2676,5.2676,5.2676,5.2676,5.2676,5.2676,5.2676,5.2676,5.2676,0.0,0.0,0.0,0.0,0.0,0.0,0.0,0.0,0.0,0.0,1.7472,1.7679,1.7699,1.7821,1.7902,1.7902,1.8374,1.8701,1.8782,0.0,0.0,2.125,2.1358,2.1385,2.1385,2.1385,2.1385,2.1385,2.1385,2.1385,0.0,0.0,2.1696,2.2224,2.2822,2.3405,2.4014,2.4625,2.4923,2.5018,2.5018,2.5018,2.5018,2.5018,2.5018,2.5073,2.5588,2.5793,2.586,2.6469,2.7011,0.0,0.0,0.0,2.8616,2.9187,2.9849,3.0527,0.0,0.0,3.2164,0.0,3.2073,3.2462,0.0,0.0,3.4233,0.0,3.569,3.5717,3.5798,3.6747,3.7512,3.7615,3.8564,3.9292,3.9292,3.9292,3.9292,3.9292,3.9292,3.978,4.0978,4.1086,4.1598,4.2792,4.2925,4.2925,4.2925,4.2925,4.2925,4.2925,4.2925,4.2925,4.2925,4.2925,4.3251,4.3954,4.6813,4.9148,5.0945,5.198,5.2563,5.2676,5.2676,5.2676,5.2676,5.2676,5.2676,5.2676,5.2676,5.2676,5.2676,5.2676,5.2676,5.2676,0.0,0.0,0.0,0.0,0.0,0.0,0.0,0.0,0.0,0.0,0.0,1.773,1.7801,1.817,1.8402,1.8402,1.8962,1.944,1.9727,2.0545,2.1114,2.1385,2.1385,2.1385,2.1385,2.1385,2.1385,2.1385,2.1385,0.0,0.0,2.175,2.2048,0.0,0.0,2.3852,2.4123,2.4733,2.5018,2.5018,2.5018,2.5018,2.5046,0.0,0.0,0.0,0.0,0.0,0.0,2.7093,2.7472,2.7759,2.8112,0.0,0.0,0.0,2.9947,3.0608,3.1549,3.201,3.2182,0.0,3.2128,3.2481,3.356,0.0,3.4233,3.5445,3.569,3.5798,3.6144,3.691,3.7615,3.7968,3.8727,3.9292,3.9292,3.9292,3.9292,3.9292,3.9292,3.9644,4.0513,4.0897,4.1439,4.2331,4.2711,4.2925,4.2925,4.2925,4.2925,4.2925,4.2925,4.2925,4.2925,4.2925,4.3362,4.4337,4.6697,4.8678,5.0276,5.1326,5.2147,5.2676,5.2676,5.2676,5.2676,5.2676,5.2676,5.2676,5.2676,5.2676,5.2676,5.2676,5.2676,5.2676,0.0,0.0,0.0,0.0,0.0,0.0,0.0,0.0,0.0,0.0,0.0,1.8088,1.8316,0.0,0.0,0.0,1.9564,2.015,2.0696,2.1141,2.1385,2.1385,2.1385,2.1385,2.1385,2.1385,2.1385,2.1385,0.0,0.0,2.1642,2.2238,2.2618,0.0,2.3703,2.4191,0.0,0.0,0.0,2.5018,2.5018,2.51,2.529,0.0,0.0,0.0,0.0,0.0,0.0,0.0,0.0,0.0,0.0,0.0,0.0,0.0,0.0,0.0,0.0,0.0,3.22,3.22,3.22,3.2499,0.0,0.0,3.4233,0.0,3.569,3.5825,3.6307,3.6991,3.7669,3.8103,3.883,3.9292,3.9292,3.9292,3.9292,3.9292,3.9292,3.9536,4.0155,4.0757,4.133,4.1951,4.2548,4.2925,4.2925,4.2925,4.2925,4.2925,4.2925,4.2925,4.2925,4.2925,4.3645,4.5091,4.6567,4.8243,5.0042,5.1039,5.1934,5.2676,5.2676,5.2676,5.2676,5.2676,5.2676,5.2676,5.2676,5.2676,5.2676,5.2676,5.2676,5.2676,0.0,0.0,0.0,0.0,0.0,0.0,0.0,0.0,0.0,0.0,0.0,1.8962,1.9537,1.9619,1.9646,1.9646,2.015,2.0696,2.1304,2.1385,2.1385,2.1385,2.1385,0.0,2.1385,2.1385,2.1385,0.0,0.0,0.0,2.2278,2.2876,2.3472,2.4028,2.4069,2.4435,2.4964,0.0,0.0,2.5018,2.5018,2.5344,2.5874,0.0,0.0,0.0,0.0,0.0,0.0,0.0,0.0,0.0,0.0,0.0,0.0,0.0,0.0,0.0,0.0,3.22,0.0,3.22,3.22,0.0,0.0,0.0,3.4233,3.5445,3.569,3.5717,3.5744,3.672,3.7512,3.754,3.8537,3.9292,3.9292,3.9292,3.9292,3.9292,3.9292,3.9536,4.0155,4.0757,4.133,4.1951,4.2548,4.2925,4.2925,4.2925,4.2925,4.2925,4.2925,4.2925,4.2925,4.2925,4.398,4.6139,4.7223,4.8905,5.1063,5.2147,5.2631,5.2676,5.2676,5.2676,5.2676,5.2676,5.2676,5.2676,5.2676,5.2676,5.2676,5.2676,5.2676,5.2676,0.0,0.0,0.0,0.0,0.0,0.0,0.0,0.0,0.0,0.0,0.0,0.0,0.0,2.0014,2.022,2.022,2.0735,2.1169,2.1385,2.1385,2.1385,2.1385,2.1385,2.1385,2.1385,2.1385,2.1385,0.0,0.0,2.2075,2.2332,2.331,2.3879,2.4123,2.4489,2.4787,2.5018,2.5018,0.0,0.0,2.5588,2.5941,0.0,0.0,0.0,0.0,0.0,0.0,0.0,0.0,0.0,0.0,0.0,0.0,0.0,0.0,0.0,0.0,0.0,0.0,0.0,3.22,3.22,3.2499,3.3637,3.3908,3.4233,3.5445,3.569,3.569,3.569,3.6368,3.7046,3.7452,3.8185,3.8857,3.9264,3.9292,3.9292,3.9292,3.9292,3.9373,3.959,4.054,4.1195,4.1412,4.2331,4.2925,4.2925,4.2925,4.2925,4.2925,4.2925,4.2925,4.2925,4.2925,4.3691,4.5238,4.6288,4.7952,5.0156,5.1209,5.2048,5.2676,5.2676,5.2676,5.2676,5.2676,5.2676,5.2676,5.2676,5.2676,5.2676,5.2676,5.2676,5.2676,0.0,0.0,0.0,1.8029,0.0,1.8562,1.8917,1.9152,1.9379,1.9638,0.0,0.0,0.0,0.0,2.0804,2.0804,2.1169,2.1385,2.1385,2.1385,2.1385,2.1385,2.1385,2.1385,2.1385,2.1385,2.1373,0.0,0.0,0.0,0.0,2.3595,2.4218,2.4435,2.4815,2.5018,0.0,0.0,0.0,2.5929,0.0,0.0,2.7147,0.0,0.0,0.0,0.0,0.0,0.0,0.0,0.0,0.0,0.0,0.0,0.0,0.0,0.0,0.0,3.22,0.0,0.0,0.0,3.22,3.2445,3.3411,3.3772,3.4179,3.5201,3.5554,3.569,3.569,3.6035,3.6557,3.7371,3.8022,3.8591,3.921,3.9292,3.9292,3.9292,3.9292,3.9292,3.9292,4.0214,4.0869,4.1086,4.2032,0.0,4.2873,4.2925,4.2925,4.2925,4.2925,4.2925,4.2925,4.2925,4.3389,4.4418,4.601,4.7645,4.9359,5.0926,5.2025,5.2676,5.2676,5.2676,5.2676,5.2676,5.2676,5.2676,5.2676,5.2676,5.2676,5.2676,5.2676,5.2676,1.6586,1.7083,1.7557,1.8131,1.8708,1.9114,1.9151,1.9277,1.96,2.0331,0.0,0.0,0.0,0.0,0.0,2.1385,2.1385,2.1385,2.1385,2.1385,2.1385,2.1385,2.1385,2.1385,2.1385,2.1412,2.1352,2.1218,2.1986,2.2594,2.3043,0.0,2.4435,2.5018,2.5018,2.5046,2.5073,0.0,2.5929,2.5995,0.0,2.7174,2.7716,0.0,0.0,0.0,2.9295,2.9512,0.0,0.0,0.0,0.0,0.0,0.0,0.0,0.0,0.0,0.0,0.0,0.0,0.0,0.0,0.0,0.0,3.2952,3.3493,3.407,3.4666,3.5283,3.569,3.569,3.569,3.6096,3.7268,3.7995,3.8564,3.9183,3.9292,3.9292,3.9292,3.9292,3.9292,3.9292,3.9834,4.0458,4.1059,4.1679,4.2249,4.2846,4.2925,4.2925,4.2925,4.2925,4.2925,4.2925,4.2925,4.3196,4.3818,4.6505,4.8108,4.8796,5.147,5.2676,5.2676,5.2676,5.2676,5.2676,5.2676,5.2676,5.2676,5.2676,5.2676,5.2676,5.2676,5.2676,5.2676,1.6525,1.6935,1.7545,1.8534,1.8841,1.9284,2.0236,2.0458,2.0644,0.0,0.0,0.0,2.1385,2.1385,2.1385,2.1385,2.1385,2.1385,2.1385,2.1385,2.1385,2.1385,2.1385,2.1385,2.1385,2.1831,2.2036,2.1998,2.3053,2.3676,2.3811,2.4448,2.4842,2.5018,2.5453,2.5643,2.5643,2.5847,0.0,0.0,2.7391,2.7735,0.0,0.0,0.0,0.0,0.0,3.0045,3.0174,0.0,3.069,3.1124,0.0,0.0,0.0,0.0,0.0,0.0,3.22,0.0,0.0,0.0,0.0,0.0,3.2952,3.3493,3.407,3.4666,3.5283,3.569,3.569,3.569,3.5934,3.672,3.7344,3.7968,3.8564,3.902,3.9292,3.9292,3.9292,3.9292,3.9292,3.9834,4.0458,0.0,4.1679,4.2249,4.2846,4.2925,4.2925,4.2925,4.2925,4.2925,4.2925,4.2925,4.3196,4.3818,4.6505,4.8108,4.8796,5.147,5.2676,5.2676,5.2676,5.2676,5.2676,5.2676,5.2676,5.2676,5.2676,5.2676,5.2676,5.2676,5.2676,5.2676,1.7463,1.777,1.8297,1.9458,1.9645,1.991,2.0698,2.0899,2.0999,0.0,0.0,0.0,2.13,2.1361,2.1385,2.1385,2.1385,2.1385,2.1385,2.1385,2.1373,2.1313,2.1361,2.1496,2.1691,2.2078,2.2388,2.2595,2.3541,2.4014,2.4041,2.4622,2.507,2.5398,2.5739,2.6129,0.0,0.0,0.0,0.0,2.7897,0.0,0.0,2.9083,2.9396,0.0,0.0,0.0,3.0808,3.0982,3.1315,0.0,0.0,0.0,0.0,0.0,0.0,0.0,0.0,0.0,0.0,0.0,0.0,0.0,3.2653,3.333,3.4016,3.4341,3.512,3.569,3.569,3.569,3.5825,3.6171,3.672,3.7425,3.8266,3.8939,3.9292,3.9292,3.9292,3.9292,3.9292,3.9617,4.0078,4.0675,4.13,4.2005,4.2846,4.2925,4.2925,4.2925,4.2925,4.2925,4.2925,4.2925,4.3254,4.4042,4.6604,4.8197,4.8974,5.1531,5.2676,5.2676,5.2676,5.2676,5.2676,5.2676,5.2676,5.2676,5.2676,5.2676,5.2676,5.2676,5.2676,5.2676,0.0,1.9012,1.933,2.0423,2.0599,2.0624,2.0699,2.0812,2.0913,0.0,2.0986,2.1083,2.1205,2.1313,2.1385,2.1373,2.1373,2.14,2.1469,2.1482,2.146,2.143,2.1541,2.1797,2.2196,2.2392,2.2702,2.3084,2.3703,2.4012,2.4012,2.4632,2.5283,2.5887,2.6008,2.6583,2.7442,0.0,0.0,2.7902,2.8271,2.887,0.0,0.0,2.9807,0.0,3.0931,3.1235,3.1459,3.1793,3.2055,0.0,0.0,0.0,0.0,0.0,3.22,0.0,0.0,0.0,0.0,0.0,0.0,0.0,3.22,3.305,3.3826,3.3908,3.4802,3.5608,3.569,3.569,3.569,3.569,3.6225,3.7012,3.813,3.883,3.921,3.9292,3.9292,3.9292,3.9292,3.9292,3.9536,4.0155,4.0838,4.1707,4.2819,4.2925,4.2925,4.2925,4.2925,4.2925,4.2925,4.2925,4.3375,4.4312,4.6661,4.8269,4.9262,5.1627,5.2676,5.2676,5.2676,5.2676,5.2676,5.2676,5.2676,5.2676,5.2676,5.2676,5.2676,5.2676,5.2676,5.2676,1.8842,1.9012,1.9199,1.9862,1.9978,2.0169,2.0763,2.0889,2.0912,2.096,2.1095,2.1181,2.1218,2.1313,2.1349,2.124,2.1254,2.1443,2.1913,2.1966,2.222,2.2797,2.2823,2.2877,2.2986,2.3499,2.3744,2.3716,2.4433,2.4716,2.4644,2.5366,2.5764,2.5941,2.6754,2.7305,2.7696,0.0,0.0,2.8912,2.8986,0.0,2.9791,3.0254,3.0495,3.0735,3.1451,3.1856,3.2037,0.0,3.2182,3.22,0.0,0.0,0.0,0.0,0.0,0.0,0.0,0.0,0.0,0.0,0.0,0.0,3.22,3.2743,3.3376,3.3799,3.4477,3.512,3.5608,3.569,3.569,3.569,3.6225,3.6849,3.7588,3.8212,3.8754,3.9237,3.9292,3.9292,3.9292,3.9292,3.9536,4.0155,4.1218,4.2141,4.2846,4.2925,4.2925,4.2925,4.2925,4.2925,4.2925,4.2925,4.3375,4.4312,4.6661,4.8269,4.9262,5.1627,5.2676,5.2676,5.2676,5.2676,5.2676,5.2676,5.2676,5.2676,5.2676,5.2676,5.2676,5.2676,5.2676,5.2676,1.8869,1.9212,1.9578,2.0144,2.0245,2.0385,2.075,2.085,2.0875,2.0848,2.1198,2.1447,2.1447,0.0,2.2079,2.2002,2.2002,2.2161,2.2507,2.2482,2.2603,2.2977,2.3017,2.3125,2.3352,2.3729,2.4038,2.4263,2.4883,2.5222,2.5251,2.5944,2.6391,2.6673,2.7189,2.7749,0.0,0.0,2.9398,2.9923,2.9612,0.0,3.0273,3.0476,3.0804,3.1196,3.1481,3.1661,3.1753,3.1872,3.1963,0.0,0.0,3.2128,3.22,0.0,3.22,3.22,0.0,0.0,0.0,3.22,0.0,0.0,0.0,3.268,3.3259,3.3799,3.4368,3.4984,3.5581,3.569,3.569,3.569,3.5934,3.6361,3.6964,3.7832,3.851,3.883,3.9129,3.9292,3.9292,3.9292,3.9536,4.0155,4.1028,4.1815,4.2412,4.2738,4.2925,4.2925,4.2925,4.2925,4.2925,4.3352,4.4106,4.5075,4.7378,4.9007,5.0012,5.186,5.2676,5.2676,5.2676,5.2676,5.2676,5.2676,5.2676,5.2676,5.2676,5.2676,5.2676,5.2676,5.2676,5.2676,1.9028,1.95,1.9991,2.0599,2.0699,2.0699,2.0699,2.0866,2.101,2.104,2.151,2.1864,0.0,0.0,0.0,0.0,2.2577,2.267,2.2883,2.2815,2.2921,2.3283,2.331,2.3534,2.4034,2.4161,2.4472,2.4938,2.5421,2.5736,2.5897,2.6474,2.6996,2.7411,0.0,0.0,0.0,0.0,0.0,3.0609,0.0,3.0397,3.0796,3.0641,3.0968,3.1522,3.1384,3.1347,3.1384,3.1596,0.0,3.1908,3.1945,3.2073,0.0,0.0,0.0,0.0,0.0,0.0,0.0,0.0,0.0,3.22,0.0,0.0,0.0,3.3799,3.4368,0.0,0.0,0.0,0.0,0.0,0.0,0.0,0.0,3.729,0.0,3.8374,3.8939,3.9292,3.9292,3.9292,3.9536,4.0155,4.0757,4.1358,4.1978,4.2575,4.2925,4.2925,4.2925,4.2925,4.2925,4.3823,4.48,4.583,4.8134,4.973,5.0759,5.2082,5.2676,5.2676,5.2676,5.2676,5.2676,5.2676,5.2676,5.2676,5.2676,5.2676,5.2676,5.2676,5.2676,5.2676,1.9604,1.9772,1.9991,2.0599,2.0699,2.0699,2.0699,2.1119,2.1629,2.2139,2.2391,0.0,0.0,0.0,0.0,0.0,0.0,0.0,2.2529,0.0,2.3304,2.5037,2.5093,2.5385,2.5986,2.6123,2.6149,2.6123,2.6462,2.6607,2.6501,2.705,2.733,0.0,2.8226,0.0,0.0,0.0,3.0314,0.0,3.0958,3.117,0.0,3.1204,3.1257,3.1347,3.1503,3.1559,3.1596,0.0,3.1872,3.1927,0.0,3.2182,3.22,0.0,0.0,0.0,0.0,0.0,0.0,0.0,3.22,0.0,0.0,0.0,3.3259,3.3799,0.0,0.0,0.0,0.0,0.0,0.0,0.0,0.0,3.5066,3.6042,3.7202,3.8266,3.8939,3.9292,3.9292,3.9292,3.9536,4.0155,4.0757,4.1358,4.1978,4.2575,4.2925,4.2925,4.2925,4.2925,4.2925,4.3823,4.48,4.583,4.8134,4.973,5.0759,5.2082,5.2676,5.2676,5.2676,5.2676,5.2676,5.2676,5.2676,5.2676,5.2676,5.2676,5.2676,5.2676,5.2676,5.2676,1.916,1.9591,1.9991,2.0599,2.0707,2.0797,2.112,2.1655,2.2126,2.236,2.3017,0.0,0.0,0.0,0.0,0.0,0.0,2.4197,0.0,0.0,0.0,2.5708,2.5673,2.5748,2.6001,2.6171,2.6233,2.6171,2.6749,2.7015,2.6952,2.7525,2.798,0.0,2.8593,0.0,2.9962,0.0,3.0503,0.0,0.0,0.0,0.0,3.1123,3.1123,3.1123,3.1224,3.1261,3.1261,0.0,3.154,0.0,0.0,0.0,0.0,0.0,0.0,0.0,0.0,0.0,0.0,0.0,0.0,0.0,3.2735,0.0,3.3737,0.0,0.0,0.0,0.0,0.0,0.0,0.0,3.5527,0.0,0.0,0.0,3.6931,0.0,0.0,0.0,3.9264,3.9292,3.94,3.9644,4.0567,4.1195,4.1439,4.2385,4.2925,4.2925,4.3423,4.3705,4.3705,4.5207,4.6174,4.6623,4.8964,5.0297,5.0759,5.2082,5.2676,5.2676,5.2676,5.2676,5.2676,5.2676,5.2676,5.2676,5.2676,5.2676,5.2676,5.2676,5.2676,5.2676,1.8957,1.9355,1.9816,2.0757,2.0898,2.1119,2.1863,2.2492,2.2841,2.2773,0.0,0.0,2.4285,2.4993,0.0,0.0,0.0,2.5046,0.0,0.0,2.553,0.0,0.0,0.0,2.6263,2.6443,2.6554,2.6554,2.72,2.7557,2.7696,2.8171,2.8672,2.913,0.0,2.9689,3.0536,0.0,0.0,3.1216,3.1048,3.0992,3.0992,3.0992,3.0992,3.0992,3.0992,3.0992,3.0992,3.1048,3.128,0.0,3.1577,0.0,0.0,0.0,0.0,0.0,3.2635,0.0,0.0,0.0,0.0,0.0,0.0,0.0,0.0,0.0,0.0,0.0,0.0,0.0,0.0,0.0,0.0,3.5635,0.0,3.5961,0.0,0.0,0.0,0.0,0.0,3.9292,3.9292,3.9292,4.0268,4.0924,4.1086,4.232,4.2999,4.2898,4.4083,4.4591,4.4312,4.6219,4.7189,4.7241,4.956,5.0697,5.0759,5.2082,5.2676,5.2676,5.2676,5.2676,5.2676,5.2676,5.2676,5.2676,5.2676,5.2676,5.2676,5.2676,5.2676,5.2676,1.9482,1.9129,1.9388,2.1159,2.142,2.1787,2.2968,2.3667,2.399,0.0,0.0,0.0,0.0,0.0,0.0,0.0,0.0,2.3011,2.3738,0.0,2.4657,0.0,0.0,2.6912,0.0,2.7653,2.7753,2.7753,2.8097,2.8468,2.8854,2.9057,2.9276,2.9522,3.0093,3.0248,3.0145,3.0738,3.0992,3.0992,3.0992,3.0992,3.0992,0.0,3.0992,3.0992,3.0992,0.0,0.0,3.1216,3.131,0.0,0.0,0.0,0.0,0.0,0.0,0.0,0.0,0.0,0.0,3.3853,0.0,0.0,0.0,0.0,3.4775,0.0,0.0,0.0,0.0,0.0,0.0,0.0,0.0,0.0,0.0,0.0,0.0,0.0,0.0,0.0,0.0,3.9292,3.9292,0.0,3.9861,4.0485,4.1059,4.2533,4.3236,4.2922,4.4753,4.5281,4.4312,4.6219,4.7189,4.7241,4.956,5.0697,5.0759,5.2082,5.2676,5.2676,5.2676,5.2676,5.2676,5.2676,5.2676,5.2676,5.2676,5.2676,5.2676,5.2676,5.2676,5.2676,1.9439,1.9336,1.968,2.1173,0.0,2.2409,2.3436,2.4101,0.0,0.0,0.0,0.0,0.0,0.0,2.5597,0.0,0.0,2.5401,2.5673,2.6228,0.0,0.0,0.0,2.8508,0.0,2.8829,2.8933,2.8933,2.9036,2.9228,2.9483,2.9354,2.9627,3.0272,0.0,3.0475,0.0,0.0,0.0,0.0,0.0,3.1209,3.1477,0.0,3.0992,3.1044,3.1399,3.1529,0.0,3.209,3.2311,3.2426,3.253,3.2664,3.2871,3.3058,3.3265,0.0,0.0,0.0,3.3908,3.3908,0.0,0.0,0.0,0.0,0.0,0.0,0.0,0.0,0.0,0.0,0.0,0.0,0.0,0.0,0.0,0.0,0.0,0.0,0.0,0.0,0.0,0.0,0.0,0.0,4.0719,0.0,4.288,4.384,4.4463,4.4823,4.607,4.6557,4.6219,4.7469,4.8115,4.8145,4.9871,5.0697,5.0759,5.2082,5.2676,5.2676,5.2676,5.2676,5.2676,5.2676,5.2676,5.2676,5.2676,5.2676,5.2676,5.2676,5.2676,5.2676,1.9887,2.0147,2.0563,2.1527,0.0,2.3085,2.3654,0.0,0.0,0.0,2.4463,0.0,2.5261,0.0,2.6,0.0,2.6073,2.6168,2.6732,2.7292,0.0,2.8435,2.8982,0.0,0.0,0.0,2.9434,2.9434,2.9487,2.9645,2.9901,2.9812,3.0164,3.0809,0.0,3.0763,3.1179,0.0,3.0992,0.0,0.0,3.1339,0.0,0.0,3.1418,3.1646,0.0,3.213,3.2182,3.2568,3.2797,3.2889,3.2889,3.3034,3.3244,3.3456,3.3647,3.3877,3.4091,3.4276,0.0,3.4414,3.479,0.0,3.512,0.0,0.0,0.0,0.0,0.0,0.0,0.0,0.0,0.0,0.0,0.0,0.0,3.6825,0.0,0.0,0.0,0.0,0.0,0.0,0.0,0.0,0.0,0.0,0.0,4.4594,4.523,4.5772,4.7038,4.7563,4.7189,4.8115,4.8583,4.8614,5.002,5.0697,5.0759,5.2082,5.2676,5.2676,5.2676,5.2676,5.2676,5.2676,5.2676,5.2676,5.2676,5.2676,5.2676,5.2676,5.2676,5.2676,2.0834,2.143,2.1905,0.0,2.3128,0.0,0.0,0.0,2.433,0.0,2.5128,2.583,2.5608,2.558,2.5603,2.5626,2.4965,0.0,2.6752,2.6884,0.0,0.0,2.9299,2.9335,2.9371,0.0,0.0,0.0,0.0,2.9784,3.0189,3.0545,3.0818,3.1011,3.1198,0.0,3.0992,3.0992,3.1018,3.1044,3.1044,3.1392,3.1876,3.1876,3.2261,3.2777,3.2751,3.2725,3.2771,3.2797,3.2777,3.2777,3.2777,3.2935,3.3179,3.3759,3.4079,3.4366,3.4946,3.527,3.5406,3.5406,3.5548,0.0,0.0,0.0,3.569,0.0,0.0,0.0,0.0,0.0,0.0,0.0,0.0,0.0,0.0,0.0,0.0,0.0,0.0,0.0,0.0,0.0,0.0,0.0,0.0,0.0,0.0,4.489,4.5548,4.5951,4.767,4.8157,4.7276,4.8136,4.8583,4.8614,5.002,5.0697,5.0759,5.2082,5.2676,5.2676,5.2676,5.2676,5.2676,5.2676,5.2676,5.2676,5.2676,5.2676,5.2676,5.2676,5.2676,5.2676,2.1402,2.1946,2.2474,0.0,2.3609,2.4157,0.0,0.0,0.0,0.0,2.469,2.4974,2.5265,2.5289,2.5444,2.58,2.5659,0.0,0.0,0.0,0.0,2.8581,2.9239,2.9888,3.0555,3.0574,0.0,3.0574,0.0,0.0,3.0987,3.095,3.1029,3.1216,0.0,0.0,3.0992,3.0992,3.1235,3.1608,3.1608,3.2208,3.3143,0.0,3.3483,3.3901,3.3509,3.3372,3.343,3.3822,3.3953,3.3953,3.3953,3.3994,3.4061,3.4219,3.4559,3.4919,3.5053,3.5345,3.5609,3.5609,3.5649,3.569,0.0,0.0,0.0,0.0,0.0,0.0,0.0,0.0,0.0,0.0,0.0,0.0,0.0,0.0,0.0,4.2035,0.0,0.0,0.0,0.0,0.0,0.0,0.0,0.0,0.0,0.0,4.6763,4.7852,4.8355,4.848,4.825,4.848,4.8583,4.8614,5.002,5.0697,5.0759,5.2082,5.2676,5.2676,5.2676,5.2676,5.2676,5.2676,5.2676,5.2676,5.2676,5.2676,5.2676,5.2676,5.2676,5.2676,2.2127,2.2869,0.0,2.3623,0.0,0.0,2.4232,2.4505,0.0,2.4807,2.4812,0.0,2.5446,2.5512,2.56,2.5884,2.5906,0.0,2.6447,0.0,0.0,2.8367,2.8861,2.9349,2.9839,3.0247,0.0,3.0419,0.0,0.0,3.1161,3.1048,3.1048,3.1161,0.0,3.0992,3.1018,3.1261,3.1529,3.1823,3.2104,3.2777,0.0,3.3587,3.3927,3.4371,3.4058,3.3953,3.4005,3.4293,3.4397,3.4397,3.4397,3.4397,3.4397,3.4397,3.4585,3.4812,3.4942,3.5208,3.5447,3.5548,3.5629,3.569,3.569,3.569,3.569,0.0,3.569,3.569,0.0,0.0,0.0,0.0,0.0,0.0,0.0,0.0,0.0,0.0,0.0,0.0,0.0,0.0,0.0,0.0,0.0,0.0,0.0,0.0,4.7219,4.8553,4.8583,4.8583,4.8583,4.8583,4.8583,4.8614,5.002,5.0697,5.0759,5.2082,5.2676,5.2676,5.2676,5.2676,5.2676,5.2676,5.2676,5.2676,5.2676,5.2676,5.2676,5.2676,5.2676,5.2676,2.3045,0.0,0.0,0.0,0.0,0.0,0.0,2.4637,0.0,2.5228,0.0,2.5446,2.5863,2.5906,2.5906,2.5906,0.0,2.6218,2.6981,2.7021,2.7386,2.8207,2.8247,2.8347,2.8565,2.9291,0.0,0.0,0.0,0.0,3.0992,3.0992,3.0992,3.0992,0.0,0.0,0.0,3.1608,3.1902,3.2084,3.262,3.3169,3.3692,3.3692,3.3979,3.4397,3.4397,3.4397,3.4397,3.4397,3.4397,3.4397,3.4397,3.4397,3.4397,3.4397,3.4471,3.4612,3.4841,3.5122,3.5428,3.5587,3.5791,3.5934,3.5934,3.5934,3.5934,3.5934,3.5934,3.5934,0.0,0.0,0.0,0.0,0.0,0.0,0.0,0.0,0.0,0.0,0.0,0.0,0.0,0.0,0.0,0.0,0.0,0.0,0.0,0.0,4.7219,4.8553,4.8583,4.8583,4.8583,4.8583,4.8583,4.8614,5.002,5.0697,5.0759,5.2082,5.2676,5.2676,5.2676,5.2676,5.2676,5.2676,5.2676,5.2676,5.2676,5.2676,5.2676,5.2676,5.2676,5.2676,0.0,0.0,0.0,0.0,0.0,2.5206,2.56,2.5337,2.525,2.571,2.5775,2.5797,2.5884,2.5906,2.5906,2.5906,2.5906,0.0,0.0,0.0,0.0,2.7366,2.7406,2.8071,2.9452,2.9626,3.0031,0.0,0.0,0.0,3.0992,3.0992,3.0992,0.0,0.0,0.0,3.1686,3.1771,0.0,3.33,3.3404,3.377,3.4267,3.4267,3.4319,3.4397,3.4397,3.4397,3.4397,3.4397,3.4397,3.4397,3.4397,3.4397,3.4397,3.4397,3.4863,3.5405,3.5447,3.6135,3.6849,3.6891,3.704,3.716,3.716,3.716,3.716,3.716,3.716,3.716,3.716,0.0,0.0,0.0,0.0,0.0,0.0,0.0,0.0,0.0,0.0,0.0,0.0,0.0,0.0,0.0,0.0,0.0,0.0,0.0,4.7219,0.0,4.8583,4.8583,0.0,0.0,4.8583,4.8614,5.002,5.0697,5.0759,5.2082,5.2676,5.2676,5.2676,5.2676,5.2676,5.2676,5.2676,5.2676,5.2676,5.2676,5.2676,5.2676,5.2676,5.2676,0.0,0.0,0.0,0.0,0.0,0.0,0.0,2.5542,2.554,2.5863,2.5906,2.5906,2.5906,2.6125,2.6256,2.6256,2.6496,2.6627,2.6627,2.6627,2.6711,2.6868,2.7306,0.0,2.8391,2.9257,2.9896,3.0324,0.0,0.0,3.0992,3.0992,0.0,3.1018,0.0,3.1555,0.0,0.0,0.0,3.3613,3.3901,3.4162,3.4397,3.4397,3.4397,3.445,3.4737,3.4868,3.4816,3.4502,3.4607,3.4868,3.4868,3.5051,3.5286,3.5286,3.556,3.5877,3.6032,3.6459,3.6865,3.6973,3.7166,3.7337,3.7337,3.7422,3.7485,3.7485,3.7485,3.7485,3.7485,3.7817,0.0,0.0,0.0,0.0,0.0,0.0,0.0,0.0,0.0,0.0,0.0,0.0,0.0,0.0,0.0,0.0,0.0,0.0,4.7219,0.0,0.0,0.0,4.8583,0.0,4.8583,4.8614,5.002,5.0697,5.0759,5.2082,5.2676,5.2676,5.2676,5.2676,5.2676,5.2676,5.2676,5.2676,5.2676,5.2676,5.2676,5.2676,5.2676,5.2676,0.0,2.5498,0.0,0.0,2.5506,0.0,2.5506,2.5656,2.5784,2.5885,2.5994,2.6059,2.6059,2.6475,2.6758,2.6758,2.7086,2.7282,2.7282,2.7282,2.7151,2.6758,2.7425,2.7689,2.7506,2.8983,2.9859,0.0,0.0,0.0,0.0,0.0,0.0,0.0,0.0,0.0,0.0,0.0,3.3686,3.3796,3.4214,3.4397,3.4424,3.4528,3.458,3.4659,3.526,3.5469,3.5391,3.492,3.5077,3.5469,3.5469,3.5757,3.6096,3.6096,3.6201,3.6349,3.6547,3.6762,3.6972,3.7125,3.7434,3.765,3.765,3.7757,3.7886,3.7886,3.7886,3.7886,3.7886,3.7886,0.0,0.0,0.0,0.0,0.0,0.0,0.0,0.0,0.0,0.0,0.0,0.0,0.0,0.0,0.0,0.0,4.6542,0.0,0.0,0.0,0.0,4.8583,4.8583,0.0,4.8676,4.885,5.0112,5.0759,5.0944,5.2144,5.2676,5.2676,5.2676,5.2676,5.2676,5.2676,5.2676,5.2676,5.2676,5.2676,5.2676,5.2676,5.2676,5.2676,0.0,0.0,0.0,0.0,0.0,0.0,2.5253,2.5787,2.6152,2.5951,2.6256,2.654,2.654,2.6955,2.7217,2.7217,2.726,2.7282,2.7282,2.7282,2.726,2.7239,2.7305,2.7721,2.8431,2.9471,3.0367,0.0,0.0,3.1719,0.0,0.0,0.0,0.0,0.0,0.0,0.0,3.3535,3.3875,3.4319,3.4371,3.4397,3.445,3.4999,3.5208,3.5286,3.5835,3.6044,3.6018,3.5966,3.5992,3.6044,3.6044,3.607,3.6096,3.6096,3.6488,3.6907,3.6955,3.7659,3.842,3.8442,3.8778,3.9084,3.9084,3.9107,3.9129,3.9129,3.9129,3.9129,3.9129,3.9129,3.9129,0.0,0.0,0.0,0.0,0.0,0.0,0.0,0.0,0.0,0.0,4.4151,0.0,0.0,4.5176,0.0,0.0,0.0,0.0,4.8583,4.8583,4.8583,4.8583,4.8583,4.8943,4.961,5.0328,5.1005,5.1621,5.239,5.2676,5.2676,5.2676,5.2676,5.2676,5.2676,5.2676,5.2676,5.2676,5.2676,5.2676,5.2676,5.2676,5.2676,0.0,0.0,0.0,0.0,0.0,0.0,0.0,2.5888,2.6275,2.6302,2.6715,2.702,2.702,2.7435,2.7719,2.7719,2.8003,2.8201,2.8201,2.8201,2.8047,2.7741,2.821,2.854,2.8613,2.9487,3.0118,0.0,0.0,0.0,0.0,0.0,0.0,0.0,0.0,3.3352,3.3613,3.3927,3.4188,3.4424,3.4789,3.4946,3.4999,3.5574,3.5783,3.5861,3.6436,3.6645,3.6698,3.7063,3.6933,3.6645,3.6645,3.6907,3.7194,3.7194,3.7351,3.7534,3.7534,3.7854,3.8194,3.8327,3.8598,3.8917,3.9047,3.918,3.9292,3.9292,3.9292,3.9292,3.9292,3.9292,3.9292,3.9292,0.0,0.0,0.0,0.0,0.0,0.0,0.0,0.0,0.0,0.0,0.0,0.0,0.0,0.0,0.0,0.0,0.0,4.8583,0.0,4.8583,4.8583,4.8583,4.8974,4.9703,5.0359,5.1036,5.1713,5.2368,5.2676,5.2676,5.2676,5.2676,5.2676,5.2676,5.2676,5.2676,5.2676,5.2676,5.2676,5.2676,5.2676,5.2676,2.4977,0.0,2.5167,0.0,2.5371,2.5686,2.5686,2.6107,2.649,2.6692,2.7182,2.7474,2.7433,2.7914,2.8244,2.8244,2.8594,2.8792,2.8792,2.8792,2.8638,2.8243,2.8812,0.0,2.8675,2.9526,2.9979,2.9979,3.1041,0.0,0.0,0.0,0.0,0.0,3.3147,3.3576,3.3875,3.4424,3.4659,3.4711,3.5286,3.5521,3.56,3.6149,3.6358,3.6436,3.7063,3.7273,3.7325,3.7769,3.7612,3.7273,3.7273,3.756,3.79,3.79,3.79,3.79,3.79,3.7946,3.8034,3.8258,3.8485,3.8733,3.898,3.9158,3.9292,3.9292,3.9292,3.9292,3.9292,3.9292,3.9292,3.9292,0.0,0.0,0.0,0.0,0.0,0.0,4.2609,4.3556,4.4139,4.4642,0.0,0.0,0.0,0.0,0.0,0.0,0.0,0.0,0.0,0.0,4.8583,4.8583,4.9066,5.0011,5.0451,5.1159,5.2021,5.246,5.2676,5.2676,5.2676,5.2676,5.2676,5.2676,5.2676,5.2676,5.2676,5.2676,5.2676,5.2676,5.2676,5.2676,2.4508,2.488,2.5211,2.5211,2.5585,2.5897,2.5897,2.652,2.6972,2.6995,2.7584,2.7923,2.7726,2.8347,2.8792,2.8792,2.8792,2.8792,2.8792,2.8792,2.8792,0.0,0.0,2.8816,2.8816,2.9715,3.0192,3.0192,0.0,0.0,3.2102,0.0,3.2123,3.2127,3.2742,3.3526,3.4424,3.5025,3.5286,3.5338,3.5887,3.6096,3.6149,3.675,3.6985,3.7063,3.7665,3.79,3.79,3.79,3.79,3.79,3.79,3.79,3.79,3.79,3.79,3.79,3.79,3.8057,3.8258,3.8534,3.8756,3.8975,3.9225,3.9292,3.9292,3.9292,3.9292,3.9292,3.9292,3.9292,3.9292,3.9292,0.0,0.0,0.0,0.0,0.0,0.0,4.2193,4.3289,4.3309,4.4691,0.0,0.0,0.0,0.0,0.0,0.0,0.0,4.8583,4.8583,0.0,4.8583,4.8583,4.9291,5.0697,5.0697,5.1405,5.2676,5.2676,5.2676,5.2676,5.2676,5.2676,5.2676,5.2676,5.2676,5.2676,5.2676,5.2676,5.2676,5.2676,5.2676,5.2676,2.5461,2.5564,2.5668,2.5668,2.6063,2.6374,2.6374,2.6838,2.7196,2.7196,2.7678,2.7981,2.7902,2.8263,2.8605,0.0,2.8792,2.8792,0.0,2.8792,2.8792,2.8792,2.8792,2.8792,2.8792,2.9094,2.9255,2.9255,0.0,0.0,0.0,3.2418,3.2696,3.2763,3.4012,3.4743,3.5051,3.56,3.5835,3.5887,3.6488,3.6724,3.6776,3.7377,3.7612,3.7639,3.7821,3.79,3.79,3.79,3.79,3.79,3.79,3.79,3.79,3.79,3.79,3.79,3.79,3.7946,3.808,3.8489,3.8647,3.88,3.9203,3.9292,3.9292,3.9292,3.9292,3.9292,3.9292,3.9292,3.9292,3.9292,3.9292,0.0,0.0,0.0,0.0,0.0,4.2589,4.3706,4.4761,4.5328,0.0,0.0,0.0,0.0,0.0,0.0,0.0,0.0,4.8583,0.0,4.8583,4.9097,4.9805,5.0697,5.1159,5.1836,5.2676,5.2676,5.2676,5.2676,5.2676,5.2676,5.2676,5.2676,5.2676,5.2676,5.2676,5.2676,5.2676,5.2676,5.2676,5.2676,2.5897,2.6043,2.6167,2.6167,2.654,2.6851,2.6851,2.7123,2.7309,2.7309,2.757,2.7809,2.7998,2.8139,0.0,2.8769,2.8792,2.8792,2.8792,2.8792,2.8792,2.8792,2.8792,2.8792,2.8792,2.8792,0.0,2.8792,2.9761,3.0804,3.1956,3.2531,3.309,3.3686,3.4634,3.5249,3.5626,3.6201,3.6436,3.6488,3.7116,3.7351,3.7377,3.7769,3.79,3.79,3.79,3.79,3.79,3.79,3.79,3.7952,3.8135,3.8214,3.8161,3.7978,3.79,3.79,3.79,3.79,3.8044,3.8644,3.8853,3.9112,3.983,3.9997,3.9916,3.9671,3.9644,3.9563,3.9346,3.9292,3.9292,3.9292,3.9292,3.9292,3.9292,0.0,0.0,0.0,0.0,0.0,0.0,4.5995,4.6511,0.0,0.0,0.0,0.0,0.0,4.8583,4.8583,4.8583,4.8583,4.8583,4.9312,5.0041,5.0697,5.1621,5.2276,5.2676,5.2676,5.2676,5.2676,5.2676,5.2676,5.2676,5.2676,5.2676,5.2676,5.2676,5.2676,5.2676,5.2676,5.2676,5.2676,2.6001,2.6353,2.6643,2.6643,2.7019,2.7309,2.7309,2.7309,2.7309,2.7309,2.7309,2.7499,2.7993,2.8064,2.8297,2.8855,0.0,0.0,2.8902,2.8902,2.8902,2.8902,2.8902,2.8902,2.8902,2.8902,2.8902,2.8902,2.9851,3.1039,3.2466,3.2602,3.3388,3.4693,3.481,3.535,3.6201,3.6802,3.7063,3.7116,3.7665,3.79,3.79,3.79,3.79,3.79,3.79,3.7926,3.7952,3.7952,3.7978,3.8109,3.8606,3.8762,3.8661,3.8161,3.8031,3.8031,3.8031,3.8031,3.8181,3.8961,3.9349,3.9807,4.0835,4.1063,4.0924,4.0377,4.0241,4.0078,3.9536,3.9427,3.9427,3.9427,3.9427,3.9427,3.9427,0.0,0.0,0.0,0.0,0.0,4.5224,4.6702,4.7619,0.0,0.0,0.0,0.0,0.0,4.8583,4.8583,4.8583,4.8583,4.8583,4.9374,5.0134,5.0851,5.2113,5.2676,5.2676,5.2676,5.2676,5.2676,5.2676,5.2676,5.2676,5.2676,5.2676,5.2676,5.2676,5.2676,5.2676,5.2676,5.2676,5.2676,0.0,0.0,2.712,2.712,2.7226,2.7309,2.7309,2.7309,2.7309,2.7309,2.7428,2.7791,2.8463,2.8719,2.9108,2.9814,2.9556,2.9491,2.9838,2.986,2.986,2.986,2.986,2.986,2.986,2.986,2.986,2.986,3.0915,3.1598,3.1996,3.3475,3.4365,3.4763,3.5917,3.6575,3.6828,3.7429,3.7691,3.7717,3.7848,3.79,3.79,3.79,3.79,3.79,3.79,3.8161,3.8527,3.8527,3.8841,3.9233,3.9364,3.939,3.934,3.9233,3.9207,3.9207,3.9207,3.9207,3.928,3.9623,3.9909,4.0244,4.0683,4.078,4.0823,4.0873,4.0892,4.0842,4.0707,4.0652,4.0652,4.0652,4.0652,4.0652,4.0652,4.1909,4.2948,0.0,4.4757,4.6103,4.6956,4.7374,4.7804,0.0,0.0,4.8583,4.8583,4.8583,4.8583,4.8583,4.8583,4.8583,4.8583,4.9835,5.1067,5.2236,5.2553,5.2676,5.2676,5.2676,5.2676,5.2676,5.2676,5.2676,5.2676,5.2676,5.2676,5.2676,5.2676,5.2676,5.2676,5.2676,5.2676,5.2676,2.7309,2.7309,2.7309,2.7309,2.7309,2.7309,2.7309,2.7309,2.7309,2.7309,2.7547,2.7992,2.863,2.9034,2.9599,3.0422,3.01,2.9925,3.0188,3.0185,3.0185,3.0185,3.0185,3.0185,3.0185,3.0185,3.0185,3.0185,3.1277,3.2157,3.2842,3.3898,3.5038,3.6186,3.6516,3.6945,3.7429,3.7769,3.79,3.79,3.79,3.79,3.7926,3.8187,3.8266,3.8318,3.8579,3.8867,3.9105,3.9105,3.9337,3.9627,3.9886,3.9991,4.0043,4.0305,3.9993,3.9599,3.9599,3.9599,3.9699,4.0202,4.0704,4.1181,4.1445,4.1612,4.1676,4.1524,4.1493,4.1412,4.1141,4.1086,4.1086,4.1086,4.1086,4.1086,4.1086,4.2001,4.271,4.2992,4.4666,4.6089,4.6697,4.7545,4.8214,4.8553,4.8583,0.0,4.8583,4.8583,4.8583,4.8583,4.8583,4.8737,4.9097,5.0482,5.1682,5.2676,5.2676,5.2676,5.2676,5.2676,5.2676,5.2676,5.2676,5.2676,5.2676,5.2676,5.2676,5.2676,5.2676,5.2676,5.2676,5.2676,5.2676,5.2676,2.7309,2.7309,2.7309,2.7309,2.7309,2.7309,2.7309,2.7348,2.7389,2.7389,2.7759,2.822,2.8791,2.925,2.9899,3.0874,3.0622,3.0403,3.0403,3.0403,3.0403,3.0403,3.0403,3.0403,3.0403,3.0403,3.0403,3.0403,3.1503,3.2649,3.3911,3.422,3.5528,3.7647,3.6898,3.7038,3.79,3.79,3.79,3.7926,3.8004,3.8031,3.8083,3.8632,3.8841,3.8896,3.9442,3.9627,3.9705,3.9705,3.9782,3.9939,4.0385,4.0515,4.0644,4.1142,4.0594,3.986,3.986,3.986,4.0039,4.0755,4.1499,4.2117,4.2438,4.2682,4.2689,4.2249,4.2141,4.1978,4.1466,4.1358,4.1358,4.1358,4.1358,4.1358,4.1358,0.0,4.1987,4.2532,4.4275,4.5683,4.6167,4.767,4.8583,4.8583,4.8583,4.8583,4.8583,4.8583,4.8583,4.8583,4.8583,4.9004,4.9857,5.1067,5.2052,5.2676,5.2676,5.2676,5.2676,5.2676,5.2676,5.2676,5.2676,5.2676,5.2676,5.2676,5.2676,5.2676,5.2676,5.2676,5.2676,5.2676,5.2676,5.2676,2.7309,2.7309,2.7309,2.7309,2.7309,2.7309,2.7309,2.7572,2.7821,2.7821,2.8214,2.8749,2.9451,2.9804,3.029,3.1094,3.1302,3.1385,3.1385,3.1385,3.1385,3.1385,3.1385,3.1385,3.1385,3.1385,3.1385,3.1385,3.2449,3.3116,3.336,3.5112,3.6161,3.6592,3.7343,3.7739,3.79,3.79,3.79,3.7952,3.8373,3.8579,3.8658,3.9233,3.9468,3.947,3.9573,3.9888,4.0305,4.0305,4.0594,4.1038,4.1116,4.1142,4.1168,4.1273,4.1168,4.1038,4.1038,4.1038,4.1112,4.1464,4.1642,4.1895,4.2389,4.2536,4.2606,4.2716,4.2738,4.2711,4.2629,4.2602,4.2602,4.2602,4.2602,4.2602,4.2602,0.0,4.509,4.5205,4.6889,4.8065,4.8157,4.8438,4.8583,4.8583,4.8583,4.8583,4.8583,4.8583,4.8583,4.8583,4.8583,4.9251,5.0513,5.1313,5.2052,5.2676,5.2676,5.2676,5.2676,5.2676,5.2676,5.2676,5.2676,5.2676,5.2676,5.2676,5.2676,5.2676,5.2676,5.2676,5.2676,5.2676,5.2676,5.2676,2.7309,2.7309,2.7309,2.7309,2.7309,2.7368,2.7572,2.78,2.7983,2.8231,2.869,2.9164,2.9652,3.0032,3.0495,3.1167,3.1296,3.145,3.1604,3.1604,3.1604,3.1604,3.1604,3.1604,3.1604,3.1604,3.1604,3.1604,3.2675,3.3201,3.3226,3.4166,3.4945,3.5475,3.5403,3.6174,3.752,3.752,3.8009,3.8841,3.9102,3.9157,3.9259,3.981,4.0043,4.0071,4.0409,4.0672,4.0881,4.0881,4.1064,4.1299,4.1299,4.1299,4.1299,4.1299,4.1299,4.1299,4.1299,4.1299,4.1349,4.1448,4.1696,4.1993,4.2239,4.2509,4.2755,4.2876,4.2925,4.2925,4.2925,4.2925,4.2925,4.2925,4.2925,4.2925,4.2925,4.3685,4.4247,4.4247,4.5936,4.7081,4.7081,4.8009,4.8583,4.8583,4.8583,4.8583,4.8583,4.8583,4.8789,4.9189,4.9528,5.0236,5.1221,5.1898,5.2368,5.2676,5.2676,5.2676,5.2676,5.2676,5.2676,5.2676,5.2676,5.2676,5.2676,5.2676,5.2676,5.2676,5.2676,5.2676,5.2676,5.2676,5.2676,5.2676,2.7309,2.7309,2.733,2.7431,2.7431,2.7596,2.7983,2.8148,2.8334,2.8731,2.9187,2.9533,2.9764,3.0155,3.0573,3.0961,3.1116,3.1296,3.1501,3.1578,3.1604,3.1604,3.1604,3.1604,3.1604,3.1604,3.1604,3.1604,3.242,3.2826,3.2826,3.3076,3.3717,3.4576,3.4008,3.5084,3.7361,3.7361,3.8245,3.9625,3.9756,3.9808,3.986,4.0385,4.0594,4.0672,4.1116,4.1299,4.1299,4.1299,4.1299,4.1299,4.1299,4.1299,4.1299,4.1299,4.1299,4.1299,4.1299,4.1299,4.1324,4.1399,4.1746,4.2141,4.219,4.2557,4.2925,4.2925,4.2925,4.2925,4.2925,4.2925,4.2925,4.2925,0.0,4.2925,4.2925,4.3091,4.3304,4.3543,4.5075,4.6203,4.6425,4.7755,4.8583,4.8583,4.8583,4.8583,4.8583,4.8737,4.9251,5.0165,5.0667,5.119,5.1682,5.2359,5.2676,5.2676,5.2676,5.2676,5.2676,5.2676,5.2676,5.2676,5.2676,5.2676,5.2676,5.2676,5.2676,5.2676,5.2676,5.2676,5.2676,5.2676,5.2676,5.2676,2.7309,2.7309,2.741,2.78,2.7858,2.8003,2.8479,2.8938,2.9208,2.9249,2.9663,2.9979,2.9979,3.0214,3.0417,3.0443,3.0909,3.1193,3.1219,3.145,3.1604,3.1604,3.1604,3.1604,3.1604,3.1604,3.1604,3.1604,3.168,3.1732,3.1757,3.2725,3.3478,3.4014,3.4923,3.6282,3.7865,3.7865,3.8529,3.9627,4.0123,4.0332,4.0411,4.101,4.1221,4.1221,4.1273,4.1299,4.1299,4.1299,4.1299,4.1299,4.1299,4.1299,4.1299,4.1299,4.1299,4.1299,4.1299,4.1299,4.1374,4.1597,4.1895,4.2166,4.2411,4.2679,4.2925,4.2925,4.2925,4.2925,4.2925,4.2925,4.2925,4.2925,0.0,0.0,4.2925,4.3634,4.4545,4.5485,4.6491,4.7456,4.8313,4.8521,4.8583,4.8583,4.8583,4.8583,4.8583,4.9251,5.0205,5.1498,5.159,5.1652,5.1713,5.2359,5.2676,5.2676,5.2676,5.2676,5.2676,5.2676,5.2676,5.2676,5.2676,5.2676,5.2676,5.2676,5.2676,5.2676,5.2676,5.2676,5.2676,5.2676,5.2676,5.2676,2.7309,2.7513,2.7717,2.7858,2.8127,2.8479,2.898,2.9187,2.9415,2.9704,2.9891,2.9994,2.9994,3.0099,3.0229,3.0391,3.075,3.1034,3.1189,3.145,3.1604,3.1604,3.1604,3.1604,3.1604,3.1604,3.1604,3.1604,3.1935,3.2088,3.2088,3.2816,3.3611,3.4469,3.4881,3.6364,3.8517,3.8517,3.9343,4.0672,4.0881,4.0959,4.0985,4.1194,4.1299,4.1299,4.1299,4.1299,4.1299,4.1299,4.1299,4.1299,4.1299,4.1299,4.1299,4.1299,4.1299,4.1299,4.1299,4.1299,4.1324,4.1423,4.1796,4.2141,4.2239,4.2582,4.2925,4.2925,4.2925,4.2925,4.2925,4.2925,4.2925,4.2925,0.0,4.2925,4.2925,4.3211,4.3776,4.4753,4.5756,4.6711,4.7649,4.8271,4.8583,4.8583,4.8583,4.8799,4.9251,5.0328,5.1159,5.1682,5.2113,5.2306,5.2306,5.2553,5.2676,5.2676,5.2676,5.2676,5.2676,5.2676,5.2676,5.2676,5.2676,5.2676,5.2676,5.2676,5.2676,5.2676,5.2676,5.2676,5.2676,5.2676,5.2676,5.2676,2.7493,2.7841,2.8169,2.8313,2.8628,2.898,2.9456,2.9518,2.9642,2.9953,2.9994,2.9994,2.9994,2.9994,3.0073,3.0261,3.0594,3.0879,3.106,3.1399,3.1604,3.1604,3.1604,3.1669,3.187,3.1844,3.1935,3.2066,3.2437,3.2617,3.2639,3.2945,3.3803,3.5024,3.5024,3.6532,3.912,3.912,3.9955,4.1299,4.1299,4.1299,4.1299,4.1299,4.1299,4.1299,4.1299,4.1299,4.1299,4.1299,4.1299,4.1299,4.1299,4.1299,4.1299,4.1299,4.1299,4.1299,4.1299,4.1374,4.1423,4.1423,4.1771,4.2115,4.2215,4.2582,4.2925,4.2925,4.2925,4.2925,4.2925,4.2925,4.2925,4.2925,4.2925,4.2925,4.2925,4.2925,4.3232,4.4195,4.4915,4.5824,4.7081,4.7776,4.8292,4.8563,4.8799,4.9343,5.0288,5.119,5.1805,5.2021,5.246,5.2676,5.2676,5.2676,5.2676,5.2676,5.2676,5.2676,5.2676,5.2676,5.2676,5.2676,5.2676,5.2676,5.2676,5.2676,5.2676,5.2676,5.2676,5.2676,5.2676,5.2676,5.2676,5.2676,2.79,2.8272,2.8748,2.9228,2.9311,2.9456,2.9932,2.9994,2.9994,2.9994,2.9994,2.9994,2.9994,2.9994,2.9994,2.9994,3.049,3.0801,3.0801,3.1318,3.1604,3.1604,3.1604,3.187,3.2398,3.242,3.2639,3.3098,3.3098,3.3098,3.3098,3.3098,3.3955,3.5527,3.5527,3.7027,3.9597,3.9597,4.0262,4.1299,4.1299,4.1299,4.1299,4.1299,4.1299,4.1299,4.1299,4.1299,4.1299,4.1299,4.1299,4.1299,4.1299,4.1299,4.1299,4.1299,4.1299,4.1299,4.1299,4.1498,4.1696,4.1696,4.1919,4.2166,4.2438,4.2731,4.2925,4.2925,4.2925,4.2925,4.2925,4.2925,4.2925,4.2925,4.2925,4.2925,4.2925,4.2925,4.3232,4.4195,4.4312,4.5047,4.7016,4.7189,4.7606,4.8552,4.9281,5.0297,5.1621,5.1713,5.2021,5.2698,5.2676,5.2676,5.2676,5.2676,5.2676,5.2676,5.2676,5.2676,5.2676,5.2676,5.2676,5.2676,5.2676,5.2676,5.2676,5.2676,5.2676,5.2676,5.2676,5.2676,5.2676,5.2676,5.2676,5.2676,2.8313,2.8748,2.9145,2.929,2.958,2.9829,2.9973,2.9994,2.9994,2.9994,2.9994,2.9994,2.9994,2.9994,2.9994,2.9994,3.049,3.1132,3.1867,3.2075,3.2306,3.2639,3.2328,3.2372,3.2879,3.2879,3.2967,3.3098,3.3447,3.3573,3.36,3.3923,3.5188,3.7186,3.7186,3.8517,4.0769,4.0769,4.0997,4.1299,4.1299,4.1299,4.1299,4.1299,4.1299,4.1299,4.1299,4.1299,4.1299,4.1299,4.1299,4.1299,4.1299,4.1299,4.1299,4.1299,4.1299,4.1299,4.1299,4.1498,4.1696,4.1696,4.2043,4.2387,4.2487,4.2731,4.2925,4.2925,4.2925,4.2925,4.2925,4.2925,4.2925,4.2925,4.2925,4.2925,4.2925,4.2925,4.3232,4.4195,4.4312,4.5047,4.7016,4.7189,4.7787,4.9249,5.0451,5.1282,5.1682,5.2144,5.2513,5.2676,5.2676,5.2676,5.2676,5.2676,5.2676,5.2676,5.2676,5.2676,5.2676,5.2676,5.2676,5.2676,5.2676,5.2676,5.2676,5.2676,5.2676,5.2676,5.2676,5.2676,5.2676,5.2676,5.2676,5.2676,2.881,2.9249,2.958,2.958,2.9808,2.9994,2.9994,2.9994,2.9994,2.9994,2.9994,2.9994,2.9994,2.9994,2.9994,2.9994,3.0658,3.1467,3.2346,3.2573,3.2901,3.336,3.312,3.3098,3.3382,3.3382,3.3469,3.3639,3.3945,3.4076,3.4098,3.4831,3.6127,3.7928,3.8376,3.9571,4.1299,4.1299,4.1299,4.1299,4.1299,4.1299,4.1299,4.1299,4.1299,4.1299,4.1299,4.1299,4.1299,4.1299,4.1455,4.169,4.1925,4.1952,4.1952,4.1952,4.1952,4.1952,4.1952,4.2155,4.2383,4.2383,4.2438,4.2536,4.2633,4.2779,4.2925,4.2925,4.2925,4.2925,4.2925,4.2925,4.2925,4.2925,4.2925,4.2925,4.2925,4.2925,4.3115,4.3681,4.4055,4.5023,4.6867,4.7382,4.8412,5.0356,5.1251,5.1836,5.2082,5.2483,5.2676,5.2676,5.2676,5.2676,5.2676,5.2676,5.2676,5.2676,5.2676,5.2676,5.2676,5.2676,5.2676,5.2676,5.2676,5.2676,5.2676,5.2676,5.2676,5.2676,5.2676,5.2676,5.2676,5.2676,5.2676,5.2676,2.9352,2.9704,2.9994,2.9994,2.9994,2.9994,2.9994,2.9994,2.9994,2.9994,2.9994,2.9994,2.9994,2.9994,3.0015,3.0056,3.0953,3.1805,3.245,3.287,3.3355,3.3835,3.3857,3.3857,3.3857,3.3857,3.4076,3.4507,3.4507,3.4507,3.4513,3.568,3.6804,3.7954,3.9105,4.0211,4.1299,4.1299,4.1299,4.1299,4.1299,4.1299,4.1299,4.1299,4.1299,4.1299,4.1376,4.1402,4.1402,4.143,4.1821,4.2369,4.2866,4.2997,4.2997,4.2997,4.2997,4.2997,4.2997,4.3205,4.3386,4.3386,4.3026,4.2722,4.2939,4.3063,4.3063,4.3063,4.3033,4.2979,4.2979,4.2952,4.2925,4.2925,4.2925,4.2925,4.2925,4.2952,4.2979,4.2979,4.3867,4.5099,4.672,4.7881,4.9406,5.1524,5.1775,5.2052,5.2667,5.2676,5.2676,5.2676,5.2676,5.2676,5.2676,5.2676,5.2676,5.2676,5.2676,5.2676,5.2676,5.2676,5.2676,5.2676,5.2676,5.2676,5.2676,5.2676,5.2676,5.2676,5.2676,5.2676,5.2676,5.2676,5.2676,5.2676,2.9766,2.9932,2.9994,2.9994,2.9994,2.9994,2.9994,2.9994,2.9994,2.9994,2.9994,2.9994,2.9994,2.9994,3.0139,3.0538,3.127,3.2102,3.3036,3.3192,3.3583,3.431,3.4332,3.4332,3.4332,3.4332,3.4397,3.4507,3.4507,3.4507,3.4513,3.568,3.6804,3.7954,3.9105,4.0211,4.1299,4.1299,4.1299,4.1299,4.1299,4.1299,4.1299,4.1299,4.1299,4.1376,4.1846,4.2003,4.2081,4.25,4.271,4.2866,4.2945,4.2997,4.2997,4.2997,4.2997,4.2997,4.2997,4.3205,4.3386,4.3386,4.3638,4.3857,4.3908,4.4109,4.4312,4.4312,4.3932,4.3603,4.3603,4.3223,4.2925,4.2925,4.2925,4.2925,4.2925,4.3305,4.3603,4.3603,4.4914,4.6257,4.7392,4.9592,5.1155,5.166,5.2206,5.2553,5.2676,5.2676,5.2676,5.2676,5.2676,5.2676,5.2676,5.2676,5.2676,5.2676,5.2676,5.2676,5.2676,5.2676,5.2676,5.2676,5.2676,5.2676,5.2676,5.2676,5.2676,5.2676,5.2676,5.2676,5.2676,5.2676,5.2676,5.2676,2.9953,2.9994,2.9994,2.9994,2.9994,2.9994,2.9994,2.9994,2.9994,2.9994,2.9994,2.9994,2.9994,3.0201,3.0565,3.1183,3.1778,3.2465,3.3277,3.3569,3.3917,3.4485,3.4507,3.4507,3.4507,3.4507,3.4507,3.4507,3.4507,3.4791,3.5323,3.648,3.761,3.8742,3.9904,4.0719,4.1299,4.1299,4.1299,4.1299,4.1299,4.1299,4.1325,4.1611,4.1716,4.1794,4.2369,4.2579,4.2657,4.3232,4.3415,4.3467,4.3728,4.3807,4.3807,4.3807,4.3807,4.3807,4.3807,4.3913,4.4072,4.4204,4.4571,4.4751,4.4317,4.4464,4.4719,4.4719,4.4447,4.423,4.423,4.3959,4.3769,4.3769,4.3769,4.3769,4.3769,4.4013,4.4427,4.4891,4.6115,4.7617,4.9431,5.1165,5.2175,5.2175,5.2513,5.2676,5.2676,5.2676,5.2676,5.2676,5.2676,5.2676,5.2676,5.2676,5.2676,5.2676,5.2676,5.2676,5.2676,5.2676,5.2676,5.2676,5.2676,5.2676,5.2676,5.2676,5.2676,5.2676,5.2676,5.2676,5.2676,5.2676,5.2676,5.2676,2.9994,2.9994,2.9994,2.9994,2.9994,2.9994,2.9994,2.9994,2.9994,2.9994,2.9994,3.0036,3.0098,3.0594,3.1179,3.1772,3.2315,3.2867,3.34,3.3843,3.4227,3.4507,3.4507,3.4507,3.4507,3.4507,3.4507,3.4507,3.4507,3.5074,3.6231,3.737,3.8507,3.9648,4.0769,4.1299,4.1299,4.1299,4.1299,4.1299,4.1428,4.1455,4.1533,4.2134,4.2343,4.2421,4.2971,4.3206,4.3363,4.3859,4.4043,4.4095,4.4538,4.4695,4.4695,4.4695,4.4695,4.4695,4.4695,4.4722,4.4856,4.5126,4.5448,4.5475,4.4694,4.4761,4.5017,4.5017,4.4936,4.4854,4.4854,4.4773,4.4719,4.4719,4.4719,4.4719,4.4719,4.48,4.523,4.6234,4.7501,4.9222,5.1628,5.2368,5.2676,5.2676,5.2676,5.2676,5.2676,5.2676,5.2676,5.2676,5.2676,5.2676,5.2676,5.2676,5.2676,5.2676,5.2676,5.2676,5.2676,5.2676,5.2676,5.2676,5.2676,5.2676,5.2676,5.2676,5.2676,5.2676,5.2676,5.2676,5.2676,5.2676,5.2676,5.2676,2.9994,2.9994,2.9994,2.9994,2.9994,2.9994,2.9994,2.9994,2.9994,2.9994,2.9994,3.0139,3.0553,3.1312,3.185,3.1968,3.2657,3.324,3.3557,3.3903,3.4227,3.4507,3.4507,3.4507,3.4507,3.4507,3.4507,3.4507,3.4507,3.5074,3.6231,3.737,3.8507,3.9648,4.0769,4.1299,4.1299,4.1299,4.1299,4.1325,4.1872,4.2081,4.2134,4.2683,4.2892,4.2971,4.3546,4.4068,4.4486,4.4564,4.459,4.459,4.4669,4.4695,4.4695,4.4695,4.4695,4.4695,4.4695,4.491,4.5126,4.518,4.5582,4.5927,4.5792,4.6002,4.6264,4.6264,4.5857,4.5478,4.5478,4.5044,4.4719,4.4719,4.4719,4.4719,4.4719,4.5153,4.5858,4.6879,4.9164,5.1155,5.2432,5.2645,5.2676,5.2676,5.2676,5.2676,5.2676,5.2676,5.2676,5.2676,5.2676,5.2676,5.2676,5.2676,5.2676,5.2676,5.2676,5.2676,5.2676,5.2676,5.2676,5.2676,5.2676,5.2676,5.2676,5.2676,5.2676,5.2676,5.2676,5.2676,5.2676,5.2676,5.2676,5.2676,2.9994,2.9994,2.9994,2.9994,2.9994,2.9994,2.9994,2.9994,2.9994,2.9994,3.0222,3.047,3.0683,3.1478,3.2119,3.2367,3.2907,3.3296,3.3579,3.3918,3.4227,3.4507,3.4507,3.4507,3.4507,3.4507,3.4507,3.4507,3.5129,3.6041,3.718,3.8323,3.9468,4.0567,4.1072,4.1507,4.1794,4.1794,4.1977,4.2265,4.2552,4.2657,4.2709,4.3284,4.3493,4.3572,4.4147,4.4486,4.4695,4.4695,4.4695,4.4695,4.4695,4.4695,4.4695,4.4695,4.4695,4.4722,4.4937,4.5099,4.5261,4.5582,4.5821,4.6033,4.6245,4.6376,4.6509,4.6509,4.6291,4.6101,4.6101,4.5911,4.5695,4.5695,4.5695,4.5695,4.5695,4.5938,4.672,4.8317,5.0028,5.1512,5.2586,5.2676,5.2676,5.2676,5.2676,5.2676,5.2676,5.2676,5.2676,5.2676,5.2676,5.2676,5.2676,5.2676,5.2676,5.2676,5.2676,5.2676,5.2676,5.2676,5.2676,5.2676,5.2676,5.2676,5.2676,5.2676,5.2676,5.2676,5.2676,5.2676,5.2676,5.2676,5.2676,5.2737]},{"header":{"parameterUnit":"m.s-1","parameterCategory":1,"la1":30.6,"la2":28.766,"lo1":-90.7593,"lo2":-88.6598,"dy":0.0162,"dx":0.0183,"nx":116,"ny":114,"refTime":"2024-03-24T06:00:00:Z","depth":0,"parameterNumber":3,"parameterNumberName":"V-component_of_WINDS"},"data":[0.0,0.0,0.0,0.0,0.0,0.0,0.0,0.0,0.0,0.0,0.0,0.0,0.0,0.0,0.0,0.0,0.0,0.0,0.0,0.0,0.0,0.0,0.0,0.0,0.0,0.0,0.0,0.0,0.0,0.0,0.0,0.0,0.0,0.0,0.0,0.0,0.0,0.0,0.0,0.0,0.0,0.0,0.0,0.0,0.0,0.0,0.0,0.0,0.0,0.0,0.0,0.0,0.0,0.0,0.0,0.0,0.0,0.0,0.0,0.0,0.0,0.0,0.0,0.0,0.0,0.0,0.0,0.0,0.0,0.0,0.0,0.0,0.0,0.0,0.0,0.0,0.0,0.0,0.0,0.0,0.0,0.0,0.0,0.0,0.0,0.0,0.0,0.0,0.0,0.0,0.0,0.0,0.0,0.0,0.0,0.0,0.0,0.0,0.0,0.0,0.0,0.0,0.0,0.0,0.0,0.0,0.0,0.0,0.0,0.0,0.0,0.0,0.0,0.0,0.0,0.0,0.0,0.0,0.0,0.0,0.0,0.0,0.0,0.0,0.0,0.0,0.0,0.0,0.0,0.0,0.0,0.0,0.0,0.0,0.0,0.0,0.0,0.0,0.0,0.0,0.0,0.0,0.0,0.0,0.0,0.0,0.0,0.0,0.0,0.0,0.0,0.0,0.0,0.0,0.0,0.0,0.0,0.0,0.0,0.0,0.0,0.0,0.0,0.0,0.0,0.0,0.0,0.0,0.0,0.0,0.0,0.0,0.0,0.0,0.0,0.0,0.0,0.0,0.0,0.0,0.0,0.0,0.0,0.0,0.0,0.0,0.0,0.0,0.0,0.0,0.0,0.0,0.0,0.0,0.0,0.0,0.0,0.0,0.0,0.0,0.0,0.0,0.0,0.0,0.0,0.0,0.0,0.0,0.0,0.0,0.0,0.0,0.0,0.0,0.0,0.0,0.0,0.0,0.0,0.0,0.0,0.0,0.0,0.0,0.0,0.0,0.0,0.0,0.0,0.0,0.0,0.0,0.0,0.0,0.0,0.0,0.0,0.0,0.0,0.0,0.0,0.0,0.0,0.0,0.0,0.0,0.0,0.0,0.0,0.0,0.0,0.0,0.0,0.0,0.0,0.0,0.0,0.0,0.0,0.0,0.0,0.0,0.0,0.0,0.0,0.0,0.0,0.0,0.0,0.0,0.0,0.0,0.0,0.0,0.0,0.0,0.0,0.0,0.0,0.0,0.0,0.0,0.0,0.0,0.0,0.0,0.0,0.0,0.0,0.0,0.0,0.0,0.0,0.0,0.0,0.0,0.0,0.0,0.0,0.0,0.0,0.0,0.0,0.0,0.0,0.0,0.0,0.0,0.0,0.0,0.0,0.0,0.0,0.0,0.0,0.0,0.0,0.0,0.0,0.0,0.0,0.0,0.0,0.0,0.0,0.0,0.0,0.0,0.0,0.0,0.0,0.0,0.0,0.0,0.0,0.0,0.0,0.0,0.0,0.0,0.0,0.0,0.0,0.0,0.0,0.0,0.0,0.0,0.0,0.0,0.0,0.0,0.0,0.0,0.0,0.0,0.0,0.0,0.0,0.0,0.0,0.0,0.0,0.0,0.0,0.0,0.0,0.0,0.0,0.0,0.0,0.0,0.0,0.0,0.0,0.0,0.0,0.0,0.0,0.0,0.0,0.0,0.0,0.0,0.0,0.0,0.0,0.0,0.0,0.0,0.0,0.0,0.0,0.0,0.0,0.0,0.0,0.0,0.0,0.0,0.0,0.0,0.0,0.0,0.0,0.0,0.0,0.0,0.0,0.0,0.0,0.0,0.0,0.0,0.0,0.0,0.0,0.0,0.0,0.0,0.0,0.0,0.0,0.0,0.0,0.0,0.0,0.0,0.0,0.0,0.0,0.0,0.0,0.0,0.0,0.0,0.0,0.0,0.0,0.0,0.0,0.0,0.0,0.0,0.0,0.0,0.0,0.0,0.0,0.0,0.0,0.0,0.0,0.0,0.0,0.0,0.0,0.0,0.0,0.0,0.0,0.0,0.0,0.0,0.0,0.0,0.0,0.0,0.0,0.0,0.0,0.0,0.0,0.0,0.0,0.0,0.0,0.0,0.0,0.0,0.0,0.0,0.0,0.0,0.0,0.0,0.0,0.0,0.0,0.0,0.0,0.0,0.0,0.0,0.0,0.0,0.0,0.0,0.0,0.0,0.0,0.0,0.0,0.0,0.0,0.0,0.0,0.0,0.0,0.0,0.0,0.0,0.0,0.0,0.0,0.0,0.0,0.0,0.0,0.0,0.0,0.0,0.0,0.0,0.0,0.0,0.0,0.0,0.0,0.0,0.0,0.0,0.0,0.0,0.0,0.0,0.0,0.0,0.0,0.0,0.0,0.0,0.0,0.0,0.0,0.0,0.0,0.0,0.0,0.0,0.0,0.0,0.0,0.0,0.0,0.0,0.0,0.0,0.0,0.0,0.0,0.0,0.0,0.0,0.0,0.0,0.0,0.0,0.0,0.0,0.0,0.0,0.0,0.0,0.0,0.0,0.0,0.0,0.0,0.0,0.0,0.0,0.0,0.0,0.0,0.0,0.0,0.0,0.0,0.0,0.0,0.0,0.0,0.0,0.0,0.0,0.0,0.0,0.0,0.0,0.0,0.0,0.0,0.0,0.0,0.0,0.0,0.0,0.0,0.0,0.0,0.0,0.0,0.0,0.0,0.0,0.0,0.0,0.0,0.0,0.0,0.0,0.0,0.0,0.0,0.0,0.0,0.0,0.0,0.0,0.0,0.0,0.0,0.0,0.0,0.0,0.0,0.0,0.0,0.0,0.0,0.0,0.0,0.0,0.0,0.0,0.0,0.0,0.0,0.0,0.0,0.0,0.0,0.0,0.0,0.0,0.0,0.0,0.0,0.0,0.0,0.0,0.0,0.0,0.0,0.0,0.0,0.0,0.0,0.0,0.0,0.0,0.0,0.0,0.0,0.0,0.0,0.0,0.0,0.0,0.0,0.0,0.0,0.0,0.0,0.0,0.0,0.0,0.0,0.0,0.0,0.0,0.0,0.0,0.0,0.0,0.0,0.0,0.0,0.0,0.0,0.0,0.0,0.0,0.0,0.0,0.0,0.0,0.0,0.0,0.0,0.0,0.0,0.0,0.0,0.0,0.0,0.0,0.0,0.0,0.0,0.0,0.0,0.0,0.0,0.0,0.0,0.0,0.0,0.0,0.0,0.0,0.0,0.0,0.0,0.0,0.0,0.0,0.0,0.0,0.0,0.0,0.0,0.0,0.0,0.0,0.0,0.0,0.0,0.0,0.0,0.0,0.0,0.0,0.0,0.0,0.0,0.0,0.0,0.0,0.0,0.0,0.0,0.0,0.0,0.0,0.0,0.0,0.0,0.0,0.0,0.0,0.0,0.0,0.0,0.0,0.0,0.0,0.0,0.0,0.0,0.0,0.0,0.0,0.0,0.0,0.0,0.0,0.0,0.0,0.0,0.0,0.0,0.0,0.0,0.0,0.0,0.0,0.0,0.0,0.0,0.0,0.0,0.0,0.0,0.0,0.0,0.0,0.0,0.0,0.0,0.0,0.0,0.0,0.0,0.0,0.0,0.0,0.0,0.0,0.0,0.0,0.0,0.0,0.0,0.0,0.0,0.0,0.0,0.0,0.0,0.0,0.0,0.0,0.0,0.0,0.0,0.0,0.0,0.0,0.0,0.0,0.0,0.0,0.0,0.0,0.0,0.0,0.0,0.0,0.0,0.0,0.0,0.0,0.0,0.0,0.0,0.0,0.0,0.0,0.0,0.0,0.0,0.0,0.0,0.0,0.0,0.0,0.0,0.0,0.0,0.0,0.0,0.0,0.0,0.0,0.0,0.0,0.0,0.0,0.0,0.0,0.0,0.0,0.0,0.0,0.0,0.0,0.0,0.0,0.0,0.0,0.0,0.0,0.0,0.0,0.0,0.0,0.0,0.0,0.0,0.0,0.0,0.0,0.0,0.0,0.0,0.0,0.0,0.0,0.0,0.0,0.0,0.0,0.0,0.0,0.0,0.0,0.0,0.0,0.0,0.0,0.0,0.0,0.0,0.0,0.0,0.0,0.0,0.0,0.0,0.0,0.0,0.0,0.0,0.0,0.0,0.0,0.0,0.0,0.0,0.0,0.0,0.0,0.0,0.0,0.0,0.0,0.0,0.0,0.0,0.0,0.0,0.0,0.0,0.0,0.0,0.0,0.0,0.0,0.0,0.0,0.0,0.0,0.0,0.0,0.0,0.0,0.0,0.0,0.0,0.0,0.0,0.0,0.0,0.0,0.0,0.0,0.0,0.0,0.0,0.0,0.0,0.0,0.0,0.0,0.0,0.0,0.0,0.0,0.0,0.0,0.0,0.0,0.0,0.0,0.0,0.0,0.0,0.0,0.0,0.0,0.0,0.0,0.0,0.0,0.0,0.0,0.0,0.0,0.0,0.0,0.0,0.0,0.0,0.0,0.0,0.0,0.0,0.0,0.0,0.0,0.0,0.0,0.0,0.0,0.0,0.0,0.0,0.0,0.0,0.0,0.0,0.0,0.0,0.0,0.0,0.0,0.0,0.0,0.0,0.0,0.0,0.0,0.0,0.0,0.0,0.0,0.0,0.0,0.0,0.0,0.0,0.0,0.0,0.0,0.0,0.0,0.0,0.0,0.0,0.0,0.0,0.0,0.0,0.0,0.0,0.0,0.0,0.0,0.0,0.0,0.0,0.0,0.0,0.0,0.0,0.0,0.0,0.0,0.0,0.0,0.0,0.0,0.0,0.0,0.0,0.0,0.0,0.0,0.0,0.0,0.0,0.0,0.0,0.0,0.0,0.0,0.0,0.0,0.0,0.0,0.0,0.0,0.0,0.0,0.0,0.0,0.0,0.0,0.0,0.0,0.0,0.0,0.0,0.0,0.0,0.0,0.0,0.0,0.0,0.0,0.0,0.0,0.0,0.0,0.0,0.0,0.0,0.0,0.0,0.0,0.0,0.0,0.0,0.0,0.0,0.0,0.0,0.0,0.0,0.0,0.0,0.0,0.0,0.0,0.0,0.0,0.0,0.0,0.0,0.0,0.0,0.0,0.0,0.0,0.0,0.0,0.0,0.0,0.0,0.0,0.0,0.0,0.0,0.0,0.0,0.0,0.0,0.0,0.0,0.0,0.0,0.0,0.0,0.0,0.0,0.0,0.0,0.0,0.0,0.0,0.0,0.0,0.0,0.0,0.0,0.0,0.0,0.0,0.0,0.0,0.0,0.0,0.0,0.0,0.0,0.0,0.0,0.0,0.0,0.0,0.0,0.0,0.0,0.0,0.0,0.0,0.0,0.0,0.0,0.0,0.0,0.0,0.0,0.0,0.0,0.0,0.0,0.0,0.0,0.0,0.0,0.0,0.0,0.0,0.0,0.0,0.0,0.0,0.0,0.0,0.0,0.0,0.0,0.0,0.0,0.0,0.0,0.0,0.0,0.0,0.0,0.0,0.0,0.0,0.0,0.0,0.0,0.0,0.0,0.0,0.0,0.0,0.0,0.0,0.0,0.0,0.0,0.0,0.0,0.0,0.0,0.0,0.0,0.0,0.0,0.0,0.0,0.0,0.0,0.0,0.0,0.0,0.0,0.0,0.0,0.0,0.0,0.0,0.0,0.0,0.0,0.0,0.0,0.0,0.0,0.0,0.0,0.0,0.0,0.0,0.0,0.0,0.0,0.0,0.0,0.0,0.0,0.0,0.0,0.0,0.0,0.0,0.0,0.0,0.0,0.0,0.0,0.0,0.0,0.0,0.0,0.0,0.0,0.0,0.0,0.0,0.0,0.0,0.0,0.0,0.0,0.0,0.0,0.0,0.0,0.0,0.0,0.0,0.0,0.0,0.0,0.0,0.0,0.0,0.0,0.0,0.0,0.0,0.0,0.0,0.0,0.0,0.0,0.0,0.0,0.0,0.0,0.0,0.0,0.0,0.0,0.0,0.0,0.0,0.0,0.0,0.0,0.0,0.0,0.0,0.0,0.0,0.0,0.0,0.0,0.0,0.0,0.0,0.0,0.0,0.0,0.0,0.0,0.0,0.0,0.0,0.0,0.0,1.4675,0.0,0.0,0.0,0.0,0.0,0.0,0.0,0.0,0.0,0.0,0.0,0.0,0.0,0.0,0.0,0.0,0.0,0.0,0.0,0.0,0.0,0.0,0.0,0.0,2.1191,2.1167,2.0827,2.0753,0.0,0.0,0.0,0.0,0.0,0.0,0.0,2.0695,2.1067,2.1288,2.1368,2.2048,2.2632,2.3155,2.2942,2.2849,2.2893,0.0,0.0,0.0,0.0,0.0,0.0,0.0,0.0,0.0,0.0,0.0,0.0,0.0,0.0,0.0,0.0,0.0,0.0,0.0,0.0,0.0,0.0,0.0,0.0,0.0,0.0,0.0,0.0,0.0,0.0,0.0,0.0,0.0,0.0,0.0,0.0,0.0,0.0,0.0,0.0,0.0,0.0,0.0,0.0,0.0,0.0,0.0,0.0,0.0,0.0,0.0,0.0,0.0,0.0,0.0,0.0,0.0,0.0,0.0,0.0,0.0,0.0,0.0,0.0,0.0,0.0,0.0,0.0,0.0,0.0,0.0,1.5074,0.0,0.0,0.0,0.0,0.0,0.0,0.0,0.0,0.0,0.0,0.0,0.0,0.0,0.0,0.0,0.0,0.0,0.0,0.0,0.0,0.0,2.127,2.1214,2.1254,2.1167,2.0827,2.0738,2.0754,2.0876,2.0722,0.0,0.0,0.0,2.1897,2.2244,2.2546,2.2662,2.2615,2.3225,2.3732,2.4256,2.4349,2.4069,2.3463,2.2982,0.0,0.0,0.0,0.0,0.0,0.0,0.0,0.0,0.0,0.0,0.0,0.0,0.0,0.0,0.0,0.0,0.0,0.0,0.0,0.0,0.0,0.0,0.0,0.0,0.0,0.0,0.0,0.0,0.0,0.0,0.0,0.0,0.0,0.0,0.0,0.0,0.0,0.0,0.0,0.0,0.0,0.0,0.0,0.0,0.0,0.0,0.0,0.0,0.0,0.0,0.0,0.0,0.0,0.0,0.0,0.0,0.0,0.0,0.0,0.0,0.0,0.0,0.0,1.83,1.8401,1.7826,1.801,1.8184,1.823,1.6764,1.6028,1.5916,1.5916,0.0,0.0,0.0,0.0,0.0,0.0,0.0,0.0,0.0,0.0,0.0,0.0,0.0,0.0,0.0,0.0,0.0,0.0,0.0,2.1183,2.0901,2.1127,2.1167,2.0827,2.1055,2.1214,2.123,2.1439,2.1598,2.178,2.2173,2.2535,2.2879,2.327,2.3599,2.3853,2.4399,2.4724,2.4794,2.4803,2.4764,2.4653,2.3719,2.3275,2.3231,0.0,0.0,0.0,0.0,0.0,0.0,0.0,0.0,0.0,0.0,0.0,0.0,0.0,0.0,0.0,0.0,0.0,0.0,0.0,0.0,0.0,0.0,0.0,0.0,0.0,0.0,0.0,0.0,0.0,0.0,0.0,0.0,0.0,0.0,0.0,0.0,0.0,0.0,0.0,0.0,0.0,1.7129,1.6609,0.0,0.0,0.0,0.0,0.0,0.0,0.0,0.0,0.0,0.0,0.0,0.0,0.0,1.8781,1.9603,1.9624,1.9743,2.0017,1.9462,1.9163,1.9038,1.8393,1.8485,1.908,1.8172,0.0,1.6743,1.6743,0.0,0.0,0.0,0.0,0.0,0.0,0.0,0.0,0.0,0.0,0.0,0.0,0.0,0.0,0.0,0.0,0.0,0.0,0.0,0.0,0.0,2.1206,2.1238,2.1095,2.1214,2.1495,2.1884,2.191,2.2342,2.3231,2.3428,2.368,2.4055,2.4235,2.4402,2.4542,2.5052,2.5307,2.5307,2.5307,2.5307,2.5246,2.4563,2.409,2.3752,2.3187,0.0,0.0,0.0,0.0,0.0,0.0,0.0,0.0,0.0,0.0,0.0,0.0,0.0,0.0,0.0,0.0,0.0,0.0,0.0,0.0,0.0,0.0,0.0,0.0,0.0,0.0,0.0,0.0,0.0,0.0,0.0,0.0,0.0,0.0,0.0,0.0,0.0,0.0,0.0,1.7856,1.7623,1.7346,1.7566,1.7528,0.0,0.0,0.0,0.0,0.0,0.0,0.0,0.0,0.0,1.9933,2.018,2.0677,2.1467,2.1737,2.1787,2.1553,2.2164,2.2237,2.1886,2.174,2.1883,2.2188,2.1364,2.0816,2.0342,1.8376,1.7569,1.7569,0.0,0.0,0.0,0.0,1.737,1.737,0.0,0.0,0.0,0.0,0.0,0.0,0.0,0.0,0.0,0.0,0.0,0.0,2.1293,2.1293,2.1293,2.1293,2.1455,2.1819,2.2345,2.2608,2.3243,2.4459,2.46,2.4763,2.5059,2.5081,2.5081,2.5081,2.5616,2.5865,2.5898,2.606,2.6157,2.6105,2.5771,2.5069,2.412,2.3601,2.3231,2.3,0.0,0.0,0.0,0.0,0.0,0.0,0.0,0.0,0.0,0.0,0.0,0.0,0.0,0.0,0.0,0.0,0.0,0.0,0.0,0.0,0.0,0.0,0.0,0.0,0.0,0.0,0.0,0.0,0.0,0.0,0.0,0.0,0.0,0.0,0.0,0.0,0.0,1.8212,1.8318,1.8318,1.8782,1.885,0.0,0.0,0.0,0.0,0.0,0.0,1.9647,2.0371,2.1111,2.1793,2.223,2.2777,2.3465,2.3815,2.3745,2.3249,2.4303,2.4546,2.407,2.4168,2.432,2.4458,2.3644,2.3424,2.3399,2.0584,1.9431,1.9412,1.9164,1.9069,1.903,1.88,1.8723,1.8723,0.0,0.0,0.0,0.0,0.0,0.0,0.0,0.0,0.0,0.0,0.0,2.1293,2.1293,2.1293,2.1293,2.1293,2.1948,2.2353,2.2418,2.364,2.4427,2.4491,2.5153,2.5546,2.5569,2.5569,2.5569,2.5569,2.6286,2.662,2.6662,2.73,2.7581,2.7581,2.7561,2.6321,2.4235,2.3644,2.3161,2.2792,2.2649,0.0,0.0,0.0,0.0,0.0,0.0,0.0,0.0,0.0,0.0,0.0,0.0,0.0,0.0,0.0,0.0,0.0,0.0,0.0,0.0,0.0,0.0,0.0,0.0,0.0,0.0,0.0,0.0,0.0,0.0,0.0,0.0,0.0,0.0,0.0,0.0,0.0,0.0,1.885,1.9333,0.0,0.0,0.0,0.0,2.0186,2.1131,2.1965,2.2479,2.2971,2.3474,2.4026,2.4489,2.5012,2.5536,2.5559,2.5582,2.5543,2.4845,2.4493,2.4434,2.3683,2.3784,2.4458,2.3644,2.3724,2.4379,2.3419,2.3058,2.2957,2.2047,2.1719,2.1595,2.0706,2.0372,2.0372,0.0,0.0,0.0,0.0,0.0,0.0,2.1293,2.1293,2.1293,2.1293,2.1293,2.1293,2.1293,2.1293,2.1495,2.1956,2.2248,2.2766,2.3682,2.4232,2.4718,2.5195,2.5477,2.5597,2.5597,2.606,2.6296,2.6296,2.7008,2.7332,2.7365,2.7591,2.7711,2.7711,2.7711,2.7091,2.6041,2.5362,2.4764,2.42,2.343,2.2881,0.0,0.0,0.0,0.0,0.0,0.0,0.0,0.0,0.0,0.0,0.0,0.0,0.0,0.0,0.0,0.0,0.0,0.0,0.0,0.0,0.0,0.0,0.0,0.0,0.0,0.0,0.0,0.0,0.0,0.0,0.0,0.0,0.0,0.0,0.0,0.0,0.0,2.0016,2.0411,0.0,2.0737,2.156,2.2138,2.2287,2.3081,2.3727,2.4103,2.4595,2.4962,2.5164,2.5348,2.5509,2.5696,2.6037,2.6217,2.6217,2.624,2.6235,2.6215,2.5931,2.5972,2.6215,2.5931,2.5972,2.6215,2.5931,2.4805,2.3263,2.292,2.2431,2.1857,2.1526,2.1006,2.05,0.0,0.0,0.0,0.0,0.0,0.0,2.1293,2.1293,2.1293,2.1293,2.1293,2.1293,2.1293,2.1528,2.1859,2.2353,2.2831,2.352,2.4427,2.4718,2.5098,2.5574,2.5833,2.5963,2.5963,2.6675,2.7041,2.7041,2.7721,2.8207,2.8433,2.8682,2.8908,2.9135,2.9135,2.8995,2.8701,2.7732,2.6629,2.545,2.4518,2.3773,2.3212,0.0,0.0,0.0,0.0,0.0,0.0,0.0,0.0,0.0,0.0,0.0,0.0,0.0,0.0,0.0,0.0,0.0,0.0,0.0,0.0,0.0,0.0,0.0,0.0,0.0,0.0,0.0,0.0,0.0,0.0,0.0,0.0,0.0,0.0,0.0,2.0579,2.1136,2.1616,2.2078,2.2504,2.3183,2.3764,2.4116,2.4735,2.5159,2.5278,2.5766,2.6065,2.6065,2.6148,2.624,2.6319,2.6582,2.6746,2.6746,2.705,2.7302,2.7463,2.7463,2.7555,2.7692,2.7692,2.7692,2.7692,2.7692,2.6681,2.5051,2.4401,2.3762,2.3164,2.2894,2.2181,2.1376,0.0,0.0,0.0,0.0,0.0,2.1261,2.1293,2.1293,2.1261,2.1293,2.1293,2.1293,2.1301,2.1956,2.2418,2.2451,2.3682,2.45,2.4533,2.5227,2.5597,2.5629,2.6328,2.6727,2.6717,2.7397,2.7753,2.7753,2.8509,2.9264,2.9988,3.0624,3.1336,3.1984,3.1984,3.1984,3.1919,3.0528,2.8635,2.6523,2.5898,2.52,2.4496,0.0,0.0,0.0,0.0,0.0,0.0,0.0,0.0,0.0,0.0,0.0,0.0,0.0,0.0,0.0,0.0,0.0,0.0,0.0,0.0,0.0,0.0,0.0,0.0,0.0,0.0,0.0,0.0,0.0,0.0,0.0,0.0,0.0,2.1,2.1415,2.1878,2.2262,2.2925,2.3491,2.3851,2.4484,2.5085,2.5622,2.6061,2.6253,2.6062,2.6554,2.6833,2.6833,2.708,2.7313,2.7557,2.7333,2.7233,2.7256,2.7256,2.7509,2.8033,2.8033,2.8264,2.87,2.87,2.87,2.87,2.87,2.87,2.85,2.6615,2.5863,2.5737,2.4892,2.3992,2.321,0.0,0.0,0.0,0.0,0.0,2.0751,2.1228,2.088,2.0751,2.1228,2.1293,2.1317,2.1379,2.1989,2.2662,2.3275,2.4052,2.4782,2.5471,2.5561,2.5833,2.6361,2.6743,2.7078,2.7429,2.8214,2.8884,2.9436,3.0032,3.0745,3.1562,3.1642,3.1822,3.1984,3.1984,3.1984,3.1951,3.1575,3.1059,3.0227,2.7699,2.6353,2.581,0.0,0.0,0.0,0.0,0.0,0.0,0.0,0.0,0.0,0.0,0.0,0.0,0.0,0.0,0.0,0.0,0.0,0.0,0.0,0.0,0.0,0.0,0.0,0.0,0.0,0.0,0.0,0.0,0.0,0.0,0.0,2.2313,2.2701,2.183,2.2383,2.3216,2.4199,2.4342,2.4702,2.5522,2.5901,2.6264,2.6669,2.6931,2.7171,2.7375,2.7335,2.7405,2.7589,2.7484,2.774,2.836,2.8135,2.8196,2.8588,2.8395,2.8356,2.8494,2.8494,2.8586,2.87,2.87,2.87,2.87,2.87,2.87,2.8656,2.8101,2.7516,2.6933,2.6693,2.6014,2.5195,0.0,0.0,0.0,0.0,0.0,2.0524,2.1196,2.0718,2.0524,2.1196,2.1293,2.1309,2.1364,2.2273,2.3094,2.3627,2.4522,2.5314,2.5848,2.577,2.6063,2.6789,2.7199,2.7699,2.8276,2.9391,3.0185,3.0598,3.1217,3.1934,3.2688,3.2606,3.271,3.2954,3.2954,3.2918,3.287,3.2579,3.2449,3.2275,3.0032,2.8522,2.7484,2.6569,2.5706,2.4876,2.4183,2.3466,2.283,2.2574,0.0,0.0,0.0,0.0,0.0,0.0,0.0,0.0,0.0,0.0,0.0,0.0,0.0,0.0,0.0,0.0,0.0,0.0,0.0,0.0,0.0,0.0,0.0,0.0,2.353,2.4058,2.3453,2.3823,2.4541,2.5605,2.5706,2.5941,2.6675,2.6942,2.7214,2.764,2.7786,2.7909,2.8018,2.811,2.8183,2.8373,2.8336,2.8574,2.9153,2.8878,2.8937,2.9217,2.8981,2.8966,2.9152,2.9065,2.9137,2.9343,2.9343,2.9458,2.9665,2.9665,2.9802,0.0,0.0,0.0,0.0,0.0,2.7061,2.6596,0.0,0.0,0.0,1.9956,2.0046,2.0297,2.1067,2.0621,2.0467,2.1196,2.1301,2.1317,2.1324,2.2703,2.3609,2.3634,2.5035,2.589,2.589,2.5908,2.6278,2.7079,2.7712,2.8423,2.9222,3.0587,3.1352,3.1451,3.2161,3.287,3.3559,3.3514,3.3814,3.4325,3.4325,3.425,3.4093,3.349,3.3218,3.3141,3.2417,3.1031,2.9252,2.8078,2.6867,2.569,2.4936,2.4195,2.3524,2.2918,0.0,0.0,0.0,0.0,0.0,0.0,0.0,0.0,0.0,0.0,0.0,0.0,0.0,0.0,0.0,0.0,0.0,0.0,0.0,0.0,0.0,0.0,0.0,0.0,2.4829,2.5623,2.5564,2.566,2.5961,2.6642,2.6875,2.7129,2.75,2.7684,2.7998,2.8454,2.857,2.8515,2.8334,0.0,0.0,0.0,0.0,2.9581,2.9931,2.9674,2.9593,2.9687,2.9474,2.9645,3.0089,2.9912,3.0054,3.0399,3.0399,3.0652,3.1088,3.1088,3.1364,3.1617,2.9779,2.9022,2.8866,2.8099,2.7767,2.7723,0.0,0.0,0.0,1.8505,1.8531,1.8977,2.0297,1.9891,1.9859,2.1131,2.1348,2.1426,2.1543,2.2834,2.3752,2.3902,2.5141,2.589,2.589,2.6059,2.6629,2.7748,2.8154,2.8857,2.9954,3.0947,3.1715,3.2264,3.2905,3.3639,3.4457,3.4349,3.4354,3.446,3.446,3.4386,3.4263,3.4133,3.4006,3.3841,3.3174,3.1948,3.0473,2.9411,2.8208,2.6921,2.5898,2.5007,2.4222,2.3552,2.3157,2.2941,2.2965,0.0,0.0,0.0,0.0,0.0,0.0,0.0,0.0,0.0,0.0,0.0,0.0,0.0,0.0,0.0,0.0,0.0,0.0,0.0,0.0,2.5713,2.6806,2.7477,2.7276,2.779,2.8033,2.7536,2.7522,2.7738,2.8247,2.8314,2.8382,2.8478,2.8907,2.9127,2.9087,2.9424,2.9711,2.9899,2.9764,3.0026,3.0692,3.041,3.0729,3.1559,0.0,0.0,3.1972,3.1949,3.1833,3.1739,3.1739,3.169,3.164,3.164,3.1709,3.1755,3.1364,3.0951,3.0514,3.0376,3.0034,2.9647,0.0,0.0,0.0,0.0,1.8109,1.8466,1.9567,1.9452,1.9574,2.0654,2.1138,2.1395,2.1487,2.2994,2.404,2.4202,2.5488,2.6241,2.6068,2.6294,2.6987,2.8154,2.8491,2.9166,3.0342,3.1506,3.2254,3.2618,3.3639,3.4364,3.4787,3.4727,3.4655,3.4594,3.4594,3.4485,3.43,3.43,3.4226,3.4068,3.3757,3.2967,3.1848,3.0321,2.9197,2.8221,2.6732,2.5712,2.4964,2.434,2.3993,2.3785,2.3785,2.3736,2.3743,0.0,0.0,0.0,0.0,0.0,0.0,0.0,0.0,0.0,0.0,0.0,0.0,0.0,0.0,2.4908,2.6456,0.0,2.6979,2.7729,2.8551,2.9047,2.8925,2.9478,2.9448,2.8251,2.8094,2.819,2.8454,2.8739,2.8907,2.8907,2.9388,2.9701,2.9701,3.0121,3.0409,3.0492,3.0915,3.1323,3.1719,3.1826,3.2165,3.2714,3.2437,3.244,3.27,3.2559,3.2441,3.23,3.23,3.2322,3.2361,3.2493,3.2559,3.2559,3.2559,3.2077,3.1387,3.1387,3.1226,3.095,0.0,0.0,0.0,0.0,0.0,1.8148,1.8868,1.9095,1.9452,2.023,2.0903,2.1356,2.1457,2.298,2.4171,2.4589,2.5905,2.6598,2.6391,2.6606,2.7272,2.8548,2.8736,2.937,3.059,3.1989,3.2707,3.2707,3.4199,3.4883,3.4883,3.4883,3.4823,3.4727,3.4727,3.4606,3.4374,3.4349,3.4263,3.4138,3.4113,3.3789,3.3092,3.1074,2.9946,2.9163,2.743,2.6326,2.5699,2.5139,2.4801,2.4642,2.4642,2.4541,2.4443,2.4454,2.4444,0.0,0.0,0.0,0.0,0.0,0.0,0.0,0.0,0.0,2.5375,2.6275,2.6532,2.6948,2.7954,2.8475,2.8926,2.9575,3.0129,3.0426,3.0262,3.0774,3.0646,2.9313,2.914,2.908,2.8902,2.9387,2.9641,2.9481,2.9941,3.0251,3.0251,3.0877,3.1214,3.1214,3.213,3.2659,3.2659,3.3068,3.3332,3.3428,3.3217,3.3172,3.3267,3.3055,3.2936,3.2865,3.2842,3.2934,3.3161,3.3307,3.3392,3.3367,3.3342,3.2812,3.2077,3.1962,3.1823,3.1707,0.0,0.0,0.0,0.0,0.0,1.7436,1.8109,1.8771,1.9473,2.0271,2.0955,2.1464,2.164,2.2434,2.3632,2.533,2.6226,2.6808,2.7069,2.6841,2.7505,2.9317,2.8792,2.9254,3.0991,3.2139,3.2707,3.2707,3.4199,3.4883,3.4883,3.4883,3.4883,3.4871,3.4871,3.4787,3.4643,3.4521,3.4399,3.4275,3.4151,3.4068,3.3792,3.1807,3.0385,2.9212,2.7863,2.6966,2.6323,2.5728,2.5347,2.5131,2.5131,2.5011,2.502,2.5556,0.0,2.5724,2.578,2.5809,0.0,2.6554,2.6581,2.6678,0.0,0.0,2.6915,2.8135,2.7904,2.8013,2.9857,3.0023,3.0164,3.0858,3.1478,3.162,3.0902,3.1473,3.1823,3.146,3.1422,3.1132,3.0353,3.0813,3.0832,3.0073,3.0516,3.0804,3.0804,3.1791,3.2322,3.2322,3.2899,3.3212,3.3212,3.326,3.3525,3.391,3.3886,3.4126,3.4582,3.4558,3.4412,3.4193,3.3997,3.3923,3.3944,3.3719,3.3666,3.3618,3.3392,3.3249,3.3088,3.2605,3.2121,3.1707,0.0,0.0,0.0,0.0,0.0,1.7176,1.7468,1.8116,1.8836,1.9585,2.0362,2.1023,2.1569,2.2933,2.4355,2.57,2.6366,2.6758,2.6899,2.6964,2.7443,2.8476,2.9033,2.9572,3.0085,3.1608,3.2282,3.2056,3.3524,3.4265,3.4265,3.4684,3.4883,3.4883,3.4883,3.4775,3.4582,3.4521,3.4386,3.4176,3.4126,3.3874,3.3376,3.2124,3.0875,2.9606,2.8054,2.734,0.0,0.0,2.6215,2.6114,2.5887,2.5795,2.5785,2.5877,2.5907,0.0,2.6329,0.0,0.0,0.0,2.7383,2.7552,2.817,2.8368,2.8679,2.9554,2.9818,3.0229,3.1383,3.1512,3.1641,0.0,3.2626,3.2686,3.2336,3.2899,3.3275,3.321,3.3839,3.3441,3.1256,3.1995,3.2266,3.138,3.2641,3.3208,3.2627,3.3368,3.3516,3.297,3.3452,3.3693,3.3693,3.4006,3.427,3.4487,3.4487,3.4583,3.4823,3.5111,3.5374,3.5537,3.531,3.5209,3.5184,3.4754,3.4576,3.4551,3.4293,3.4165,3.4073,3.3247,3.281,3.2627,0.0,0.0,0.0,0.0,0.0,0.0,0.0,0.0,1.8311,1.8864,1.9762,2.0699,2.1524,2.3114,2.4569,2.5638,2.6186,2.6676,2.7083,2.7173,2.7517,2.8209,2.8976,2.9532,2.9868,3.1189,3.1843,3.1763,3.304,3.3616,3.3503,3.4253,3.4584,3.4629,3.4816,3.4787,3.4606,3.4304,3.4093,3.3876,3.364,3.3226,3.2708,3.1984,3.1013,2.9876,2.8302,2.7625,2.7429,0.0,2.6686,2.6606,2.6327,2.6219,2.618,2.6159,2.6273,2.6511,2.6947,0.0,0.0,2.7889,2.8058,2.8255,2.9026,2.9532,3.0022,3.064,3.1302,3.1864,3.2314,3.2539,3.2774,3.3224,3.3308,3.3364,3.3533,3.3908,3.4329,3.4684,3.5536,3.5165,3.2815,3.3517,3.3811,3.3097,3.4208,3.464,3.4095,3.4597,3.4491,3.3524,3.4242,3.4508,3.4222,3.4607,3.4871,3.5015,3.5015,3.5087,3.5256,3.564,3.605,3.6385,3.6183,3.613,3.6055,3.5594,3.5413,3.5411,3.5149,3.5019,3.4927,3.4213,3.3834,3.3706,0.0,0.0,0.0,0.0,0.0,0.0,0.0,0.0,0.0,1.8215,1.9448,2.0632,2.1516,2.2582,2.3706,2.4938,2.5626,2.6618,2.8066,2.7552,2.784,2.9297,2.8418,2.8879,3.0997,3.1087,3.1489,3.2178,3.2921,3.3123,3.274,3.3503,3.3834,3.3867,3.4584,3.4916,3.4826,3.385,3.3437,3.3347,3.2414,3.206,3.1951,3.1195,3.0584,2.9955,2.8716,2.7935,2.7386,0.0,2.6418,2.6286,2.6152,2.603,0.0,2.661,2.7228,2.7763,0.0,0.0,2.7917,2.8536,2.8676,2.897,3.0163,3.0472,3.0668,3.1331,3.1949,3.2398,3.2398,3.2887,3.328,3.3308,3.3308,3.3505,3.4076,3.4189,3.4656,3.5902,3.6089,3.595,0.0,3.5608,3.5527,3.5231,3.4368,3.4095,3.4642,3.5175,3.5015,3.4006,3.5441,3.5762,3.4775,3.4799,3.5063,3.5568,3.5568,3.5857,3.6362,3.6362,3.6386,3.6411,3.6385,3.6385,3.6385,3.6105,3.5977,3.5951,3.5671,3.5592,3.5568,3.5545,3.5183,3.4762,0.0,0.0,0.0,0.0,0.0,0.0,0.0,0.0,0.0,0.0,0.0,0.0,0.0,0.0,0.0,0.0,2.5411,2.6211,2.6712,2.7258,2.755,2.7624,2.8409,2.8781,2.8581,3.0221,3.0857,3.0349,3.183,3.2351,3.199,3.2729,3.3072,3.3072,3.3246,3.3264,3.3216,3.2779,3.2553,3.2438,3.2116,3.1692,3.1193,3.0602,2.9965,2.9308,0.0,2.7638,0.0,0.0,0.0,0.0,2.6179,0.0,0.0,2.7299,2.7608,2.7889,2.8283,0.0,2.8648,2.9629,2.9882,3.0106,3.0965,3.1454,3.182,3.2061,3.2578,3.2999,3.2999,3.3168,3.3308,3.3308,3.3308,3.3505,3.4133,3.4572,3.518,3.5986,3.6436,0.0,0.0,0.0,0.0,3.6213,3.7157,3.7591,3.7122,3.7033,3.6867,3.6521,3.5735,3.5623,3.6306,3.5648,3.5592,3.6146,3.6146,3.6411,3.6916,3.6916,3.7108,3.7445,3.7445,3.7445,3.7418,3.718,3.7049,3.7022,3.6732,3.6496,3.6337,3.6337,3.612,3.5734,0.0,0.0,0.0,0.0,0.0,0.0,0.0,0.0,0.0,0.0,0.0,0.0,0.0,0.0,0.0,0.0,0.0,2.5578,2.6315,2.6941,2.7245,2.7225,2.8237,2.8556,2.8075,2.9549,3.0032,2.9436,3.0639,3.1082,3.082,3.1559,3.2034,3.2299,3.2486,3.255,3.2471,3.2071,3.1815,3.1734,3.1382,3.0959,3.0482,2.9948,2.9371,0.0,2.7812,2.7403,0.0,0.0,0.0,0.0,0.0,0.0,2.7399,2.7975,2.8283,2.8536,2.8914,2.9167,2.9532,3.0303,3.0668,3.105,3.1668,3.2117,3.2455,3.2662,3.3027,3.3308,3.3308,3.3308,3.3308,3.3308,3.3477,3.3842,3.4478,3.5124,3.5761,3.6351,3.6942,3.7456,0.0,0.0,0.0,3.7793,3.8699,3.9075,3.8635,3.8421,3.8239,3.8129,3.6846,3.6572,3.7413,3.6405,3.617,3.6699,3.6867,3.7156,3.7469,3.7469,3.7661,3.8,3.8,3.8,3.7974,3.7812,3.7732,3.7705,3.7518,3.7307,3.7147,3.7147,3.7066,3.6784,0.0,0.0,0.0,0.0,0.0,0.0,0.0,0.0,0.0,0.0,0.0,0.0,0.0,0.0,0.0,0.0,0.0,0.0,2.6705,2.6605,2.6951,2.8031,2.784,2.8192,2.9276,2.9034,2.9054,2.942,2.9472,2.9461,2.9373,3.0069,3.0754,3.1471,3.2155,3.2464,3.2409,3.1517,3.1122,3.1035,3.0141,2.9783,2.9706,2.9214,2.8674,2.8161,2.7638,0.0,0.0,0.0,0.0,0.0,0.0,0.0,0.0,2.8564,2.9139,2.9601,2.9629,3.005,3.0528,3.0568,3.1078,3.1696,3.2314,3.2455,3.2606,3.3196,3.3308,3.3308,0.0,0.0,3.3308,3.3308,3.3796,3.4431,3.5105,3.5723,3.6323,0.0,0.0,0.0,0.0,0.0,0.0,3.9837,0.0,3.8679,3.9249,3.9259,3.9128,3.8862,3.8731,3.8473,3.8113,3.7041,3.6747,3.7252,3.776,3.8,3.8,3.8,3.8,3.8,3.8,3.8,3.8,3.8,3.8,3.8,3.8,3.7974,3.7974,3.7974,3.7947,3.7788,0.0,0.0,0.0,0.0,0.0,0.0,0.0,0.0,0.0,0.0,0.0,0.0,0.0,0.0,0.0,0.0,0.0,0.0,2.4524,2.5778,2.6426,2.6281,2.7193,2.7732,2.7747,2.8518,2.8698,2.8244,2.9068,2.9206,2.8664,2.8863,2.8989,2.9075,2.9159,2.9176,2.9114,2.8752,2.8625,2.8582,2.8367,2.8072,2.7784,2.7734,2.742,2.7013,2.6988,0.0,0.0,0.0,0.0,0.0,0.0,0.0,2.8001,0.0,0.0,2.9685,3.0163,3.0387,3.0724,3.1679,3.2044,3.2342,3.2915,3.3083,3.3111,3.328,3.3308,3.3308,0.0,0.0,0.0,3.3308,3.3796,0.0,3.5105,3.5723,0.0,3.6942,0.0,3.8102,3.86,3.936,0.0,0.0,4.0221,4.0176,4.0315,4.0095,4.0217,4.083,3.9867,3.9475,3.9708,3.8305,3.7637,3.7808,3.7952,3.8,3.8,3.8,3.8,3.8,3.8,3.8,3.8,3.8,3.8,3.8,3.8,3.7892,3.7702,3.7702,3.7545,3.7254,0.0,0.0,0.0,0.0,0.0,0.0,0.0,0.0,0.0,0.0,0.0,0.0,0.0,0.0,0.0,0.0,0.0,0.0,0.0,2.4705,2.5496,2.6006,2.6636,2.7136,2.743,2.8047,2.8025,2.7325,2.8099,2.8287,2.7921,2.7921,2.803,2.8197,2.8119,2.804,2.7973,2.7853,2.7658,0.0,0.0,2.719,2.6812,2.6899,2.6808,2.6608,0.0,0.0,0.0,0.0,0.0,2.6214,2.7498,2.7878,2.803,2.9251,0.0,2.9713,3.0331,3.0724,3.1174,3.2174,3.2606,3.2887,3.3224,3.3308,3.3308,3.3308,3.3308,0.0,0.0,0.0,0.0,0.0,0.0,0.0,3.5133,3.5949,3.6717,0.0,3.7934,0.0,3.9219,3.9837,4.0322,0.0,4.0688,4.0828,4.1081,4.0935,4.1307,4.2407,4.0797,3.9708,3.9297,3.8436,3.8,3.8,3.8,3.8,3.8,3.8,3.8,3.8,0.0,3.8,3.8,3.8,3.8,3.8,3.8,3.7918,3.7785,3.7785,3.7652,3.7468,0.0,0.0,0.0,0.0,0.0,0.0,0.0,0.0,0.0,0.0,1.7598,0.0,0.0,0.0,0.0,0.0,0.0,0.0,0.0,0.0,2.4357,2.6072,2.6041,2.6476,2.7452,2.7505,2.7233,2.6674,2.6964,2.7106,2.7122,2.7122,2.7396,2.7862,2.7862,2.7836,2.7751,2.763,2.7316,2.6883,2.6841,2.648,2.6058,0.0,0.0,0.0,0.0,0.0,0.0,0.0,2.6125,2.6145,2.7412,2.7819,2.803,2.9251,2.9601,2.9741,3.0443,3.105,3.164,3.2342,3.2915,3.3308,3.3308,3.3308,3.3308,3.3308,0.0,3.3308,3.3308,3.3308,3.3308,3.3308,0.0,3.5189,3.5189,3.6239,3.7223,3.7821,3.8488,3.9135,3.9753,4.035,4.0716,4.08,4.0828,4.1053,4.1565,4.1761,4.2402,4.3582,4.1675,3.9927,3.8425,3.8291,3.8133,3.8,3.8,3.8,3.8,3.8,3.8048,3.8121,3.8121,0.0,3.819,3.819,3.819,3.819,3.819,3.819,3.819,3.819,3.819,3.819,0.0,0.0,0.0,0.0,0.0,0.0,0.0,0.0,0.0,0.0,1.7209,1.7487,0.0,0.0,0.0,0.0,0.0,0.0,0.0,0.0,0.0,2.3755,2.4841,2.5729,2.6262,2.6509,2.659,2.6514,2.6522,2.6398,2.6142,2.6142,2.6152,2.6125,2.6125,2.6091,2.602,2.6001,2.5728,2.5312,2.5302,2.4792,2.4141,0.0,0.0,0.0,0.0,0.0,0.0,0.0,2.6111,2.6297,2.7555,2.7907,2.803,2.9251,2.9601,2.9869,3.0993,3.1415,3.1752,3.2859,3.3224,3.3308,3.3308,3.3308,0.0,0.0,3.3308,3.3308,3.3308,3.3308,3.3308,3.3308,0.0,0.0,0.0,0.0,3.7223,0.0,0.0,0.0,0.0,0.0,0.0,0.0,0.0,4.1481,4.1593,4.2598,4.3497,4.4228,4.3016,4.1807,4.0667,3.9751,3.887,3.8,3.8,3.8,3.8,3.8,3.8238,3.8671,3.8671,0.0,3.932,3.932,3.932,3.932,3.932,3.932,3.932,3.932,3.932,3.9293,0.0,0.0,0.0,0.0,0.0,0.0,0.0,1.7118,1.7118,1.7118,1.7118,1.7209,1.7533,1.8306,1.9086,0.0,0.0,0.0,0.0,0.0,0.0,0.0,2.3663,2.4477,2.5595,2.5748,0.0,0.0,0.0,2.6217,0.0,0.0,0.0,0.0,0.0,2.5677,2.5588,2.5346,2.4983,2.4574,2.4318,2.3826,0.0,0.0,0.0,0.0,0.0,0.0,0.0,0.0,2.6016,2.6214,2.7484,2.7863,2.803,2.9251,2.9601,2.9869,3.1134,3.1516,3.178,3.2999,3.3308,3.3308,3.3308,0.0,0.0,0.0,3.3308,3.3308,3.3308,0.0,0.0,0.0,0.0,0.0,0.0,0.0,0.0,0.0,0.0,0.0,0.0,0.0,0.0,0.0,0.0,4.2261,4.257,4.3469,4.3855,4.3586,4.3084,4.2037,4.0389,3.9853,3.9078,3.8,3.8,3.8169,3.8407,3.8407,3.8719,3.9224,3.9224,0.0,3.9609,3.9609,3.9609,3.9609,3.9609,3.9609,3.9609,3.9609,3.9609,3.9581,0.0,0.0,0.0,0.0,0.0,0.0,1.7118,1.7118,1.7118,1.7118,1.7118,1.7118,1.7118,1.7688,1.8336,0.0,0.0,0.0,0.0,0.0,0.0,0.0,0.0,2.3276,2.4679,0.0,0.0,0.0,0.0,0.0,0.0,0.0,0.0,0.0,0.0,0.0,0.0,2.5013,2.4594,0.0,0.0,0.0,0.0,0.0,0.0,0.0,0.0,0.0,0.0,0.0,2.5907,2.6118,2.7383,2.7819,2.803,2.9251,2.9601,2.9869,3.1134,3.1516,3.178,3.2999,3.3308,3.3308,3.3308,3.3308,0.0,0.0,3.3308,3.3308,3.3308,0.0,3.3308,0.0,3.4383,0.0,0.0,0.0,0.0,0.0,0.0,0.0,0.0,0.0,0.0,0.0,0.0,0.0,4.3666,4.4144,4.3993,4.318,4.3129,4.2206,4.0287,4.0287,3.9622,3.8344,3.8465,3.8623,3.8788,3.8908,3.9245,3.9777,3.9777,0.0,0.0,3.9946,3.9946,3.9946,3.9946,3.9946,3.9946,3.9946,3.9946,3.9946,0.0,0.0,0.0,0.0,0.0,0.0,1.7118,1.7118,1.7118,1.7118,1.7118,1.7118,1.7118,1.7688,1.8142,0.0,0.0,0.0,0.0,0.0,0.0,0.0,0.0,0.0,0.0,0.0,0.0,0.0,0.0,0.0,0.0,0.0,0.0,0.0,0.0,0.0,0.0,0.0,0.0,0.0,0.0,0.0,0.0,0.0,0.0,0.0,0.0,0.0,0.0,0.0,0.0,2.6118,2.7383,2.7819,2.803,2.9251,0.0,0.0,3.1134,3.1516,3.178,3.2999,3.3308,3.3308,3.3308,0.0,0.0,3.3308,3.3308,3.3308,3.3308,3.3308,0.0,0.0,0.0,3.5189,0.0,0.0,0.0,0.0,0.0,0.0,0.0,0.0,0.0,0.0,0.0,0.0,4.4312,4.4369,4.435,4.4256,4.4256,4.3709,4.2525,4.2525,4.1467,3.9467,3.9967,3.9687,3.8812,3.9293,3.9826,4.0331,4.0331,0.0,0.0,4.1028,4.1028,4.1028,4.1028,4.1028,4.1028,4.1028,4.1028,4.1028,0.0,0.0,0.0,0.0,0.0,0.0,1.7118,1.7118,1.7118,1.7118,1.7118,1.7118,1.7118,1.7338,1.7662,1.807,0.0,0.0,0.0,0.0,0.0,0.0,0.0,0.0,0.0,0.0,0.0,0.0,0.0,0.0,0.0,0.0,0.0,0.0,0.0,0.0,0.0,0.0,0.0,0.0,0.0,0.0,0.0,0.0,0.0,0.0,0.0,0.0,0.0,0.0,0.0,0.0,2.6919,2.7467,0.0,0.0,2.9601,2.9785,3.0668,3.119,3.1696,3.2567,3.3027,3.3308,3.3308,0.0,3.3308,3.3308,3.3308,3.3308,3.3308,3.3308,3.3308,3.3308,3.4383,0.0,3.5189,0.0,0.0,0.0,0.0,0.0,0.0,0.0,0.0,0.0,0.0,0.0,4.4401,4.4401,4.4401,4.4401,4.4401,4.3875,4.2816,4.2159,4.1251,4.0073,3.9637,3.9564,3.9777,3.9994,4.0379,4.086,4.086,0.0,0.0,4.1201,4.1201,4.1201,4.1201,4.1201,4.1201,4.1201,4.1201,4.1201,0.0,0.0,0.0,0.0,0.0,1.7118,1.7118,1.7118,1.7118,1.7118,1.7118,1.7118,1.7118,1.7118,1.7273,1.7753,1.8473,0.0,0.0,0.0,0.0,0.0,0.0,0.0,0.0,0.0,2.3496,2.4209,2.4816,0.0,0.0,0.0,0.0,0.0,0.0,0.0,0.0,0.0,0.0,0.0,0.0,0.0,0.0,0.0,0.0,0.0,0.0,0.0,0.0,0.0,0.0,0.0,0.0,0.0,0.0,0.0,2.9476,2.9713,3.0331,3.0993,3.164,3.2258,3.2859,3.3308,0.0,0.0,3.3308,3.3308,3.3308,3.3308,3.3308,3.3308,3.3308,3.3308,3.4383,3.5189,3.5217,0.0,0.0,0.0,0.0,0.0,0.0,0.0,0.0,0.0,0.0,0.0,4.4401,4.4401,4.4401,4.4401,4.4401,4.4044,4.3276,4.2714,4.2066,4.1363,4.0617,4.0485,4.0888,4.0717,4.0836,4.1201,4.1201,0.0,0.0,4.1201,4.1201,4.1201,4.1201,4.1201,4.1201,4.1201,4.1201,4.1201,0.0,0.0,0.0,0.0,0.0,0.0,1.7118,1.7118,1.7118,1.7118,1.7118,1.7118,1.7118,1.7118,1.7118,1.7111,1.7721,0.0,0.0,0.0,0.0,0.0,0.0,0.0,0.0,0.0,2.2774,2.3504,2.3792,2.4261,2.4902,2.4902,0.0,0.0,0.0,0.0,0.0,0.0,0.0,0.0,0.0,0.0,2.2194,0.0,0.0,0.0,0.0,0.0,0.0,0.0,0.0,0.0,0.0,2.7271,2.7917,0.0,2.9139,2.9713,3.0331,3.0993,3.164,3.2258,3.2859,3.3308,0.0,0.0,3.3308,3.3308,3.3308,3.3308,3.3308,3.3308,3.3308,3.3308,3.4383,3.5189,3.5208,0.0,0.0,0.0,0.0,0.0,0.0,0.0,0.0,0.0,0.0,0.0,4.4401,4.4401,4.4401,4.4401,4.4401,4.4373,4.4373,4.4967,4.4716,4.3663,4.3649,4.3088,4.2055,4.1476,4.1201,0.0,0.0,0.0,0.0,4.1201,4.1201,4.1201,4.1201,4.1201,4.1201,4.1201,4.1201,4.1201,0.0,0.0,0.0,0.0,0.0,0.0,1.7118,1.7118,1.7118,1.7118,1.7118,1.7118,1.7118,1.7118,1.7118,1.7118,1.7721,0.0,0.0,0.0,0.0,0.0,0.0,0.0,0.0,0.0,2.2599,2.3024,2.3613,2.4106,2.4482,2.4482,2.4256,2.3824,0.0,0.0,0.0,0.0,0.0,0.0,0.0,2.2373,2.2194,0.0,0.0,0.0,0.0,0.0,0.0,0.0,0.0,0.0,0.0,0.0,0.0,2.7889,2.8802,2.9629,2.9826,3.0331,3.0977,3.1612,3.223,3.2774,3.3224,3.3308,3.3308,3.3308,3.3308,3.3308,3.3308,3.3308,3.3308,3.3308,3.4383,3.5189,0.0,0.0,0.0,0.0,0.0,0.0,0.0,0.0,0.0,0.0,0.0,0.0,4.4401,4.4401,4.4401,4.4401,4.4401,4.4598,4.5019,4.4488,4.4417,4.4831,4.3333,4.2614,4.2607,4.1647,4.1201,0.0,0.0,0.0,0.0,4.1201,4.1201,4.1201,4.1201,4.1201,4.1201,4.1201,4.1201,4.1201,0.0,0.0,0.0,0.0,0.0,0.0,1.7118,1.7118,1.7118,1.7118,1.7118,1.706,1.7003,1.6946,1.6895,1.6844,1.7154,0.0,0.0,0.0,0.0,0.0,0.0,0.0,2.1111,2.1413,2.18,2.2244,2.2773,2.326,2.3651,2.3914,2.3792,2.3337,2.3534,0.0,0.0,0.0,0.0,0.0,2.2408,2.231,2.2194,0.0,0.0,0.0,0.0,0.0,0.0,0.0,0.0,0.0,0.0,0.0,0.0,0.0,2.8508,2.9307,0.0,3.005,3.0668,3.1331,3.1949,0.0,3.3168,3.3308,3.3308,3.3308,3.3308,3.3308,3.3308,3.3308,3.3308,3.3308,3.4383,3.5189,0.0,0.0,0.0,0.0,0.0,0.0,0.0,0.0,0.0,4.4312,0.0,0.0,4.4401,4.4401,4.4401,4.4401,4.4401,4.4682,4.53,4.4893,4.5153,4.604,4.4017,4.3222,4.3496,4.1919,4.1201,0.0,0.0,0.0,0.0,4.1201,4.1201,4.1201,4.1201,4.1201,4.1201,4.1201,4.1201,4.1201,0.0,0.0,0.0,0.0,0.0,0.0,0.0,1.7118,1.7118,1.7118,1.7118,1.7022,1.6818,1.6682,1.6543,1.6382,1.6177,0.0,0.0,0.0,0.0,0.0,0.0,0.0,2.0753,2.0395,2.0562,2.1301,2.1501,2.1953,2.2621,2.3257,2.3304,2.2899,2.3348,2.3282,0.0,0.0,0.0,0.0,2.2408,2.2298,0.0,0.0,0.0,0.0,0.0,0.0,0.0,0.0,0.0,0.0,0.0,0.0,0.0,0.0,0.0,0.0,0.0,2.9966,3.0612,3.1274,3.1893,3.2511,3.3111,3.328,0.0,3.3308,3.3308,3.3308,3.3308,3.3308,3.3308,3.3308,3.4383,3.5189,0.0,0.0,0.0,0.0,0.0,0.0,0.0,4.2593,4.3076,4.4312,4.4401,0.0,4.4401,4.4401,4.4401,4.4401,4.4401,4.471,4.5356,4.5998,4.6567,4.7113,4.5394,4.4562,4.4401,4.2206,4.1201,0.0,0.0,0.0,0.0,4.1201,4.1201,4.1201,4.1201,4.1201,4.1201,4.1201,4.1201,4.1201,0.0,0.0,0.0,0.0,0.0,0.0,0.0,0.0,0.0,0.0,1.7118,1.6978,1.6682,1.6623,1.6483,0.0,0.0,0.0,0.0,0.0,0.0,0.0,0.0,0.0,2.028,2.0224,2.0603,2.1386,2.1426,2.1883,2.2763,2.2897,2.2928,2.2844,2.2939,2.2797,0.0,0.0,0.0,0.0,2.224,2.2217,0.0,0.0,0.0,0.0,2.3684,2.4203,0.0,0.0,0.0,0.0,0.0,0.0,0.0,0.0,2.7495,2.8142,2.8745,0.0,2.9966,3.0584,3.1246,3.1864,0.0,3.2971,3.3308,3.3308,0.0,3.3308,3.3308,3.3308,3.3308,3.3308,3.4383,3.5189,3.5189,0.0,0.0,0.0,0.0,0.0,0.0,4.2593,4.3076,4.4312,4.4401,4.4401,4.4401,4.4401,4.4401,4.4401,4.4401,4.4959,4.6055,4.6223,4.6417,4.6574,4.5262,4.4129,4.3247,4.1863,4.1201,0.0,0.0,0.0,4.1201,4.1201,4.1201,4.1201,4.1201,4.1201,4.1201,4.1201,4.1201,4.1201,0.0,0.0,0.0,0.0,0.0,0.0,0.0,0.0,0.0,0.0,1.6965,1.6766,1.653,1.6277,1.6036,0.0,0.0,0.0,0.0,0.0,0.0,0.0,0.0,1.9918,1.9812,1.9696,1.9973,2.0604,2.0925,2.1468,2.2259,2.2631,2.2809,2.2809,2.2815,2.2672,0.0,0.0,0.0,2.2194,2.2194,0.0,0.0,0.0,0.0,0.0,2.3628,2.4091,0.0,2.5499,2.5907,2.5907,0.0,0.0,0.0,0.0,2.7256,2.7917,2.8536,2.9139,2.9741,3.0359,3.0993,3.164,3.2258,0.0,0.0,0.0,0.0,3.3308,3.3308,3.3308,3.3392,3.3655,3.4552,0.0,0.0,0.0,0.0,0.0,0.0,0.0,0.0,0.0,4.3076,4.4312,4.4401,4.4401,4.4401,4.4401,4.4401,4.4401,4.4401,4.5015,4.6279,4.6307,4.66,4.7155,4.5422,4.4291,4.3634,4.1976,4.1201,0.0,0.0,0.0,4.1201,4.1201,4.1201,4.1201,4.1201,4.1201,4.1201,4.1201,4.1201,4.1201,0.0,0.0,0.0,0.0,0.0,0.0,0.0,0.0,0.0,0.0,0.0,0.0,0.0,0.0,0.0,0.0,0.0,0.0,0.0,0.0,0.0,0.0,1.9588,1.9508,1.9369,1.9121,1.9247,1.9815,2.0395,2.1034,2.1787,2.2443,2.2787,2.2809,2.2826,2.2672,0.0,0.0,0.0,2.2194,2.2194,0.0,0.0,0.0,0.0,0.0,0.0,0.0,0.0,2.5499,2.5907,2.5907,2.5907,0.0,0.0,0.0,0.0,0.0,2.8536,2.9223,2.9854,3.0387,3.0993,3.164,3.2258,0.0,0.0,0.0,0.0,0.0,0.0,3.3392,0.0,0.0,0.0,0.0,0.0,0.0,0.0,0.0,0.0,0.0,4.248,4.2677,4.3188,4.434,4.4401,4.4401,4.4401,4.4401,4.4401,4.4401,4.4401,4.5015,4.6279,4.6307,4.6823,4.7826,4.582,4.4698,4.4291,4.2347,4.1373,4.1201,0.0,0.0,4.1201,4.1201,4.1201,4.1201,4.1201,4.1201,4.1201,4.1201,4.1201,4.1201,0.0,0.0,0.0,0.0,0.0,0.0,0.0,0.0,0.0,0.0,0.0,0.0,0.0,0.0,0.0,0.0,0.0,0.0,0.0,0.0,0.0,1.8912,1.8931,1.8903,1.8836,1.8827,1.934,2.0373,2.0497,2.1186,2.2449,2.2558,2.2701,2.2798,2.2558,2.2465,2.2408,2.2287,0.0,2.2194,2.2194,0.0,0.0,0.0,0.0,0.0,0.0,0.0,0.0,2.5499,2.5907,2.5907,2.5907,0.0,0.0,0.0,0.0,0.0,2.8536,2.9504,3.0387,3.05,3.0993,3.164,3.2258,0.0,0.0,0.0,0.0,0.0,0.0,0.0,0.0,0.0,0.0,3.6652,0.0,0.0,0.0,0.0,0.0,4.1755,4.2536,4.3048,4.3638,4.4369,4.4401,4.4401,4.4401,4.4401,4.4401,4.4401,4.4401,4.5015,4.6279,4.6307,4.6423,4.6635,4.6295,4.5074,4.3164,4.2802,4.2121,4.1201,0.0,4.1201,4.1201,4.1201,4.1201,4.1201,4.1201,4.1201,4.1201,4.1201,4.1201,4.1201,0.0,0.0,0.0,0.0,0.0,0.0,0.0,0.0,0.0,0.0,0.0,0.0,0.0,0.0,0.0,0.0,0.0,0.0,0.0,0.0,1.8456,1.8731,1.8664,1.8673,1.8692,1.874,1.9298,2.0436,2.0436,2.11,2.2408,2.2465,2.2523,2.2569,2.2535,2.2442,2.2275,2.2287,2.2263,2.2194,0.0,0.0,0.0,0.0,0.0,0.0,0.0,0.0,0.0,0.0,2.5907,2.5907,2.5907,0.0,0.0,0.0,0.0,0.0,2.8536,2.9588,3.0584,3.0965,3.1527,3.2061,3.2342,0.0,0.0,0.0,0.0,0.0,0.0,0.0,3.4431,3.5124,0.0,3.7504,3.8713,3.9163,3.9725,0.0,0.0,4.1868,4.2536,4.3132,4.375,4.4369,4.4401,4.4401,4.4401,4.4401,4.4401,4.4401,4.4401,4.4846,4.5749,4.6111,4.665,4.7312,4.6687,4.5502,4.3799,4.3192,4.2291,4.1201,0.0,4.1201,4.1201,4.1201,4.1201,4.1201,4.1201,4.1201,4.1201,4.1201,4.1201,4.1201,0.0,0.0,0.0,0.0,0.0,0.0,0.0,0.0,0.0,0.0,0.0,0.0,0.0,0.0,0.0,0.0,0.0,0.0,0.0,1.8105,1.8721,1.8692,1.8736,1.8717,1.8644,1.8785,1.9367,2.04,2.054,2.1153,2.224,2.2333,2.2431,2.2465,2.25,2.2419,2.224,2.231,2.2275,2.2194,0.0,0.0,0.0,0.0,0.0,0.0,0.0,0.0,0.0,0.0,0.0,0.0,0.0,0.0,0.0,2.6807,2.7411,2.7945,2.8689,2.9813,3.0865,3.1359,0.0,3.2455,3.2578,0.0,0.0,0.0,0.0,0.0,0.0,3.4151,0.0,3.6126,3.7195,3.8131,3.8797,3.9416,4.0034,4.0631,4.1362,4.2036,4.2565,4.3273,4.3891,4.4369,4.4401,4.4401,4.4401,4.4401,4.4401,4.4401,4.4401,4.4682,4.53,4.597,4.6841,4.7884,4.7151,4.6032,4.4589,4.3716,4.2519,4.1201,4.1201,4.1201,4.1201,4.1201,4.1201,4.1201,4.1201,4.1201,4.1201,4.1201,4.1201,4.1201,0.0,0.0,0.0,0.0,0.0,0.0,0.0,0.0,0.0,0.0,0.0,0.0,0.0,0.0,0.0,0.0,0.0,0.0,0.0,1.8436,1.8769,1.8702,1.9239,1.9208,1.8545,1.9069,1.9687,2.04,2.0956,2.1643,2.2408,2.2408,2.2477,2.2592,2.2321,2.2275,2.2396,2.2252,2.2194,2.2194,2.2194,0.0,0.0,0.0,0.0,0.0,0.0,0.0,0.0,0.0,0.0,0.0,0.0,0.0,2.6132,2.7355,2.7748,2.8058,2.9223,3.0459,3.1443,3.1488,3.1949,0.0,3.3111,3.328,0.0,0.0,0.0,0.0,0.0,3.5152,3.6183,3.6829,3.7484,3.8131,3.8797,0.0,4.0034,4.0631,4.1783,4.2565,4.2593,4.3638,4.4369,4.4401,4.4401,4.4401,4.4401,4.4401,4.4401,4.4401,4.4401,4.4682,4.53,4.597,4.6616,4.7291,4.7752,4.6792,4.4616,4.4535,4.3275,4.1201,4.1201,4.1201,4.1201,4.1201,4.1201,4.1201,4.1201,4.1201,4.1201,4.1201,4.1201,4.1201,0.0,0.0,0.0,0.0,0.0,0.0,0.0,0.0,0.0,0.0,0.0,1.6167,1.5426,0.0,0.0,0.0,0.0,0.0,0.0,1.8427,1.8731,1.8692,1.9198,1.9353,1.9059,1.9677,2.0136,2.04,2.1378,2.1992,2.2263,2.2263,2.2287,2.2333,2.224,2.2217,2.2263,2.2205,2.2194,2.2194,2.2194,2.2194,0.0,0.0,0.0,0.0,0.0,0.0,0.0,0.0,2.5907,2.5907,2.5907,2.616,2.6638,2.7524,2.8058,2.862,2.9826,3.0825,3.1583,3.1977,0.0,0.0,0.0,0.0,0.0,0.0,0.0,0.0,0.0,0.0,3.6408,3.74,3.8123,3.8741,3.936,3.9978,4.0435,4.0659,4.1812,4.2593,4.2593,4.3694,4.4401,4.4401,4.4401,4.4401,4.4401,4.4401,4.4401,4.4401,4.4401,4.4514,4.4738,4.5774,4.602,4.5543,4.6558,4.619,4.4589,4.3881,4.2687,4.1201,4.1201,4.1201,4.1201,4.1201,4.1201,4.1201,4.1201,4.1201,4.1201,4.1201,4.1201,4.1201,0.0,0.0,0.0,0.0,0.0,0.0,0.0,0.0,1.6766,0.0,0.0,0.0,0.0,1.5984,0.0,0.0,0.0,0.0,1.8132,1.8513,1.8673,1.8634,1.9335,1.9621,1.9414,2.0417,2.0861,2.0692,2.1715,2.2194,2.2194,2.2194,2.2194,2.2194,2.2194,2.2194,2.2194,2.2194,2.2194,2.2222,2.2407,2.2491,0.0,0.0,0.0,0.0,0.0,0.0,0.0,0.0,2.5907,2.5907,2.5907,2.6301,2.6947,2.7608,2.8226,2.897,3.0163,3.0993,3.164,0.0,0.0,0.0,0.0,0.0,0.0,0.0,0.0,0.0,0.0,0.0,0.0,0.0,3.846,3.9106,3.9725,4.0322,4.0688,4.0688,4.1812,4.2593,4.2593,4.3694,4.4401,4.4401,4.4401,4.4401,4.4401,4.4401,4.4401,4.4401,4.4401,4.4401,4.4401,4.5661,4.5884,4.5086,4.5959,4.5582,4.4045,4.3275,4.2291,4.1201,4.1201,4.1201,4.1201,4.1201,4.1201,4.1201,4.1201,4.1201,4.1201,4.1201,4.1201,4.1201,0.0,0.0,0.0,0.0,0.0,0.0,0.0,0.0,1.6492,1.6479,1.6084,0.0,0.0,0.0,0.0,0.0,0.0,0.0,1.8673,1.8692,1.8634,1.8508,1.9726,2.008,1.9442,2.1243,2.1912,2.1305,2.1912,2.2194,2.2194,2.2194,2.2194,2.2194,2.2194,2.2194,2.2194,2.2194,2.2194,2.2278,2.2857,2.3097,2.3194,0.0,0.0,0.0,0.0,0.0,0.0,0.0,2.5907,2.5907,2.5907,2.6329,2.6933,2.7608,2.8226,2.897,3.0191,3.0993,3.164,0.0,0.0,0.0,0.0,0.0,0.0,0.0,0.0,0.0,0.0,0.0,0.0,3.7821,3.846,3.9106,3.9725,4.0322,4.0688,4.0688,4.1812,4.2593,4.2593,4.3694,4.4401,4.4401,4.4401,4.4401,4.4401,4.4401,4.4401,4.4401,4.4401,4.4401,4.4401,4.5661,4.6279,4.6283,4.6372,4.5182,4.2914,4.2886,4.2291,4.1201,4.1201,4.1201,4.1201,4.1201,4.1201,4.1201,4.1201,4.1201,4.1201,4.1201,4.1201,4.1201,0.0,0.0,0.0,0.0,0.0,0.0,0.0,0.0,1.6392,1.5938,1.6354,0.0,0.0,0.0,0.0,0.0,0.0,0.0,1.8692,1.8605,1.8734,1.9115,1.9508,2.0024,2.072,2.1715,2.2109,2.194,2.2109,2.2194,2.2194,2.2194,2.2194,2.2194,2.2194,2.2194,2.2194,2.2194,2.2435,2.2857,2.3013,2.3391,2.3881,0.0,0.0,0.0,0.0,0.0,0.0,0.0,0.0,0.0,2.6413,2.6975,2.7636,2.8255,2.8858,2.9617,3.0853,3.1331,0.0,3.2774,0.0,0.0,0.0,0.0,0.0,0.0,0.0,0.0,0.0,0.0,0.0,3.8488,3.9135,3.9753,4.035,4.0575,4.0688,4.0688,4.1812,4.2593,4.2593,4.3694,4.4401,4.4401,4.4401,4.4401,4.4401,4.4401,4.4401,4.4401,4.4401,4.4401,4.4401,4.5188,4.5414,4.5036,4.5498,4.5128,4.4073,4.3275,4.2291,4.1201,4.1201,4.1201,4.1201,4.1201,4.1201,4.1201,4.1201,4.1201,4.1201,4.1201,4.1201,4.1201,0.0,0.0,0.0,0.0,0.0,0.0,1.6812,1.677,1.661,1.6216,1.666,1.6968,0.0,0.0,0.0,1.8227,1.8513,0.0,1.8615,1.8537,1.8779,1.9358,1.9649,2.0372,2.1642,2.1997,2.2194,2.2194,2.2194,2.2194,2.2194,2.2194,2.2194,2.2194,2.2194,2.2322,2.2547,2.2547,2.2913,2.3503,2.3756,2.4106,2.4528,0.0,0.0,0.0,0.0,0.0,0.0,0.0,0.0,0.0,2.661,2.7271,2.7917,2.8536,2.9307,3.0191,3.1218,3.1668,0.0,3.3055,3.3308,3.342,3.3944,0.0,0.0,0.0,0.0,0.0,0.0,0.0,0.0,3.8769,3.9416,4.0006,4.0603,4.0688,4.0688,4.0688,4.1587,4.2289,4.2565,4.3469,4.4144,4.4397,4.4401,4.4401,4.4401,4.4401,4.4401,4.4401,4.4401,4.4401,4.4401,4.4991,4.5267,4.5211,4.5816,4.5828,4.5262,4.3661,4.2519,4.1863,4.1402,4.1201,4.1201,4.1201,4.1201,4.1201,4.1201,4.1201,4.1201,4.1201,4.1201,4.1201,0.0,0.0,1.7118,1.7118,0.0,0.0,1.7107,1.7107,1.7075,1.7015,1.7026,1.7279,0.0,0.0,0.0,1.8655,1.8682,1.8624,1.8508,1.8554,1.8863,1.947,2.0193,2.1057,2.2109,2.2165,2.2194,2.2194,2.2194,2.2194,2.2194,2.2194,2.2194,2.2194,2.2278,2.2575,2.3097,2.3166,2.3559,2.4232,2.4781,2.5035,2.5134,2.5696,0.0,0.0,0.0,0.0,0.0,0.0,0.0,0.0,2.6694,2.734,2.8001,2.8592,2.9601,3.064,3.1331,0.0,0.0,3.314,3.3308,0.0,3.487,0.0,3.4488,0.0,0.0,3.6351,3.6914,3.754,3.8187,3.8797,3.9444,4.009,4.0603,4.0688,4.0688,4.0688,4.125,4.1868,4.2536,4.3132,4.375,4.4369,4.4401,4.4401,4.4401,4.4401,4.4401,4.4401,4.4401,4.4401,4.4401,4.4935,4.5581,4.6307,4.6869,4.6853,4.6321,4.41,4.2942,4.2715,4.1635,4.1201,4.1201,4.1201,4.1201,4.1201,4.1201,4.1201,4.1201,4.1201,4.1201,4.1201,0.0,0.0,1.7118,1.7118,0.0,0.0,1.7175,1.759,1.7752,1.7238,1.7781,1.8153,1.8009,1.8542,0.0,1.8721,1.8595,1.8527,1.8498,1.8947,1.9508,2.0165,2.1226,2.1715,2.1502,2.1969,2.2194,2.2194,2.2194,2.2194,2.2194,2.2194,2.2194,2.2222,2.2688,2.2985,2.3126,2.3656,2.4247,2.481,2.495,2.5274,2.5724,2.5851,2.5907,0.0,0.0,0.0,0.0,0.0,0.0,0.0,2.7383,2.8001,2.862,2.9223,2.9938,3.064,3.1331,3.1949,0.0,0.0,3.3308,3.354,3.4433,3.4812,3.5283,3.6379,3.6717,3.6857,3.697,3.7926,3.8713,3.8874,3.9809,4.0547,4.0688,4.0688,4.0688,4.0688,4.125,4.1868,4.2536,4.3132,4.375,4.4369,4.4401,4.4401,4.4401,4.4401,4.4401,4.4401,4.4401,4.4401,4.4401,4.4514,4.5183,4.6307,4.642,4.6462,4.6348,4.4913,4.3247,4.1549,4.1316,4.1201,4.1201,4.1201,4.1201,4.1201,4.1201,4.1201,4.1201,4.1201,4.1201,4.1201,0.0,0.0,0.0,0.0,0.0,0.0,0.0,0.0,1.7872,1.7806,1.8297,1.8588,1.835,1.8645,0.0,0.0,1.8537,1.861,1.8919,1.9217,1.9828,2.0776,2.1715,2.2053,2.1744,2.2053,2.2194,2.2194,2.2194,2.2194,2.2194,2.2194,2.2194,2.2222,2.2829,2.3278,2.3628,2.4247,2.4894,2.5443,2.5443,2.5612,2.5907,2.5907,2.5907,2.5907,2.5907,0.0,0.0,0.0,0.0,0.0,0.0,0.0,2.8802,2.942,3.0247,3.105,3.1403,0.0,0.0,3.3224,0.0,3.3568,3.4605,3.5019,3.5527,3.6745,3.6998,3.7082,3.7372,3.8235,3.8986,3.9275,4.0119,4.0688,4.0688,4.0688,4.0688,4.0688,4.0997,4.1559,4.2508,4.2902,4.3441,4.434,4.4401,4.4401,4.4401,4.4401,4.4401,4.4401,4.4401,4.4401,4.4401,4.4401,4.5043,4.6307,4.6307,4.6022,4.5502,4.4319,4.2855,4.1201,4.1201,4.1201,4.1201,4.1201,4.1201,4.1201,4.1201,4.1201,4.1201,4.1201,4.1201,4.1201,0.0,0.0,0.0,0.0,0.0,0.0,0.0,0.0,0.0,1.8467,1.8679,1.876,1.8702,1.8576,1.8498,0.0,0.0,0.0,1.9358,1.9621,2.0249,2.1406,2.194,2.2194,2.2194,2.2194,2.2194,2.2194,2.2194,2.2194,2.2194,2.2194,2.2278,2.2379,2.2997,2.3656,2.4288,2.4894,2.5443,2.5907,2.5907,2.5907,2.5907,2.5907,2.5907,2.5907,2.602,2.6048,2.616,2.6778,0.0,0.0,0.0,0.0,2.897,2.9588,3.0572,3.1516,3.1612,0.0,3.3308,3.3343,3.3326,0.0,3.4944,3.5226,3.5527,3.6745,3.6998,3.7167,3.7653,3.8376,3.905,3.9556,4.0238,4.0688,4.0688,4.0688,4.0688,4.0688,4.0688,4.1193,4.248,4.2593,4.3076,4.4312,4.4401,4.4401,4.4401,4.4401,4.4401,4.4401,4.4401,4.4401,4.4401,4.4401,4.4987,4.6139,4.594,4.5317,4.4291,4.3136,4.2093,4.1201,4.1201,4.1201,4.1201,4.1201,4.1201,4.1201,4.1201,4.1201,4.1201,4.1201,4.1201,4.1201,0.0,0.0,0.0,0.0,0.0,0.0,0.0,0.0,0.0,0.0,1.8798,1.8711,1.8692,1.8576,1.8498,1.8498,1.8965,1.9302,1.9386,0.0,0.0,2.2053,2.2165,2.2194,2.2194,2.2194,2.2194,2.2194,2.2194,2.2194,0.0,0.0,2.2491,2.3013,2.3684,2.4316,2.4922,2.5527,2.5837,2.5907,2.5907,2.5907,2.5907,2.5907,2.5907,2.5964,2.6497,2.668,2.6778,2.7439,2.8001,0.0,0.0,0.0,2.9601,3.0191,3.0909,3.1612,0.0,0.0,3.3343,0.0,3.3431,3.3652,0.0,0.0,3.5527,0.0,3.6998,3.7026,3.711,3.8094,3.893,3.8994,3.9978,4.0688,4.0688,4.0688,4.0688,4.0688,4.0688,4.1193,4.248,4.2593,4.3076,4.4312,4.4401,4.4401,4.4401,4.4401,4.4401,4.4401,4.4401,4.4401,4.4401,4.4401,4.4738,4.5416,4.4473,4.3722,4.3081,4.1952,4.1344,4.1201,4.1201,4.1201,4.1201,4.1201,4.1201,4.1201,4.1201,4.1201,4.1201,4.1201,4.1201,4.1201,0.0,0.0,0.0,0.0,0.0,0.0,0.0,0.0,0.0,0.0,0.0,1.8663,1.8595,1.8836,1.8993,1.8993,1.9593,2.0108,2.0428,2.1322,2.1912,2.2194,2.2194,2.2194,2.2194,2.2194,2.2194,2.2194,2.2194,0.0,0.0,2.2547,2.2857,0.0,0.0,2.4753,2.5035,2.564,2.5907,2.5907,2.5907,2.5907,2.5936,0.0,0.0,0.0,0.0,0.0,0.0,2.8086,2.8479,2.8745,2.9111,0.0,0.0,0.0,3.0977,3.1696,3.2634,3.3111,3.3326,0.0,3.3378,3.3635,3.4981,0.0,3.5527,3.6745,3.6998,3.711,3.7428,3.8263,3.8994,3.936,4.0147,4.0688,4.0688,4.0688,4.0688,4.0688,4.0688,4.1053,4.1952,4.2396,4.2958,4.3835,4.4228,4.4401,4.4401,4.4401,4.4401,4.4401,4.4401,4.4401,4.4401,4.4401,4.4902,4.5862,4.5046,4.4361,4.3801,4.2687,4.1806,4.1201,4.1201,4.1201,4.1201,4.1201,4.1201,4.1201,4.1201,4.1201,4.1201,4.1201,4.1201,4.1201,0.0,0.0,0.0,0.0,0.0,0.0,0.0,0.0,0.0,0.0,0.0,1.8915,1.8967,0.0,0.0,0.0,2.0259,2.0889,2.1502,2.194,2.2194,2.2194,2.2194,2.2194,2.2194,2.2194,2.2194,2.2194,0.0,0.0,2.2435,2.3053,2.3447,0.0,2.4572,2.5078,0.0,0.0,0.0,2.5907,2.5907,2.5992,2.6188,0.0,0.0,0.0,0.0,0.0,0.0,0.0,0.0,0.0,0.0,0.0,0.0,0.0,0.0,0.0,0.0,0.0,3.3308,3.3308,3.3308,3.3617,0.0,0.0,3.5527,0.0,3.6998,3.7139,3.7597,3.8347,3.905,3.95,4.021,4.0688,4.0688,4.0688,4.0688,4.0688,4.0688,4.094,4.1537,4.2205,4.2846,4.3441,4.4059,4.4401,4.4401,4.4401,4.4401,4.4401,4.4401,4.4401,4.4401,4.4401,4.49,4.5835,4.5068,4.4546,4.4127,4.2969,4.2008,4.1201,4.1201,4.1201,4.1201,4.1201,4.1201,4.1201,4.1201,4.1201,4.1201,4.1201,4.1201,4.1201,0.0,0.0,0.0,0.0,0.0,0.0,0.0,0.0,0.0,0.0,0.0,1.9593,2.0231,2.0316,2.0344,2.0344,2.0889,2.1502,2.2109,2.2194,2.2194,2.2194,2.2194,0.0,2.2194,2.2194,2.2194,0.0,0.0,0.0,2.3069,2.3741,2.4359,2.4909,2.4978,2.5331,2.5851,0.0,0.0,2.5907,2.5907,2.6245,2.6764,0.0,0.0,0.0,0.0,0.0,0.0,0.0,0.0,0.0,0.0,0.0,0.0,0.0,0.0,0.0,0.0,3.3308,0.0,3.3308,3.3308,0.0,0.0,0.0,3.5527,3.6745,3.6998,3.7026,3.7054,3.8066,3.893,3.8958,3.995,4.0688,4.0688,4.0688,4.0688,4.0688,4.0688,4.094,4.1537,4.2205,4.2846,4.3441,4.4059,4.4401,4.4401,4.4401,4.4401,4.4401,4.4401,4.4401,4.4401,4.4401,4.4462,4.4556,4.3462,4.2936,4.2942,4.1806,4.1258,4.1201,4.1201,4.1201,4.1201,4.1201,4.1201,4.1201,4.1201,4.1201,4.1201,4.1201,4.1201,4.1201,0.0,0.0,0.0,0.0,0.0,0.0,0.0,0.0,0.0,0.0,0.0,0.0,0.0,2.0748,2.0984,2.0984,2.1518,2.1969,2.2194,2.2194,2.2194,2.2194,2.2194,2.2194,2.2194,2.2194,2.2194,0.0,0.0,2.2885,2.3126,2.4191,2.4781,2.5035,2.5387,2.5696,2.5907,2.5907,0.0,0.0,2.6497,2.6863,0.0,0.0,0.0,0.0,0.0,0.0,0.0,0.0,0.0,0.0,0.0,0.0,0.0,0.0,0.0,0.0,0.0,0.0,0.0,3.3308,3.3308,3.3617,3.4908,3.5189,3.5527,3.6745,3.6998,3.6998,3.6998,3.7701,3.8404,3.8825,3.9584,4.0238,4.0659,4.0688,4.0688,4.0688,4.0688,4.0772,4.0997,4.198,4.2705,4.293,4.3835,4.4401,4.4401,4.4401,4.4401,4.4401,4.4401,4.4401,4.4401,4.4401,4.4801,4.5635,4.4457,4.394,4.3938,4.2827,4.1866,4.1201,4.1201,4.1201,4.1201,4.1201,4.1201,4.1201,4.1201,4.1201,4.1201,4.1201,4.1201,4.1201,0.0,0.0,0.0,2.0558,0.0,2.0502,2.0918,2.0809,2.0759,2.0944,0.0,0.0,0.0,0.0,2.1614,2.1614,2.1969,2.2194,2.2194,2.2194,2.2194,2.2194,2.2194,2.2194,2.2194,2.2194,2.2205,0.0,0.0,0.0,0.0,2.4513,2.5106,2.5331,2.5724,2.5907,0.0,0.0,0.0,2.6821,0.0,0.0,2.8142,0.0,0.0,0.0,0.0,0.0,0.0,0.0,0.0,0.0,0.0,0.0,0.0,0.0,0.0,0.0,3.3308,0.0,0.0,0.0,3.3308,3.3561,3.4636,3.5048,3.547,3.6492,3.6857,3.6998,3.6998,3.7316,3.7898,3.8741,3.9416,4.0006,4.0603,4.0688,4.0688,4.0688,4.0688,4.0688,4.0688,4.1643,4.2368,4.2593,4.3526,0.0,4.4397,4.4401,4.4401,4.4401,4.4401,4.4401,4.4401,4.4401,4.4931,4.5946,4.4577,4.4042,4.4248,4.2922,4.1895,4.1201,4.1201,4.1201,4.1201,4.1201,4.1201,4.1201,4.1201,4.1201,4.1201,4.1201,4.1201,4.1201,2.2907,2.249,2.2072,2.1704,2.1262,2.095,2.0969,2.0854,2.0927,2.1472,0.0,0.0,0.0,0.0,0.0,2.2194,2.2194,2.2194,2.2194,2.2194,2.2194,2.2194,2.2194,2.2194,2.2194,2.2222,2.228,2.2408,2.2917,2.3524,2.423,0.0,2.5331,2.5907,2.5907,2.5936,2.5964,0.0,2.6821,2.6919,0.0,2.817,2.8732,0.0,0.0,0.0,3.0303,3.0528,0.0,0.0,0.0,0.0,0.0,0.0,0.0,0.0,0.0,0.0,0.0,0.0,0.0,0.0,0.0,0.0,3.4048,3.4721,3.5358,3.5977,3.6576,3.6998,3.6998,3.6998,3.742,3.8677,3.9388,3.9978,4.0575,4.0688,4.0688,4.0688,4.0688,4.0688,4.0688,4.125,4.1896,4.2565,4.316,4.375,4.4369,4.4401,4.4401,4.4401,4.4401,4.4401,4.4401,4.4401,4.4682,4.5276,4.3604,4.3127,4.3648,4.1959,4.1201,4.1201,4.1201,4.1201,4.1201,4.1201,4.1201,4.1201,4.1201,4.1201,4.1201,4.1201,4.1201,4.1201,2.2903,2.2601,2.233,2.2335,2.2231,2.2159,2.2253,2.2156,2.2089,0.0,0.0,0.0,2.2194,2.2194,2.2194,2.2194,2.2194,2.2194,2.2194,2.2194,2.2194,2.2194,2.2194,2.2194,2.2194,2.2632,2.2869,2.2905,2.395,2.4597,2.4792,2.5372,2.5752,2.5907,2.6357,2.6554,2.6554,2.6736,0.0,0.0,2.8395,2.8877,0.0,0.0,0.0,0.0,0.0,3.1317,3.1246,0.0,3.178,3.223,0.0,0.0,0.0,0.0,0.0,0.0,3.3308,0.0,0.0,0.0,0.0,0.0,3.4048,3.4721,3.5358,3.5977,3.6576,3.6998,3.6998,3.6998,3.7251,3.8066,3.8713,3.936,3.9978,4.0407,4.0688,4.0688,4.0688,4.0688,4.0688,4.125,4.1896,0.0,4.316,4.375,4.4369,4.4401,4.4401,4.4401,4.4401,4.4401,4.4401,4.4401,4.4682,4.5276,4.3604,4.3127,4.3648,4.1959,4.1201,4.1201,4.1201,4.1201,4.1201,4.1201,4.1201,4.1201,4.1201,4.1201,4.1201,4.1201,4.1201,4.1201,2.3572,2.3342,2.308,2.2782,2.2724,2.2753,2.2836,2.2758,2.2666,0.0,0.0,0.0,2.2275,2.2217,2.2194,2.2194,2.2194,2.2194,2.2194,2.2194,2.2205,2.2263,2.2217,2.2358,2.2658,2.2937,2.3234,2.3577,2.4564,2.5085,2.5113,2.5693,2.6075,2.6301,2.6624,2.7116,0.0,0.0,0.0,0.0,2.9046,0.0,0.0,3.0614,3.091,0.0,0.0,0.0,3.1937,3.2258,3.2534,0.0,0.0,0.0,0.0,0.0,0.0,0.0,0.0,0.0,0.0,0.0,0.0,0.0,3.374,3.4552,3.5302,3.5639,3.6408,3.6998,3.6998,3.6998,3.7139,3.7456,3.8066,3.8797,3.9669,4.0322,4.0688,4.0688,4.0688,4.0688,4.0688,4.1025,4.1502,4.2121,4.2767,4.3497,4.4369,4.4401,4.4401,4.4401,4.4401,4.4401,4.4401,4.4401,4.4353,4.4235,4.3269,4.2735,4.2619,4.1636,4.1201,4.1201,4.1201,4.1201,4.1201,4.1201,4.1201,4.1201,4.1201,4.1201,4.1201,4.1201,4.1201,4.1201,0.0,2.4307,2.4005,2.3135,2.2978,2.2955,2.2888,2.2838,2.2798,0.0,2.2678,2.2535,2.2419,2.2263,2.2194,2.2205,2.2205,2.2233,2.233,2.2318,2.2393,2.2583,2.2477,2.2719,2.3364,2.3339,2.3637,2.4299,2.495,2.5303,2.5303,2.59,2.6411,2.6807,2.6961,2.7709,2.8887,0.0,0.0,2.8988,2.9662,3.0224,0.0,0.0,3.1273,0.0,3.2523,3.2664,3.2612,3.332,3.3448,0.0,0.0,0.0,0.0,0.0,3.3308,0.0,0.0,0.0,0.0,0.0,0.0,0.0,3.3308,3.4225,3.5105,3.5189,3.6117,3.6914,3.6998,3.6998,3.6998,3.6998,3.7512,3.8327,3.9528,4.021,4.0603,4.0688,4.0688,4.0688,4.0688,4.0688,4.094,4.1537,4.2289,4.3188,4.434,4.4401,4.4401,4.4401,4.4401,4.4401,4.4401,4.4401,4.3851,4.2792,4.2804,4.2238,4.1198,4.1204,4.1201,4.1201,4.1201,4.1201,4.1201,4.1201,4.1201,4.1201,4.1201,4.1201,4.1201,4.1201,4.1201,4.1201,2.439,2.4307,2.411,2.3566,2.3469,2.3304,2.2883,2.2821,2.2746,2.2649,2.2523,2.2442,2.2408,2.2263,2.2229,2.2333,2.2373,2.2571,2.3041,2.3097,2.3287,2.3762,2.3737,2.3794,2.396,2.4388,2.4749,2.4991,2.5495,2.5819,2.5941,2.644,2.6708,2.6863,2.7978,2.8586,2.8806,0.0,0.0,3.04,3.0545,0.0,3.1773,3.2302,3.2559,3.2708,3.3214,3.3314,3.314,0.0,3.3326,3.3308,0.0,0.0,0.0,0.0,0.0,0.0,0.0,0.0,0.0,0.0,0.0,0.0,3.3308,3.387,3.4562,3.5077,3.578,3.6408,3.6914,3.6998,3.6998,3.6998,3.7512,3.8159,3.8966,3.9613,4.0175,4.0631,4.0688,4.0688,4.0688,4.0688,4.094,4.1537,4.2683,4.3638,4.4369,4.4401,4.4401,4.4401,4.4401,4.4401,4.4401,4.4401,4.3851,4.2792,4.2804,4.2238,4.1198,4.1204,4.1201,4.1201,4.1201,4.1201,4.1201,4.1201,4.1201,4.1201,4.1201,4.1201,4.1201,4.1201,4.1201,4.1201,2.4369,2.4099,2.3803,2.3326,2.3238,2.3168,2.2894,2.2803,2.2781,2.2752,2.2907,2.305,2.305,0.0,2.3368,2.344,2.344,2.3558,2.3769,2.3847,2.4001,2.4292,2.4308,2.4475,2.4851,2.5087,2.5386,2.5764,2.6307,2.6578,2.6551,2.7131,2.7568,2.7893,2.8589,2.9242,0.0,0.0,3.1285,3.1809,3.1512,0.0,3.2499,3.2896,3.3178,3.3454,3.3722,3.3767,3.3681,3.3623,3.3536,0.0,0.0,3.3378,3.3308,0.0,3.3308,3.3308,0.0,0.0,0.0,3.3308,0.0,0.0,0.0,3.3768,3.4403,3.5077,3.5667,3.6267,3.6885,3.6998,3.6998,3.6998,3.7251,3.7653,3.8319,3.9219,3.9922,4.021,4.0519,4.0688,4.0688,4.0688,4.094,4.1537,4.2486,4.3301,4.3919,4.4256,4.4401,4.4401,4.4401,4.4401,4.4401,4.3875,4.306,4.1987,4.2009,4.1441,4.0409,4.0975,4.1201,4.1201,4.1201,4.1201,4.1201,4.1201,4.1201,4.1201,4.1201,4.1201,4.1201,4.1201,4.1201,4.1201,2.4245,2.3867,2.3458,2.2978,2.2888,2.2888,2.2888,2.2947,2.308,2.3264,2.3629,2.3887,0.0,0.0,0.0,0.0,2.4665,2.4686,2.4701,2.4817,2.4932,2.5023,2.5051,2.5376,2.6085,2.5967,2.6157,2.6684,2.7142,2.7328,2.723,2.7867,2.8448,2.8917,0.0,0.0,0.0,0.0,0.0,3.2932,0.0,3.2704,3.3133,3.3329,3.3611,3.3951,3.4025,3.4059,3.4025,3.3882,0.0,3.3588,3.3553,3.3431,0.0,0.0,0.0,0.0,0.0,0.0,0.0,0.0,0.0,3.3308,0.0,0.0,0.0,3.5077,3.5667,0.0,0.0,0.0,0.0,0.0,0.0,0.0,0.0,3.8657,0.0,3.9781,4.0322,4.0688,4.0688,4.0688,4.094,4.1537,4.2205,4.2874,4.3469,4.4088,4.4401,4.4401,4.4401,4.4401,4.4401,4.3348,4.2282,4.1221,4.1201,4.0631,3.9657,4.0691,4.1201,4.1201,4.1201,4.1201,4.1201,4.1201,4.1201,4.1201,4.1201,4.1201,4.1201,4.1201,4.1201,4.1201,2.3782,2.3642,2.3458,2.2978,2.2888,2.2888,2.2888,2.3403,2.3995,2.4588,2.4623,0.0,0.0,0.0,0.0,0.0,0.0,0.0,2.6118,0.0,2.6427,2.6966,2.6967,2.7282,2.7897,2.7769,2.7798,2.7983,2.7824,2.7794,2.7895,2.8505,2.8831,0.0,3.0401,0.0,0.0,0.0,3.3046,0.0,3.3674,3.3904,0.0,3.3979,3.4036,3.4059,3.3968,3.3917,3.3882,0.0,3.3623,3.357,0.0,3.3326,3.3308,0.0,0.0,0.0,0.0,0.0,0.0,0.0,3.3308,0.0,0.0,0.0,3.4403,3.5077,0.0,0.0,0.0,0.0,0.0,0.0,0.0,0.0,3.6351,3.7363,3.8524,3.9669,4.0322,4.0688,4.0688,4.0688,4.094,4.1537,4.2205,4.2874,4.3469,4.4088,4.4401,4.4401,4.4401,4.4401,4.4401,4.3348,4.2282,4.1221,4.1201,4.0631,3.9657,4.0691,4.1201,4.1201,4.1201,4.1201,4.1201,4.1201,4.1201,4.1201,4.1201,4.1201,4.1201,4.1201,4.1201,4.1201,2.4141,2.3792,2.3458,2.2978,2.3457,2.3793,2.3508,2.4024,2.4546,2.4861,2.5479,0.0,0.0,0.0,0.0,0.0,0.0,2.741,0.0,0.0,0.0,2.7994,2.8079,2.8222,2.8468,2.8312,2.8254,2.8312,2.8467,2.8592,2.8651,2.9292,2.9776,0.0,3.0966,0.0,3.2201,0.0,3.3508,0.0,0.0,0.0,0.0,3.4264,3.4264,3.4264,3.4225,3.4191,3.4191,0.0,3.3934,0.0,0.0,0.0,0.0,0.0,0.0,0.0,0.0,0.0,0.0,0.0,0.0,0.0,3.3824,0.0,3.4974,0.0,0.0,0.0,0.0,0.0,0.0,0.0,3.6829,0.0,0.0,0.0,3.8243,0.0,0.0,0.0,4.0659,4.0688,4.08,4.1053,4.2008,4.2705,4.2958,4.3891,4.4401,4.4401,4.3804,4.3467,4.3467,4.1789,4.0717,4.0262,4.0273,4.0053,3.9657,4.0691,4.1201,4.1201,4.1201,4.1201,4.1201,4.1201,4.1201,4.1201,4.1201,4.1201,4.1201,4.1201,4.1201,4.1201,2.5186,2.4634,2.4012,2.3308,2.412,2.4754,2.4468,2.4953,2.5479,2.5854,0.0,0.0,2.754,2.8374,0.0,0.0,0.0,2.926,0.0,0.0,2.9047,0.0,0.0,0.0,2.9232,2.9016,2.8915,2.8915,2.9168,2.9423,2.9668,3.0078,3.068,3.1375,0.0,3.2294,3.3106,0.0,0.0,3.4179,3.4332,3.4382,3.4382,3.4382,3.4382,3.4382,3.4382,3.4382,3.4382,3.4332,3.4174,0.0,3.3899,0.0,0.0,0.0,0.0,0.0,3.3757,0.0,0.0,0.0,0.0,0.0,0.0,0.0,0.0,0.0,0.0,0.0,0.0,0.0,0.0,0.0,0.0,3.6942,0.0,3.7279,0.0,0.0,0.0,0.0,0.0,4.0688,4.0688,4.0688,4.1699,4.2424,4.2593,4.3301,4.3948,4.4373,4.3084,4.2501,4.2792,4.0667,3.9597,3.9596,3.9599,3.9609,3.9657,4.0691,4.1201,4.1201,4.1201,4.1201,4.1201,4.1201,4.1201,4.1201,4.1201,4.1201,4.1201,4.1201,4.1201,4.1201,2.7031,2.6419,2.5497,2.41,2.4805,2.5622,2.5733,2.6313,2.7176,0.0,0.0,0.0,0.0,0.0,0.0,0.0,0.0,3.0886,3.0281,0.0,3.0045,0.0,0.0,2.9856,0.0,3.0344,3.0253,3.0253,2.9934,3.0229,3.1044,3.0854,3.1292,3.2288,3.2877,3.3264,3.3516,3.4138,3.4382,3.4382,3.4382,3.4382,3.4382,0.0,3.4382,3.4382,3.4382,0.0,0.0,3.4179,3.4094,0.0,0.0,0.0,0.0,0.0,0.0,0.0,0.0,0.0,0.0,3.5133,0.0,0.0,0.0,0.0,3.6089,0.0,0.0,0.0,0.0,0.0,0.0,0.0,0.0,0.0,0.0,0.0,0.0,0.0,0.0,0.0,0.0,4.0688,4.0688,0.0,4.1278,4.1924,4.2565,4.2209,4.272,4.435,4.233,4.1766,4.2792,4.0667,3.9597,3.9596,3.9599,3.9609,3.9657,4.0691,4.1201,4.1201,4.1201,4.1201,4.1201,4.1201,4.1201,4.1201,4.1201,4.1201,4.1201,4.1201,4.1201,4.1201,2.7158,2.7519,2.7274,2.5373,0.0,2.6529,2.7501,2.8218,0.0,0.0,0.0,0.0,0.0,0.0,3.2397,0.0,0.0,3.3291,3.3082,3.2643,0.0,0.0,0.0,3.1626,0.0,3.1704,3.1609,3.1609,3.1514,3.155,3.1686,3.1859,3.2191,3.2712,0.0,3.3587,0.0,0.0,0.0,0.0,0.0,3.4661,3.4997,0.0,3.4382,3.4441,3.491,3.5055,0.0,3.5444,3.5454,3.5349,3.5306,3.5182,3.5096,3.5296,3.5208,0.0,0.0,0.0,3.5189,3.5189,0.0,0.0,0.0,0.0,0.0,0.0,0.0,0.0,0.0,0.0,0.0,0.0,0.0,0.0,0.0,0.0,0.0,0.0,0.0,0.0,0.0,0.0,0.0,0.0,4.0321,0.0,4.0559,4.0792,4.1327,4.2257,4.0894,4.0338,4.0667,3.9261,3.853,3.8554,3.9271,3.9609,3.9657,4.0691,4.1201,4.1201,4.1201,4.1201,4.1201,4.1201,4.1201,4.1201,4.1201,4.1201,4.1201,4.1201,4.1201,4.1201,2.8468,2.8906,2.8564,2.6347,0.0,2.7695,2.9048,0.0,0.0,0.0,3.1845,0.0,3.3446,0.0,3.4308,0.0,3.5035,3.4964,3.4485,3.4043,0.0,3.3146,3.2722,0.0,0.0,0.0,3.2368,3.2368,3.232,3.2387,3.2524,3.2605,3.2918,3.3439,0.0,3.3905,3.4213,0.0,3.4382,0.0,0.0,3.4806,0.0,0.0,3.4893,3.5108,0.0,3.5723,3.5781,3.617,3.6226,3.609,3.609,3.6011,3.5923,3.6153,3.6082,3.5973,3.6201,3.608,0.0,3.5949,3.6183,0.0,3.6408,0.0,0.0,0.0,0.0,0.0,0.0,0.0,0.0,0.0,0.0,0.0,0.0,3.5756,0.0,0.0,0.0,0.0,0.0,0.0,0.0,0.0,0.0,0.0,0.0,3.9497,4.0016,4.1168,3.9777,3.9208,3.9597,3.853,3.8,3.8024,3.908,3.9609,3.9657,4.0691,4.1201,4.1201,4.1201,4.1201,4.1201,4.1201,4.1201,4.1201,4.1201,4.1201,4.1201,4.1201,4.1201,4.1201,3.0851,3.0535,2.9469,0.0,2.7964,0.0,0.0,0.0,3.1995,0.0,3.3498,3.4045,3.5328,3.5492,3.5524,3.5556,3.6071,0.0,3.4667,3.4565,0.0,0.0,3.2648,3.2616,3.2584,0.0,0.0,0.0,0.0,3.2789,3.3529,3.3152,3.3485,3.4366,3.4196,0.0,3.4382,3.4382,3.4412,3.4441,3.4441,3.4864,3.5479,3.5479,3.5868,3.6402,3.6373,3.6344,3.6356,3.6385,3.6402,3.6402,3.6402,3.6259,3.6248,3.6882,3.6907,3.6853,3.7434,3.7452,3.7269,3.7269,3.7134,0.0,0.0,0.0,3.6998,0.0,0.0,0.0,0.0,0.0,0.0,0.0,0.0,0.0,0.0,0.0,0.0,0.0,0.0,0.0,0.0,0.0,0.0,0.0,0.0,0.0,0.0,3.8382,3.8816,4.0968,3.9078,3.8477,3.9494,3.8504,3.8,3.8024,3.908,3.9609,3.9657,4.0691,4.1201,4.1201,4.1201,4.1201,4.1201,4.1201,4.1201,4.1201,4.1201,4.1201,4.1201,4.1201,4.1201,4.1201,3.1692,3.127,3.1183,0.0,3.1365,3.1094,0.0,0.0,0.0,0.0,3.5548,3.5874,3.6718,3.6796,3.7021,3.7583,3.7773,0.0,0.0,0.0,0.0,3.5413,3.4923,3.442,3.3935,3.3918,0.0,3.3918,0.0,0.0,3.3965,3.3999,3.4086,3.4179,0.0,0.0,3.4382,3.4382,3.469,3.5142,3.5142,3.581,3.6809,0.0,3.7186,3.7651,3.7215,3.7023,3.7128,3.7564,3.7709,3.7709,3.7709,3.7672,3.7664,3.7837,3.7633,3.7406,3.7548,3.7327,3.7076,3.7076,3.7037,3.6998,0.0,0.0,0.0,0.0,0.0,0.0,0.0,0.0,0.0,0.0,0.0,0.0,0.0,0.0,0.0,3.3623,0.0,0.0,0.0,0.0,0.0,0.0,0.0,0.0,0.0,0.0,3.7406,3.8793,3.8291,3.8133,3.8423,3.8133,3.8,3.8024,3.908,3.9609,3.9657,4.0691,4.1201,4.1201,4.1201,4.1201,4.1201,4.1201,4.1201,4.1201,4.1201,4.1201,4.1201,4.1201,4.1201,4.1201,3.2805,3.3198,0.0,3.4859,0.0,0.0,3.4486,3.4915,0.0,3.6605,3.6743,0.0,3.7681,3.7778,3.7954,3.8375,3.8408,0.0,3.799,0.0,0.0,3.643,3.604,3.5643,3.5286,3.4988,0.0,3.4839,0.0,0.0,3.423,3.4332,3.4332,3.423,0.0,3.4382,3.4412,3.4719,3.5055,3.5421,3.5694,3.6402,0.0,3.7302,3.768,3.8173,3.7825,3.7709,3.7767,3.8086,3.8202,3.8202,3.8202,3.8202,3.8202,3.8202,3.8033,3.7825,3.7758,3.751,3.7231,3.7134,3.7056,3.6998,3.6998,3.6998,3.6998,0.0,3.6998,3.6998,0.0,0.0,0.0,0.0,0.0,0.0,0.0,0.0,0.0,0.0,0.0,0.0,0.0,0.0,0.0,0.0,0.0,0.0,0.0,0.0,3.6892,3.7976,3.8,3.8,3.8,3.8,3.8,3.8024,3.908,3.9609,3.9657,4.0691,4.1201,4.1201,4.1201,4.1201,4.1201,4.1201,4.1201,4.1201,4.1201,4.1201,4.1201,4.1201,4.1201,4.1201,3.4165,0.0,0.0,0.0,0.0,0.0,0.0,3.6484,0.0,3.7358,0.0,3.7681,3.8343,3.8408,3.8408,3.8408,0.0,3.8148,3.7565,3.7535,3.7222,3.6554,3.6523,3.6446,3.6275,3.5691,0.0,0.0,0.0,0.0,3.4382,3.4382,3.4382,3.4382,0.0,0.0,0.0,3.5142,3.5508,3.5712,3.6228,3.6838,3.7418,3.7418,3.7738,3.8202,3.8202,3.8202,3.8202,3.8202,3.8202,3.8202,3.8202,3.8202,3.8202,3.8202,3.8241,3.8272,3.8064,3.7911,3.7785,3.7583,3.7388,3.7251,3.7251,3.7251,3.7251,3.7251,3.7251,3.7251,0.0,0.0,0.0,0.0,0.0,0.0,0.0,0.0,0.0,0.0,0.0,0.0,0.0,0.0,0.0,0.0,0.0,0.0,0.0,0.0,3.6892,3.7976,3.8,3.8,3.8,3.8,3.8,3.8024,3.908,3.9609,3.9657,4.0691,4.1201,4.1201,4.1201,4.1201,4.1201,4.1201,4.1201,4.1201,4.1201,4.1201,4.1201,4.1201,4.1201,4.1201,0.0,0.0,0.0,0.0,0.0,3.7325,3.7954,3.7519,3.739,3.8116,3.8213,3.8246,3.8375,3.8408,3.8408,3.8408,3.8408,0.0,0.0,0.0,0.0,3.7237,3.7207,3.6707,3.5609,3.5464,3.5123,0.0,0.0,0.0,3.4382,3.4382,3.4382,0.0,0.0,0.0,3.5229,3.5363,0.0,3.6983,3.7099,3.7506,3.8057,3.8057,3.8115,3.8202,3.8202,3.8202,3.8202,3.8202,3.8202,3.8202,3.8202,3.8202,3.8202,3.8202,3.8466,3.8765,3.8726,3.8835,3.8916,3.8875,3.8734,3.8564,3.8564,3.8564,3.8564,3.8564,3.8564,3.8564,3.8564,0.0,0.0,0.0,0.0,0.0,0.0,0.0,0.0,0.0,0.0,0.0,0.0,0.0,0.0,0.0,0.0,0.0,0.0,0.0,3.6892,0.0,3.8,3.8,0.0,0.0,3.8,3.8024,3.908,3.9609,3.9657,4.0691,4.1201,4.1201,4.1201,4.1201,4.1201,4.1201,4.1201,4.1201,4.1201,4.1201,4.1201,4.1201,4.1201,4.1201,0.0,0.0,0.0,0.0,0.0,0.0,0.0,3.8182,3.8089,3.8343,3.8408,3.8408,3.8408,3.8732,3.8973,3.8973,3.9282,3.9476,3.9476,3.9476,3.9184,3.8506,3.8149,0.0,3.6461,3.5769,3.5237,3.4922,0.0,0.0,3.4382,3.4382,0.0,3.4412,0.0,3.5084,0.0,0.0,0.0,3.7331,3.7651,3.7941,3.8202,3.8202,3.8202,3.826,3.858,3.8725,3.8667,3.8318,3.8434,3.8725,3.8725,3.8928,3.9189,3.9189,3.9363,3.9497,3.9409,3.9441,3.949,3.9389,3.9207,3.9045,3.9045,3.8963,3.8902,3.8902,3.8902,3.8902,3.8902,3.8525,0.0,0.0,0.0,0.0,0.0,0.0,0.0,0.0,0.0,0.0,0.0,0.0,0.0,0.0,0.0,0.0,0.0,0.0,3.6892,0.0,0.0,0.0,3.8,0.0,3.8,3.8024,3.908,3.9609,3.9657,4.0691,4.1201,4.1201,4.1201,4.1201,4.1201,4.1201,4.1201,4.1201,4.1201,4.1201,4.1201,4.1201,4.1201,4.1201,0.0,3.807,0.0,0.0,3.8628,0.0,3.8628,3.8763,3.8725,3.8422,3.8537,3.8634,3.8634,3.9296,3.9718,3.9718,4.0204,4.0495,4.0495,4.0495,4.0254,3.9718,3.9213,3.8595,3.7859,3.6642,3.5982,0.0,0.0,0.0,0.0,0.0,0.0,0.0,0.0,0.0,0.0,0.0,3.7371,3.7535,3.7999,3.8202,3.8231,3.8347,3.8405,3.8492,3.916,3.9392,3.9305,3.8783,3.8957,3.9392,3.9392,3.9712,4.0089,4.0089,4.0205,4.0282,4.0103,4.0118,4.0084,3.9942,3.9707,3.9502,3.9502,3.9399,3.9275,3.9275,3.9275,3.9275,3.9275,3.9275,0.0,0.0,0.0,0.0,0.0,0.0,0.0,0.0,0.0,0.0,0.0,0.0,0.0,0.0,0.0,0.0,3.6362,0.0,0.0,0.0,0.0,3.8,3.8,0.0,3.8072,3.8166,3.9152,3.9657,3.9801,4.0739,4.1201,4.1201,4.1201,4.1201,4.1201,4.1201,4.1201,4.1201,4.1201,4.1201,4.1201,4.1201,4.1201,4.1201,0.0,0.0,0.0,0.0,0.0,0.0,3.8794,3.9238,3.9325,3.8519,3.8973,3.9394,3.9394,4.0009,4.0398,4.0398,4.0463,4.0495,4.0495,4.0495,4.0463,4.043,4.0338,4.0006,3.9312,3.8538,3.7836,0.0,0.0,3.5305,0.0,0.0,0.0,0.0,0.0,0.0,0.0,3.7244,3.7622,3.8115,3.8173,3.8202,3.826,3.887,3.9102,3.9189,3.9799,4.0031,4.0002,3.9944,3.9973,4.0031,4.0031,4.006,4.0089,4.0089,4.0525,4.0989,4.0998,4.1097,4.1245,4.1224,4.0908,4.0562,4.0562,4.054,4.0519,4.0519,4.0519,4.0519,4.0519,4.0519,4.0519,0.0,0.0,0.0,0.0,0.0,0.0,0.0,0.0,0.0,0.0,3.5356,0.0,0.0,3.5256,0.0,0.0,0.0,0.0,3.8,3.8,3.8,3.8,3.8,3.8238,3.8716,3.932,3.985,4.0331,4.0932,4.1201,4.1201,4.1201,4.1201,4.1201,4.1201,4.1201,4.1201,4.1201,4.1201,4.1201,4.1201,4.1201,4.1201,0.0,0.0,0.0,0.0,0.0,0.0,0.0,4.0151,4.0459,4.0022,4.0029,4.0106,4.0106,4.0722,4.1143,4.1143,4.1517,4.176,4.176,4.176,4.1581,4.1175,4.076,4.0243,3.9518,3.8821,3.8333,0.0,0.0,0.0,0.0,0.0,0.0,0.0,0.0,3.7041,3.7331,3.768,3.797,3.8231,3.8638,3.8812,3.887,3.9509,3.9741,3.9828,4.0466,4.0699,4.0757,4.1163,4.1018,4.0699,4.0699,4.0989,4.1308,4.1308,4.1482,4.1686,4.1686,4.1765,4.1773,4.1598,4.1346,4.11,4.0923,4.0795,4.0688,4.0688,4.0688,4.0688,4.0688,4.0688,4.0688,4.0688,0.0,0.0,0.0,0.0,0.0,0.0,0.0,0.0,0.0,0.0,0.0,0.0,0.0,0.0,0.0,0.0,0.0,3.8,0.0,3.8,3.8,3.8,3.8262,3.8788,3.9345,3.9874,4.0403,4.096,4.1201,4.1201,4.1201,4.1201,4.1201,4.1201,4.1201,4.1201,4.1201,4.1201,4.1201,4.1201,4.1201,4.1201,3.8972,0.0,3.9314,0.0,4.0018,4.0465,4.0465,4.1078,4.1482,4.1399,4.1312,4.1166,4.0911,4.1482,4.1873,4.1873,4.2343,4.2586,4.2586,4.2586,4.2408,4.1921,4.1436,0.0,4.0434,3.972,3.9379,3.9379,3.8247,0.0,0.0,0.0,0.0,0.0,3.759,3.7784,3.7622,3.8231,3.8492,3.8551,3.9189,3.945,3.9538,4.0147,4.0379,4.0466,4.1163,4.1395,4.1453,4.1947,4.1773,4.1395,4.1395,4.1715,4.2092,4.2092,4.2092,4.2092,4.2092,4.2051,4.1918,4.166,4.1451,4.122,4.0986,4.0816,4.0688,4.0688,4.0688,4.0688,4.0688,4.0688,4.0688,4.0688,0.0,0.0,0.0,0.0,0.0,0.0,3.708,3.6025,3.5307,3.5114,0.0,0.0,0.0,0.0,0.0,0.0,0.0,0.0,0.0,0.0,3.8,3.8,3.8334,3.9029,3.9417,3.997,4.0643,4.1033,4.1201,4.1201,4.1201,4.1201,4.1201,4.1201,4.1201,4.1201,4.1201,4.1201,4.1201,4.1201,4.1201,4.1201,3.9269,3.9865,4.0395,4.0395,4.0945,4.1394,4.1394,4.188,4.2287,4.2272,4.273,4.2742,4.189,4.2274,4.2586,4.2586,4.2586,4.2586,4.2586,4.2586,4.2586,0.0,0.0,4.2571,4.2571,4.1852,4.1461,4.1461,0.0,0.0,3.8385,0.0,3.8367,3.8415,3.902,3.8866,3.8231,3.8899,3.9189,3.9247,3.9857,4.0089,4.0147,4.0815,4.1076,4.1163,4.1831,4.2092,4.2092,4.2092,4.2092,4.2092,4.2092,4.2092,4.2092,4.2092,4.2092,4.2092,4.2092,4.1897,4.166,4.1459,4.1198,4.0937,4.0752,4.0688,4.0688,4.0688,4.0688,4.0688,4.0688,4.0688,4.0688,4.0688,0.0,0.0,0.0,0.0,0.0,0.0,3.7494,3.6284,3.626,3.5868,0.0,0.0,0.0,0.0,0.0,0.0,0.0,3.8,3.8,0.0,3.8,3.8,3.8554,3.9609,3.9609,4.0162,4.1201,4.1201,4.1201,4.1201,4.1201,4.1201,4.1201,4.1201,4.1201,4.1201,4.1201,4.1201,4.1201,4.1201,4.1201,4.1201,4.0746,4.0912,4.1077,4.1077,4.1659,4.2156,4.2156,4.2741,4.3208,4.3208,4.3133,4.2984,4.2709,4.2752,4.276,0.0,4.2586,4.2586,0.0,4.2586,4.2586,4.2586,4.2586,4.2586,4.2586,4.2381,4.227,4.227,0.0,0.0,0.0,3.9239,3.9008,3.9002,3.9169,3.9098,3.8928,3.9538,3.9799,3.9857,4.0525,4.0786,4.0844,4.1512,4.1773,4.1802,4.2005,4.2092,4.2092,4.2092,4.2092,4.2092,4.2092,4.2092,4.2092,4.2092,4.2092,4.2092,4.2092,4.2051,4.1877,4.1501,4.1354,4.1156,4.0773,4.0688,4.0688,4.0688,4.0688,4.0688,4.0688,4.0688,4.0688,4.0688,4.0688,0.0,0.0,0.0,0.0,0.0,3.7103,3.6149,3.5844,3.5694,0.0,0.0,0.0,0.0,0.0,0.0,0.0,0.0,3.8,0.0,3.8,3.8359,3.8912,3.9609,3.997,4.0499,4.1201,4.1201,4.1201,4.1201,4.1201,4.1201,4.1201,4.1201,4.1201,4.1201,4.1201,4.1201,4.1201,4.1201,4.1201,4.1201,4.1394,4.1626,4.1825,4.1825,4.2421,4.2918,4.2918,4.33,4.3598,4.3598,4.3434,4.3235,4.3113,4.3021,0.0,4.2602,4.2586,4.2586,4.2586,4.2586,4.2586,4.2586,4.2586,4.2586,4.2586,4.2586,0.0,4.2586,4.1867,4.1252,4.0764,4.0307,4.0052,4.0013,3.9974,3.9798,3.9567,4.0205,4.0466,4.0525,4.1221,4.1482,4.1512,4.1947,4.2092,4.2092,4.2092,4.2092,4.2092,4.2092,4.2092,4.215,4.2353,4.244,4.2382,4.2179,4.2092,4.2092,4.2092,4.2092,4.2067,4.1943,4.1802,4.1668,4.1471,4.1418,4.1334,4.1081,4.1053,4.0969,4.0744,4.0688,4.0688,4.0688,4.0688,4.0688,4.0688,0.0,0.0,0.0,0.0,0.0,0.0,3.63,3.6338,0.0,0.0,0.0,0.0,0.0,3.8,3.8,3.8,3.8,3.8,3.8527,3.9053,3.9609,4.0331,4.0888,4.1201,4.1201,4.1201,4.1201,4.1201,4.1201,4.1201,4.1201,4.1201,4.1201,4.1201,4.1201,4.1201,4.1201,4.1201,4.1201,4.156,4.2123,4.2587,4.2587,4.3135,4.3598,4.3598,4.3598,4.3598,4.3598,4.3598,4.3479,4.3209,4.3163,4.3057,4.278,0.0,0.0,4.2748,4.2748,4.2748,4.2748,4.2748,4.2748,4.2748,4.2748,4.2748,4.2748,4.1995,4.1613,4.1555,4.1449,4.1322,4.1208,4.1211,4.08,4.0205,4.0873,4.1163,4.1221,4.1831,4.2092,4.2092,4.2092,4.2092,4.2092,4.2092,4.2121,4.215,4.215,4.2179,4.2324,4.2876,4.305,4.2984,4.2382,4.2237,4.2237,4.2237,4.2237,4.2312,4.2659,4.2568,4.2408,4.2564,4.2615,4.2424,4.1812,4.1671,4.1502,4.094,4.0828,4.0828,4.0828,4.0828,4.0828,4.0828,0.0,0.0,0.0,0.0,0.0,3.7989,3.7482,3.7204,0.0,0.0,0.0,0.0,0.0,3.8,3.8,3.8,3.8,3.8,3.8575,3.9125,3.9729,4.0715,4.1201,4.1201,4.1201,4.1201,4.1201,4.1201,4.1201,4.1201,4.1201,4.1201,4.1201,4.1201,4.1201,4.1201,4.1201,4.1201,4.1201,0.0,0.0,4.3348,4.3348,4.3466,4.3598,4.3598,4.3598,4.3598,4.3598,4.3524,4.3571,4.3882,4.3855,4.3926,4.4253,4.3767,4.367,4.4237,4.4269,4.4269,4.4269,4.4269,4.4269,4.4269,4.4269,4.4269,4.4269,4.3491,4.3094,4.3043,4.1803,4.1228,4.12,4.1136,4.1024,4.0902,4.157,4.186,4.1889,4.2034,4.2092,4.2092,4.2092,4.2092,4.2092,4.2092,4.2382,4.2789,4.2789,4.3137,4.3573,4.3718,4.3747,4.3739,4.3573,4.3544,4.3544,4.3544,4.3544,4.353,4.343,4.322,4.3015,4.2871,4.2832,4.2737,4.2418,4.2345,4.234,4.2199,4.2143,4.2143,4.2143,4.2143,4.2143,4.2143,4.0781,3.9744,0.0,3.8057,3.7043,3.7351,3.7263,3.7348,0.0,0.0,3.8,3.8,3.8,3.8,3.8,3.8,3.8,3.8,3.8936,3.9898,4.0812,4.1105,4.1201,4.1201,4.1201,4.1201,4.1201,4.1201,4.1201,4.1201,4.1201,4.1201,4.1201,4.1201,4.1201,4.1201,4.1201,4.1201,4.1201,4.3598,4.3598,4.3598,4.3598,4.3598,4.3598,4.3598,4.3598,4.3598,4.3598,4.3818,4.4045,4.4192,4.4442,4.4772,4.5209,4.4625,4.4366,4.4755,4.4804,4.4804,4.4804,4.4804,4.4804,4.4804,4.4804,4.4804,4.4804,4.4001,4.3556,4.3483,4.2615,4.1989,4.1627,4.1961,4.1897,4.157,4.1947,4.2092,4.2092,4.2092,4.2092,4.2121,4.2411,4.2498,4.2557,4.2847,4.3166,4.3478,4.3478,4.3689,4.4059,4.4298,4.4414,4.4472,4.4763,4.4465,4.3979,4.3979,4.3979,4.3994,4.4065,4.4081,4.4065,4.3817,4.3658,4.3488,4.3093,4.3014,4.293,4.2649,4.2593,4.2593,4.2593,4.2593,4.2593,4.2593,4.1636,4.102,4.1291,3.9474,3.8417,3.8967,3.8116,3.7711,3.7976,3.8,0.0,3.8,3.8,3.8,3.8,3.8,3.8121,3.8359,3.9441,4.0379,4.1201,4.1201,4.1201,4.1201,4.1201,4.1201,4.1201,4.1201,4.1201,4.1201,4.1201,4.1201,4.1201,4.1201,4.1201,4.1201,4.1201,4.1201,4.1201,4.3598,4.3598,4.3598,4.3598,4.3598,4.3598,4.3598,4.3712,4.3779,4.3779,4.4423,4.4779,4.46,4.5094,4.5604,4.5988,4.5452,4.5128,4.5128,4.5128,4.5128,4.5128,4.5128,4.5128,4.5128,4.5128,4.5128,4.5128,4.4319,4.3872,4.3747,4.3506,4.3003,4.2319,4.287,4.2749,4.2092,4.2092,4.2092,4.2121,4.2208,4.2237,4.2295,4.2905,4.3137,4.3245,4.3805,4.4059,4.4146,4.4146,4.4182,4.4356,4.4901,4.5046,4.514,4.5743,4.5133,4.4269,4.4269,4.4269,4.4371,4.4671,4.4942,4.5115,4.4867,4.4635,4.4303,4.375,4.3638,4.3469,4.2986,4.2874,4.2874,4.2874,4.2874,4.2874,4.2874,0.0,4.2587,4.3092,4.1242,4.0151,4.0666,3.9078,3.8,3.8,3.8,3.8,3.8,3.8,3.8,3.8,3.8,3.8286,3.8908,3.9898,4.0667,4.1201,4.1201,4.1201,4.1201,4.1201,4.1201,4.1201,4.1201,4.1201,4.1201,4.1201,4.1201,4.1201,4.1201,4.1201,4.1201,4.1201,4.1201,4.1201,4.3598,4.3598,4.3598,4.3598,4.3598,4.3598,4.3598,4.4125,4.4522,4.4522,4.5152,4.5785,4.6173,4.6225,4.6421,4.6922,4.6736,4.6586,4.6586,4.6586,4.6586,4.6586,4.6586,4.6586,4.6586,4.6586,4.6586,4.6586,4.5755,4.5372,4.529,4.3945,4.3239,4.3081,4.2535,4.2236,4.2092,4.2092,4.2092,4.215,4.2665,4.2847,4.2934,4.3573,4.3834,4.3884,4.395,4.4349,4.4763,4.4763,4.5133,4.5627,4.5714,4.5743,4.5772,4.5888,4.5772,4.5627,4.5627,4.5627,4.556,4.5399,4.5395,4.5321,4.4913,4.4774,4.4653,4.4331,4.4256,4.4228,4.4144,4.4116,4.4116,4.4116,4.4116,4.4116,4.4116,0.0,4.1454,4.1559,3.965,3.8404,3.8477,3.8185,3.8,3.8,3.8,3.8,3.8,3.8,3.8,3.8,3.8,3.8479,3.9465,4.009,4.0667,4.1201,4.1201,4.1201,4.1201,4.1201,4.1201,4.1201,4.1201,4.1201,4.1201,4.1201,4.1201,4.1201,4.1201,4.1201,4.1201,4.1201,4.1201,4.1201,4.3598,4.3598,4.3598,4.3598,4.3598,4.3746,4.4125,4.4489,4.4836,4.5233,4.5914,4.6447,4.66,4.6914,4.7127,4.7201,4.7115,4.7013,4.691,4.691,4.691,4.691,4.691,4.691,4.691,4.691,4.691,4.691,4.6074,4.5697,4.5679,4.493,4.4377,4.3955,4.4013,4.3736,4.321,4.321,4.3198,4.3137,4.3427,4.3536,4.3602,4.4262,4.4472,4.4552,4.4879,4.522,4.5453,4.5453,4.5656,4.5917,4.5917,4.5917,4.5917,4.5917,4.5917,4.5917,4.5917,4.5917,4.5872,4.573,4.5504,4.523,4.5,4.4746,4.4565,4.4448,4.4401,4.4401,4.4401,4.4401,4.4401,4.4401,4.4401,4.4401,4.4401,4.3543,4.2916,4.2916,4.1044,3.9725,3.9725,3.8661,3.8,3.8,3.8,3.8,3.8,3.8,3.8118,3.8431,3.8695,3.9248,4.0018,4.0547,4.096,4.1201,4.1201,4.1201,4.1201,4.1201,4.1201,4.1201,4.1201,4.1201,4.1201,4.1201,4.1201,4.1201,4.1201,4.1201,4.1201,4.1201,4.1201,4.1201,4.3598,4.3598,4.3631,4.3845,4.3845,4.411,4.4836,4.5101,4.5399,4.598,4.6709,4.7091,4.6946,4.7391,4.7588,4.7336,4.7235,4.7115,4.6978,4.6927,4.691,4.691,4.691,4.691,4.691,4.691,4.691,4.691,4.6301,4.5967,4.5967,4.5787,4.5463,4.506,4.549,4.521,4.4476,4.4476,4.4288,4.4008,4.4153,4.4211,4.4269,4.4901,4.5133,4.522,4.5714,4.5917,4.5917,4.5917,4.5917,4.5917,4.5917,4.5917,4.5917,4.5917,4.5917,4.5917,4.5917,4.5917,4.5895,4.5827,4.5458,4.5092,4.5046,4.47,4.4401,4.4401,4.4401,4.4401,4.4401,4.4401,4.4401,4.4401,0.0,4.4401,4.4401,4.4186,4.3922,4.3685,4.1987,4.0743,4.049,3.8974,3.8,3.8,3.8,3.8,3.8,3.8121,3.8479,3.9149,3.9585,3.9994,4.0379,4.0908,4.1201,4.1201,4.1201,4.1201,4.1201,4.1201,4.1201,4.1201,4.1201,4.1201,4.1201,4.1201,4.1201,4.1201,4.1201,4.1201,4.1201,4.1201,4.1201,4.1201,4.3598,4.3598,4.3812,4.4489,4.4637,4.4869,4.5631,4.6311,4.6742,4.6808,4.7471,4.7918,4.7918,4.777,4.7688,4.7671,4.737,4.7184,4.7167,4.7013,4.691,4.691,4.691,4.691,4.691,4.691,4.691,4.691,4.6858,4.6823,4.6806,4.6038,4.6026,4.6602,4.5925,4.546,4.5226,4.5226,4.4765,4.4059,4.461,4.4843,4.493,4.5547,4.583,4.583,4.5888,4.5917,4.5917,4.5917,4.5917,4.5917,4.5917,4.5917,4.5917,4.5917,4.5917,4.5917,4.5917,4.5917,4.585,4.5595,4.5321,4.5069,4.4839,4.4583,4.4401,4.4401,4.4401,4.4401,4.4401,4.4401,4.4401,4.4401,0.0,0.0,4.4401,4.3539,4.255,4.1543,4.0414,3.9338,3.8344,3.808,3.8,3.8,3.8,3.8,3.8,3.8479,3.9224,4.0234,4.0306,4.0355,4.0403,4.0908,4.1201,4.1201,4.1201,4.1201,4.1201,4.1201,4.1201,4.1201,4.1201,4.1201,4.1201,4.1201,4.1201,4.1201,4.1201,4.1201,4.1201,4.1201,4.1201,4.1201,4.3598,4.3977,4.4357,4.4637,4.5068,4.5631,4.6378,4.6709,4.7073,4.7537,4.7835,4.8001,4.8001,4.7935,4.7853,4.7704,4.752,4.7335,4.7233,4.7013,4.691,4.691,4.691,4.691,4.691,4.691,4.691,4.691,4.7346,4.7572,4.7572,4.7691,4.7613,4.7334,4.7031,4.6491,4.5801,4.5801,4.5559,4.522,4.5453,4.554,4.5569,4.5801,4.5917,4.5917,4.5917,4.5917,4.5917,4.5917,4.5917,4.5917,4.5917,4.5917,4.5917,4.5917,4.5917,4.5917,4.5917,4.5917,4.5895,4.5753,4.5413,4.5092,4.5,4.4676,4.4401,4.4401,4.4401,4.4401,4.4401,4.4401,4.4401,4.4401,0.0,4.4401,4.4401,4.4068,4.3396,4.233,4.1244,4.016,3.9104,3.8396,3.8,3.8,3.8,3.8169,3.8479,3.932,3.997,4.0379,4.0715,4.0912,4.0912,4.1105,4.1201,4.1201,4.1201,4.1201,4.1201,4.1201,4.1201,4.1201,4.1201,4.1201,4.1201,4.1201,4.1201,4.1201,4.1201,4.1201,4.1201,4.1201,4.1201,4.1201,4.3944,4.4556,4.5134,4.5366,4.5814,4.6378,4.7139,4.7239,4.7438,4.7934,4.8001,4.8001,4.8001,4.8001,4.7952,4.7787,4.7621,4.7436,4.7318,4.7047,4.691,4.691,4.691,4.7007,4.7249,4.7266,4.7346,4.754,4.8091,4.8299,4.8332,4.8785,4.867,4.8041,4.8041,4.7448,4.6467,4.6467,4.6217,4.5917,4.5917,4.5917,4.5917,4.5917,4.5917,4.5917,4.5917,4.5917,4.5917,4.5917,4.5917,4.5917,4.5917,4.5917,4.5917,4.5917,4.5917,4.5917,4.5917,4.585,4.5753,4.5753,4.5435,4.5064,4.5023,4.4676,4.4401,4.4401,4.4401,4.4401,4.4401,4.4401,4.4401,4.4401,4.4401,4.4401,4.4401,4.4401,4.3993,4.2913,4.2159,4.1169,3.9725,3.8948,3.837,3.8027,3.8169,3.8551,3.9245,3.9994,4.0475,4.0643,4.1033,4.1201,4.1201,4.1201,4.1201,4.1201,4.1201,4.1201,4.1201,4.1201,4.1201,4.1201,4.1201,4.1201,4.1201,4.1201,4.1201,4.1201,4.1201,4.1201,4.1201,4.1201,4.1201,4.1201,4.4703,4.53,4.6062,4.6775,4.6908,4.7139,4.7901,4.8001,4.8001,4.8001,4.8001,4.8001,4.8001,4.8001,4.8001,4.8001,4.7687,4.7487,4.7487,4.7148,4.691,4.691,4.691,4.7249,4.7976,4.8008,4.8332,4.9012,4.9012,4.9012,4.9012,4.9012,4.8946,4.8787,4.8787,4.8201,4.7189,4.7189,4.6675,4.5917,4.5917,4.5917,4.5917,4.5917,4.5917,4.5917,4.5917,4.5917,4.5917,4.5917,4.5917,4.5917,4.5917,4.5917,4.5917,4.5917,4.5917,4.5917,4.5917,4.5685,4.5504,4.5504,4.5299,4.5069,4.4867,4.4588,4.4401,4.4401,4.4401,4.4401,4.4401,4.4401,4.4401,4.4401,4.4401,4.4401,4.4401,4.4401,4.3993,4.2913,4.2792,4.1961,3.9802,3.9597,3.9156,3.8104,3.8503,3.9296,4.0331,4.0403,4.0643,4.1172,4.1201,4.1201,4.1201,4.1201,4.1201,4.1201,4.1201,4.1201,4.1201,4.1201,4.1201,4.1201,4.1201,4.1201,4.1201,4.1201,4.1201,4.1201,4.1201,4.1201,4.1201,4.1201,4.1201,4.1201,4.5366,4.6062,4.6643,4.6874,4.7338,4.7736,4.7968,4.8001,4.8001,4.8001,4.8001,4.8001,4.8001,4.8001,4.8001,4.8001,4.7687,4.7598,4.7862,4.7722,4.7896,4.8332,4.7929,4.7993,4.8688,4.8688,4.8817,4.9012,4.953,4.9775,4.9756,5.0293,4.9847,4.8571,4.8571,4.7724,4.6284,4.6284,4.6135,4.5917,4.5917,4.5917,4.5917,4.5917,4.5917,4.5917,4.5917,4.5917,4.5917,4.5917,4.5917,4.5917,4.5917,4.5917,4.5917,4.5917,4.5917,4.5917,4.5917,4.5685,4.5504,4.5504,4.5184,4.4862,4.4821,4.4588,4.4401,4.4401,4.4401,4.4401,4.4401,4.4401,4.4401,4.4401,4.4401,4.4401,4.4401,4.4401,4.3993,4.2913,4.2792,4.1961,3.9802,3.9597,3.9305,3.8607,3.9417,4.0066,4.0379,4.0739,4.1028,4.1201,4.1201,4.1201,4.1201,4.1201,4.1201,4.1201,4.1201,4.1201,4.1201,4.1201,4.1201,4.1201,4.1201,4.1201,4.1201,4.1201,4.1201,4.1201,4.1201,4.1201,4.1201,4.1201,4.1201,4.1201,4.6161,4.6808,4.7338,4.7338,4.7703,4.8001,4.8001,4.8001,4.8001,4.8001,4.8001,4.8001,4.8001,4.8001,4.8001,4.8001,4.7951,4.7939,4.8011,4.8235,4.872,4.94,4.9044,4.9012,4.9432,4.9432,4.9562,4.9872,5.0325,5.0519,5.0552,5.062,4.9896,4.8491,4.8137,4.7211,4.5917,4.5917,4.5917,4.5917,4.5917,4.5917,4.5917,4.5917,4.5917,4.5917,4.5917,4.5917,4.5917,4.5917,4.604,4.6301,4.6563,4.6644,4.6644,4.6644,4.6644,4.6644,4.6644,4.646,4.6253,4.6253,4.551,4.4774,4.4681,4.4542,4.4401,4.4401,4.4401,4.4401,4.4401,4.4401,4.4401,4.4401,4.4401,4.4401,4.4401,4.4401,4.4162,4.3491,4.3057,4.2215,4.0696,4.0156,3.9775,3.9475,4.0042,4.0499,4.0691,4.1004,4.1201,4.1201,4.1201,4.1201,4.1201,4.1201,4.1201,4.1201,4.1201,4.1201,4.1201,4.1201,4.1201,4.1201,4.1201,4.1201,4.1201,4.1201,4.1201,4.1201,4.1201,4.1201,4.1201,4.1201,4.1201,4.1201,4.6974,4.7537,4.8001,4.8001,4.8001,4.8001,4.8001,4.8001,4.8001,4.8001,4.8001,4.8001,4.8001,4.8001,4.8034,4.81,4.8411,4.8511,4.8223,4.8789,4.9451,5.0163,5.0196,5.0196,5.0196,5.0196,5.0519,5.1218,5.1218,5.1218,5.1167,5.0312,4.9399,4.847,4.7597,4.6719,4.5917,4.5917,4.5917,4.5917,4.5917,4.5917,4.5917,4.5917,4.5917,4.5917,4.5953,4.5982,4.5982,4.6063,4.6446,4.7004,4.7608,4.7805,4.7805,4.7805,4.7805,4.7805,4.7805,4.7617,4.7399,4.7399,4.619,4.4921,4.4659,4.4593,4.4593,4.4593,4.4514,4.4458,4.4458,4.4429,4.4401,4.4401,4.4401,4.4401,4.4401,4.4429,4.4458,4.4458,4.3581,4.2704,4.2159,4.1076,4.0411,4.0391,4.0451,4.0667,4.1148,4.1201,4.1201,4.1201,4.1201,4.1201,4.1201,4.1201,4.1201,4.1201,4.1201,4.1201,4.1201,4.1201,4.1201,4.1201,4.1201,4.1201,4.1201,4.1201,4.1201,4.1201,4.1201,4.1201,4.1201,4.1201,4.1201,4.1201,4.7636,4.7901,4.8001,4.8001,4.8001,4.8001,4.8001,4.8001,4.8001,4.8001,4.8001,4.8001,4.8001,4.8001,4.8233,4.8812,4.9321,4.967,4.9852,5.0029,5.0379,5.0927,5.0959,5.0959,5.0959,5.0959,5.1056,5.1218,5.1218,5.1218,5.1167,5.0312,4.9399,4.847,4.7597,4.6719,4.5917,4.5917,4.5917,4.5917,4.5917,4.5917,4.5917,4.5917,4.5917,4.5953,4.6424,4.6598,4.6685,4.7201,4.7486,4.7608,4.7747,4.7805,4.7805,4.7805,4.7805,4.7805,4.7805,4.7617,4.7399,4.7399,4.6847,4.6266,4.6219,4.6027,4.5886,4.5886,4.5493,4.5103,4.5103,4.471,4.4401,4.4401,4.4401,4.4401,4.4401,4.4795,4.5103,4.5103,4.4523,4.3753,4.2813,4.1291,4.0418,4.0407,4.0787,4.1105,4.1201,4.1201,4.1201,4.1201,4.1201,4.1201,4.1201,4.1201,4.1201,4.1201,4.1201,4.1201,4.1201,4.1201,4.1201,4.1201,4.1201,4.1201,4.1201,4.1201,4.1201,4.1201,4.1201,4.1201,4.1201,4.1201,4.1201,4.1201,4.7934,4.8001,4.8001,4.8001,4.8001,4.8001,4.8001,4.8001,4.8001,4.8001,4.8001,4.8001,4.8001,4.8332,4.8796,4.9422,5.0062,5.0412,5.0395,5.0717,5.1002,5.1186,5.1218,5.1218,5.1218,5.1218,5.1218,5.1218,5.1218,5.0978,5.0563,4.9638,4.8738,4.7843,4.6981,4.6329,4.5917,4.5917,4.5917,4.5917,4.5917,4.5917,4.5946,4.6214,4.633,4.6417,4.7056,4.7288,4.7375,4.8014,4.8217,4.8275,4.8618,4.8706,4.8706,4.8706,4.8706,4.8706,4.8706,4.861,4.8466,4.8346,4.8007,4.7572,4.6853,4.6498,4.6307,4.6307,4.6026,4.5802,4.5802,4.5521,4.5324,4.5324,4.5324,4.5324,4.5324,4.5577,4.5556,4.4989,4.4242,4.3205,4.1847,4.1156,4.0763,4.0763,4.1028,4.1201,4.1201,4.1201,4.1201,4.1201,4.1201,4.1201,4.1201,4.1201,4.1201,4.1201,4.1201,4.1201,4.1201,4.1201,4.1201,4.1201,4.1201,4.1201,4.1201,4.1201,4.1201,4.1201,4.1201,4.1201,4.1201,4.1201,4.1201,4.1201,4.8001,4.8001,4.8001,4.8001,4.8001,4.8001,4.8001,4.8001,4.8001,4.8001,4.8001,4.8067,4.8166,4.8961,4.9655,5.0113,5.0786,5.1036,5.0641,5.1192,5.1406,5.1218,5.1218,5.1218,5.1218,5.1218,5.1218,5.1218,5.1218,5.0736,4.9868,4.8922,4.8033,4.7146,4.6284,4.5917,4.5917,4.5917,4.5917,4.5917,4.6011,4.604,4.6127,4.6743,4.6975,4.7062,4.7724,4.8038,4.8212,4.8711,4.8861,4.8972,4.9519,4.9693,4.9693,4.9693,4.9693,4.9693,4.9693,4.9669,4.96,4.9355,4.9058,4.85,4.7304,4.6809,4.6616,4.6616,4.6532,4.6448,4.6448,4.6364,4.6307,4.6307,4.6307,4.6307,4.6307,4.6392,4.6027,4.4794,4.3622,4.2272,4.07,4.096,4.1201,4.1201,4.1201,4.1201,4.1201,4.1201,4.1201,4.1201,4.1201,4.1201,4.1201,4.1201,4.1201,4.1201,4.1201,4.1201,4.1201,4.1201,4.1201,4.1201,4.1201,4.1201,4.1201,4.1201,4.1201,4.1201,4.1201,4.1201,4.1201,4.1201,4.1201,4.1201,4.8001,4.8001,4.8001,4.8001,4.8001,4.8001,4.8001,4.8001,4.8001,4.8001,4.8001,4.8233,4.8895,5.0171,5.1033,5.1097,5.1633,5.1864,5.1612,5.1526,5.1406,5.1218,5.1218,5.1218,5.1218,5.1218,5.1218,5.1218,5.1218,5.0736,4.9868,4.8922,4.8033,4.7146,4.6284,4.5917,4.5917,4.5917,4.5917,4.5946,4.6453,4.6685,4.6743,4.7404,4.7637,4.7724,4.8362,4.8943,4.9461,4.9548,4.9577,4.9577,4.9664,4.9693,4.9693,4.9693,4.9693,4.9693,4.9693,4.9551,4.9355,4.9305,4.8934,4.8503,4.8308,4.8054,4.7856,4.7856,4.7434,4.7094,4.7094,4.6645,4.6307,4.6307,4.6307,4.6307,4.6307,4.6757,4.6615,4.5419,4.388,4.2404,4.1195,4.1177,4.1201,4.1201,4.1201,4.1201,4.1201,4.1201,4.1201,4.1201,4.1201,4.1201,4.1201,4.1201,4.1201,4.1201,4.1201,4.1201,4.1201,4.1201,4.1201,4.1201,4.1201,4.1201,4.1201,4.1201,4.1201,4.1201,4.1201,4.1201,4.1201,4.1201,4.1201,4.1201,4.8001,4.8001,4.8001,4.8001,4.8001,4.8001,4.8001,4.8001,4.8001,4.8001,4.8365,4.8763,4.9044,5.0436,5.1463,5.1861,5.2029,5.2013,5.1831,5.161,5.1406,5.1218,5.1218,5.1218,5.1218,5.1218,5.1218,5.1218,5.0698,5.0006,4.9116,4.8179,4.7297,4.6462,4.6068,4.6098,4.6417,4.6417,4.6621,4.6992,4.7259,4.7375,4.7433,4.8072,4.8304,4.8391,4.903,4.9461,4.9693,4.9693,4.9693,4.9693,4.9693,4.9693,4.9693,4.9693,4.9693,4.9669,4.9526,4.9379,4.9231,4.8934,4.8656,4.8456,4.8308,4.8182,4.8108,4.8108,4.7884,4.7687,4.7687,4.7491,4.7319,4.7319,4.7319,4.7319,4.7319,4.7519,4.7026,4.5155,4.3729,4.2463,4.1316,4.1201,4.1201,4.1201,4.1201,4.1201,4.1201,4.1201,4.1201,4.1201,4.1201,4.1201,4.1201,4.1201,4.1201,4.1201,4.1201,4.1201,4.1201,4.1201,4.1201,4.1201,4.1201,4.1201,4.1201,4.1201,4.1201,4.1201,4.1201,4.1201,4.1201,4.1201,4.1201,4.1249]}]]